<?xml version='1.0' encoding='UTF-8'?><gpx version="1.1" creator="JPX - https://github.com/jenetics/jpx" xmlns="http://www.topografix.com/GPX/1/1"><trk><trkseg><trkpt lat="49.133762883498136" lon="2.5079262469322594"><ele>77.83333333333333</ele><time>2026-04-22T11:58:59.999Z</time></trkpt><trkpt lat="49.133805294700714" lon="2.5078202133307137"><ele>77.66666666666667</ele><time>2026-04-22T11:59:01.999Z</time></trkpt><trkpt lat="49.13383930119409" lon="2.5077264754296893"><ele>77.5</ele><time>2026-04-22T11:59:03.999Z</time></trkpt><trkpt lat="49.13389511832327" lon="2.5076074860512914"><ele>77.33333333333334</ele><time>2026-04-22T11:59:05.999Z</time></trkpt><trkpt lat="49.13394368987562" lon="2.507487174244923"><ele>77.16666666666667</ele><time>2026-04-22T11:59:07.999Z</time></trkpt><trkpt lat="49.13397574818175" lon="2.507363890905737"><ele>77.0</ele><time>2026-04-22T11:59:09.999Z</time></trkpt><trkpt lat="49.13402881365531" lon="2.5072563915783066"><ele>76.5</ele><time>2026-04-22T11:59:11.999Z</time></trkpt><trkpt lat="49.13407267791683" lon="2.507137825005116"><ele>76.0</ele><time>2026-04-22T11:59:13.999Z</time></trkpt><trkpt lat="49.134117977665554" lon="2.507045796881295"><ele>75.5</ele><time>2026-04-22T11:59:15.999Z</time></trkpt><trkpt lat="49.134148916465314" lon="2.506937829447831"><ele>75.0</ele><time>2026-04-22T11:59:17.999Z</time></trkpt><trkpt lat="49.13419523209765" lon="2.506852111067038"><ele>74.5</ele><time>2026-04-22T11:59:19.999Z</time></trkpt><trkpt lat="49.13423372060441" lon="2.506770160013744"><ele>74.0</ele><time>2026-04-22T11:59:21.999Z</time></trkpt><trkpt lat="49.13431610625316" lon="2.5067449237320494"><ele>75.0</ele><time>2026-04-22T11:59:24.998Z</time></trkpt><trkpt lat="49.13438053030368" lon="2.506799803755144"><ele>76.0</ele><time>2026-04-22T11:59:26.998Z</time></trkpt><trkpt lat="49.134447094527836" lon="2.5068442100477077"><ele>77.0</ele><time>2026-04-22T11:59:28.998Z</time></trkpt><trkpt lat="49.13451206223454" lon="2.50688793451918"><ele>78.0</ele><time>2026-04-22T11:59:30.998Z</time></trkpt><trkpt lat="49.13457928746707" lon="2.5069450478890163"><ele>79.0</ele><time>2026-04-22T11:59:32.998Z</time></trkpt><trkpt lat="49.13466467778619" lon="2.5069882281899516"><ele>80.0</ele><time>2026-04-22T11:59:34.998Z</time></trkpt><trkpt lat="49.134751193097024" lon="2.5070128345175102"><ele>80.0</ele><time>2026-04-22T11:59:36.998Z</time></trkpt><trkpt lat="49.1348449970641" lon="2.507033645632421"><ele>80.0</ele><time>2026-04-22T11:59:38.998Z</time></trkpt><trkpt lat="49.13493559371172" lon="2.5070555038586937"><ele>80.0</ele><time>2026-04-22T11:59:40.998Z</time></trkpt><trkpt lat="49.135027909500025" lon="2.507085808528572"><ele>80.0</ele><time>2026-04-22T11:59:42.998Z</time></trkpt><trkpt lat="49.13511960686" lon="2.5071084614755845"><ele>80.0</ele><time>2026-04-22T11:59:44.998Z</time></trkpt><trkpt lat="49.13521067072335" lon="2.507127061550219"><ele>79.0</ele><time>2026-04-22T11:59:46.998Z</time></trkpt><trkpt lat="49.13530348141496" lon="2.5071374510584974"><ele>78.0</ele><time>2026-04-22T11:59:48.998Z</time></trkpt><trkpt lat="49.13539697495377" lon="2.507154624783034"><ele>77.0</ele><time>2026-04-22T11:59:50.998Z</time></trkpt><trkpt lat="49.13549069112445" lon="2.5071685068378393"><ele>76.0</ele><time>2026-04-22T11:59:52.998Z</time></trkpt><trkpt lat="49.135583806200046" lon="2.507170075837641"><ele>75.0</ele><time>2026-04-22T11:59:54.998Z</time></trkpt><trkpt lat="49.13568917896515" lon="2.507213080259354"><ele>75.0</ele><time>2026-04-22T11:59:56.998Z</time></trkpt><trkpt lat="49.13579767609846" lon="2.5072415559325583"><ele>75.0</ele><time>2026-04-22T11:59:58.998Z</time></trkpt><trkpt lat="49.13590628720354" lon="2.5072543084344914"><ele>75.0</ele><time>2026-04-22T12:00:00.998Z</time></trkpt><trkpt lat="49.13599361291734" lon="2.5071709545784073"><ele>75.0</ele><time>2026-04-22T12:00:02.997Z</time></trkpt><trkpt lat="49.136077372228456" lon="2.507132318715102"><ele>75.0</ele><time>2026-04-22T12:00:04.997Z</time></trkpt><trkpt lat="49.13616343520571" lon="2.5071533500263663"><ele>75.0</ele><time>2026-04-22T12:00:06.997Z</time></trkpt><trkpt lat="49.136247917550136" lon="2.5071586258598555"><ele>75.0</ele><time>2026-04-22T12:00:08.997Z</time></trkpt><trkpt lat="49.13633510558587" lon="2.507158743657019"><ele>75.0</ele><time>2026-04-22T12:00:10.997Z</time></trkpt><trkpt lat="49.13641435152634" lon="2.50714779035194"><ele>75.0</ele><time>2026-04-22T12:00:12.997Z</time></trkpt><trkpt lat="49.13650995561351" lon="2.507125526940715"><ele>75.0</ele><time>2026-04-22T12:00:14.997Z</time></trkpt><trkpt lat="49.13660027539471" lon="2.507119791797997"><ele>75.0</ele><time>2026-04-22T12:00:16.997Z</time></trkpt><trkpt lat="49.13667583073887" lon="2.5071063561534723"><ele>75.4</ele><time>2026-04-22T12:00:19Z</time></trkpt><trkpt lat="49.136768271210876" lon="2.507078708825986"><ele>75.8</ele><time>2026-04-22T12:00:21Z</time></trkpt><trkpt lat="49.13686188988218" lon="2.5070539225781423"><ele>76.2</ele><time>2026-04-22T12:00:23Z</time></trkpt><trkpt lat="49.13694856637846" lon="2.5070259608377783"><ele>76.6</ele><time>2026-04-22T12:00:25Z</time></trkpt><trkpt lat="49.137048222083195" lon="2.5070011338535476"><ele>77.0</ele><time>2026-04-22T12:00:27Z</time></trkpt><trkpt lat="49.1371440771926" lon="2.506991534901715"><ele>77.2</ele><time>2026-04-22T12:00:29Z</time></trkpt><trkpt lat="49.137245073284554" lon="2.5069794154133787"><ele>77.4</ele><time>2026-04-22T12:00:31Z</time></trkpt><trkpt lat="49.13734130867285" lon="2.5069572058512137"><ele>77.6</ele><time>2026-04-22T12:00:33Z</time></trkpt><trkpt lat="49.137450032773536" lon="2.506999132334917"><ele>77.8</ele><time>2026-04-22T12:00:35Z</time></trkpt><trkpt lat="49.13752788715672" lon="2.507097728047446"><ele>78.0</ele><time>2026-04-22T12:00:37Z</time></trkpt><trkpt lat="49.13759715764416" lon="2.507184109101555"><ele>78.4</ele><time>2026-04-22T12:00:39Z</time></trkpt><trkpt lat="49.137696204895015" lon="2.5072600685958175"><ele>78.8</ele><time>2026-04-22T12:00:41Z</time></trkpt><trkpt lat="49.137775384639575" lon="2.507331383370248"><ele>79.2</ele><time>2026-04-22T12:00:43Z</time></trkpt><trkpt lat="49.13788514443327" lon="2.507408435613019"><ele>79.6</ele><time>2026-04-22T12:00:45Z</time></trkpt><trkpt lat="49.13796755013363" lon="2.507443908228028"><ele>80.0</ele><time>2026-04-22T12:00:47Z</time></trkpt><trkpt lat="49.13806818350827" lon="2.5074598334992073"><ele>80.0</ele><time>2026-04-22T12:00:49Z</time></trkpt><trkpt lat="49.13816916279036" lon="2.5074893564377354"><ele>80.0</ele><time>2026-04-22T12:00:51Z</time></trkpt><trkpt lat="49.13825384221688" lon="2.507458968230737"><ele>80.0</ele><time>2026-04-22T12:00:53Z</time></trkpt><trkpt lat="49.13834430185219" lon="2.507468185513957"><ele>80.0</ele><time>2026-04-22T12:00:54.999Z</time></trkpt><trkpt lat="49.138412249155536" lon="2.507518981081458"><ele>80.0</ele><time>2026-04-22T12:00:57.999Z</time></trkpt><trkpt lat="49.13848238719202" lon="2.5075099407976045"><ele>80.0</ele><time>2026-04-22T12:01:00.999Z</time></trkpt><trkpt lat="49.13854711023646" lon="2.50741691266617"><ele>78.8</ele><time>2026-04-22T12:01:02.999Z</time></trkpt><trkpt lat="49.13863644396264" lon="2.50731516191121"><ele>77.6</ele><time>2026-04-22T12:01:04.999Z</time></trkpt><trkpt lat="49.13868126742475" lon="2.507244871748561"><ele>76.4</ele><time>2026-04-22T12:01:05.999Z</time></trkpt><trkpt lat="49.13877693544322" lon="2.5072082281092034"><ele>75.2</ele><time>2026-04-22T12:01:07.999Z</time></trkpt><trkpt lat="49.138875519644536" lon="2.507109201369749"><ele>74.0</ele><time>2026-04-22T12:01:09.999Z</time></trkpt><trkpt lat="49.13892024129577" lon="2.5069768399365575"><ele>73.8</ele><time>2026-04-22T12:01:11.999Z</time></trkpt><trkpt lat="49.13900048270722" lon="2.5068477881138116"><ele>73.60000000000001</ele><time>2026-04-22T12:01:13.999Z</time></trkpt><trkpt lat="49.13905426389585" lon="2.506704675114551"><ele>73.4</ele><time>2026-04-22T12:01:15.999Z</time></trkpt><trkpt lat="49.13910124349973" lon="2.5065531099044525"><ele>73.2</ele><time>2026-04-22T12:01:17.999Z</time></trkpt><trkpt lat="49.13918008747646" lon="2.5064394069964844"><ele>73.0</ele><time>2026-04-22T12:01:19.999Z</time></trkpt><trkpt lat="49.13922233948962" lon="2.506302349157247"><ele>73.0</ele><time>2026-04-22T12:01:21.999Z</time></trkpt><trkpt lat="49.13928876447696" lon="2.5062088005645324"><ele>73.0</ele><time>2026-04-22T12:01:23.999Z</time></trkpt><trkpt lat="49.13937821194065" lon="2.506166388810564"><ele>73.0</ele><time>2026-04-22T12:01:25.999Z</time></trkpt><trkpt lat="49.13945382497581" lon="2.5061243403404503"><ele>73.0</ele><time>2026-04-22T12:01:27.998Z</time></trkpt><trkpt lat="49.139531965056" lon="2.50614538975503"><ele>73.0</ele><time>2026-04-22T12:01:29.998Z</time></trkpt><trkpt lat="49.139622168632144" lon="2.506203798482928"><ele>73.0</ele><time>2026-04-22T12:01:31.998Z</time></trkpt><trkpt lat="49.13969931103534" lon="2.506281711677105"><ele>73.0</ele><time>2026-04-22T12:01:33.998Z</time></trkpt><trkpt lat="49.139764016550615" lon="2.5063247636099013"><ele>73.0</ele><time>2026-04-22T12:01:35.998Z</time></trkpt><trkpt lat="49.13986143986165" lon="2.5063237407822108"><ele>73.0</ele><time>2026-04-22T12:01:37.998Z</time></trkpt><trkpt lat="49.13994270956717" lon="2.5064000300283418"><ele>73.0</ele><time>2026-04-22T12:01:39.998Z</time></trkpt><trkpt lat="49.140019132718635" lon="2.506465357440096"><ele>73.0</ele><time>2026-04-22T12:01:41.998Z</time></trkpt><trkpt lat="49.14008379516655" lon="2.5065426263005963"><ele>73.0</ele><time>2026-04-22T12:01:43.998Z</time></trkpt><trkpt lat="49.140153862457936" lon="2.5066202210988684"><ele>72.8</ele><time>2026-04-22T12:01:45.998Z</time></trkpt><trkpt lat="49.14022681677667" lon="2.5067325545827543"><ele>72.6</ele><time>2026-04-22T12:01:47.998Z</time></trkpt><trkpt lat="49.14028560245599" lon="2.5068360962045073"><ele>72.4</ele><time>2026-04-22T12:01:49.998Z</time></trkpt><trkpt lat="49.14035889777976" lon="2.506927716459581"><ele>72.2</ele><time>2026-04-22T12:01:51.998Z</time></trkpt><trkpt lat="49.14045476731176" lon="2.506964104136427"><ele>72.0</ele><time>2026-04-22T12:01:53.998Z</time></trkpt><trkpt lat="49.140510999604146" lon="2.507009187276902"><ele>71.5</ele><time>2026-04-22T12:01:55.998Z</time></trkpt><trkpt lat="49.14057763703912" lon="2.507100763289968"><ele>71.0</ele><time>2026-04-22T12:01:57.998Z</time></trkpt><trkpt lat="49.14065051557392" lon="2.5071236858635366"><ele>70.5</ele><time>2026-04-22T12:01:59.998Z</time></trkpt><trkpt lat="49.14073721479928" lon="2.5071109926930633"><ele>70.0</ele><time>2026-04-22T12:02:01.997Z</time></trkpt><trkpt lat="49.14080494513882" lon="2.507114226767254"><ele>69.5</ele><time>2026-04-22T12:02:03.997Z</time></trkpt><trkpt lat="49.140869255579574" lon="2.5071295089156633"><ele>69.0</ele><time>2026-04-22T12:02:05.997Z</time></trkpt><trkpt lat="49.14094857120789" lon="2.507123004145278"><ele>69.0</ele><time>2026-04-22T12:02:07.997Z</time></trkpt><trkpt lat="49.14101807859665" lon="2.507139001559657"><ele>69.0</ele><time>2026-04-22T12:02:09.997Z</time></trkpt><trkpt lat="49.14108923932237" lon="2.5071318526425834"><ele>69.0</ele><time>2026-04-22T12:02:11.997Z</time></trkpt><trkpt lat="49.14117154907163" lon="2.5071288806694576"><ele>69.0</ele><time>2026-04-22T12:02:14.997Z</time></trkpt><trkpt lat="49.14125254927732" lon="2.5071289529371534"><ele>69.0</ele><time>2026-04-22T12:02:16.997Z</time></trkpt><trkpt lat="49.14132996365766" lon="2.507117504947019"><ele>69.0</ele><time>2026-04-22T12:02:18.997Z</time></trkpt><trkpt lat="49.14140540128111" lon="2.5071128876148485"><ele>69.71428571428572</ele><time>2026-04-22T12:02:21.997Z</time></trkpt><trkpt lat="49.14143554906275" lon="2.5070266665252037"><ele>70.42857142857143</ele><time>2026-04-22T12:02:23.997Z</time></trkpt><trkpt lat="49.14146378747693" lon="2.5068901545377336"><ele>71.14285714285714</ele><time>2026-04-22T12:02:27Z</time></trkpt><trkpt lat="49.141485547899634" lon="2.5067688752340254"><ele>71.85714285714286</ele><time>2026-04-22T12:02:30Z</time></trkpt><trkpt lat="49.14150684294504" lon="2.5066738336440744"><ele>72.57142857142857</ele><time>2026-04-22T12:02:32Z</time></trkpt><trkpt lat="49.14152868048055" lon="2.5065708302386605"><ele>73.28571428571429</ele><time>2026-04-22T12:02:34Z</time></trkpt><trkpt lat="49.14153887882924" lon="2.506474108966605"><ele>74.0</ele><time>2026-04-22T12:02:36Z</time></trkpt><trkpt lat="49.14155883832747" lon="2.506366656450625"><ele>74.14285714285714</ele><time>2026-04-22T12:02:38Z</time></trkpt><trkpt lat="49.14157313462537" lon="2.5062617268118617"><ele>74.28571428571428</ele><time>2026-04-22T12:02:40Z</time></trkpt><trkpt lat="49.14159168991485" lon="2.50616902693822"><ele>74.42857142857142</ele><time>2026-04-22T12:02:42Z</time></trkpt><trkpt lat="49.14161025632097" lon="2.5060534700886783"><ele>74.57142857142857</ele><time>2026-04-22T12:02:44Z</time></trkpt><trkpt lat="49.14162744293066" lon="2.5059548859731264"><ele>74.71428571428571</ele><time>2026-04-22T12:02:46Z</time></trkpt><trkpt lat="49.14164382412388" lon="2.5058304852027247"><ele>74.85714285714285</ele><time>2026-04-22T12:02:48Z</time></trkpt><trkpt lat="49.141657065622034" lon="2.5057252108271157"><ele>75.0</ele><time>2026-04-22T12:02:50Z</time></trkpt><trkpt lat="49.141683622418256" lon="2.5055802519303128"><ele>75.0</ele><time>2026-04-22T12:02:53Z</time></trkpt><trkpt lat="49.14170185931461" lon="2.5054845853142007"><ele>75.0</ele><time>2026-04-22T12:02:55Z</time></trkpt><trkpt lat="49.14172918259561" lon="2.5053586961403016"><ele>75.0</ele><time>2026-04-22T12:02:58Z</time></trkpt><trkpt lat="49.141741226007575" lon="2.5052343833370037"><ele>75.0</ele><time>2026-04-22T12:03:00Z</time></trkpt><trkpt lat="49.14174161369386" lon="2.5051205425740455"><ele>75.0</ele><time>2026-04-22T12:03:01.999Z</time></trkpt><trkpt lat="49.14176210848727" lon="2.5050137317916983"><ele>75.0</ele><time>2026-04-22T12:03:03.999Z</time></trkpt><trkpt lat="49.141777245291415" lon="2.5048805013533464"><ele>75.16666666666667</ele><time>2026-04-22T12:03:06.999Z</time></trkpt><trkpt lat="49.141808495741486" lon="2.5047899755048295"><ele>75.33333333333333</ele><time>2026-04-22T12:03:08.999Z</time></trkpt><trkpt lat="49.141819146521264" lon="2.5046438216387092"><ele>75.5</ele><time>2026-04-22T12:03:11.999Z</time></trkpt><trkpt lat="49.14187279619267" lon="2.50457932660571"><ele>75.66666666666666</ele><time>2026-04-22T12:03:14.999Z</time></trkpt><trkpt lat="49.1419963726555" lon="2.5045340226442536"><ele>75.83333333333333</ele><time>2026-04-22T12:03:19.999Z</time></trkpt><trkpt lat="49.14207303446405" lon="2.5045482118074625"><ele>76.0</ele><time>2026-04-22T12:03:23.999Z</time></trkpt><trkpt lat="49.14214382490705" lon="2.504542562994027"><ele>76.0</ele><time>2026-04-22T12:03:27.999Z</time></trkpt><trkpt lat="49.14221772725504" lon="2.5045535731329163"><ele>76.0</ele><time>2026-04-22T12:03:30.999Z</time></trkpt><trkpt lat="49.14229341251104" lon="2.5045662891613696"><ele>76.0</ele><time>2026-04-22T12:03:33.998Z</time></trkpt><trkpt lat="49.14236998111442" lon="2.504545494584326"><ele>76.0</ele><time>2026-04-22T12:03:36.998Z</time></trkpt><trkpt lat="49.14245247534286" lon="2.5045391136206248"><ele>76.0</ele><time>2026-04-22T12:03:39.998Z</time></trkpt><trkpt lat="49.14253854827821" lon="2.5045364384565563"><ele>76.0</ele><time>2026-04-22T12:03:43.998Z</time></trkpt><trkpt lat="49.14261774152021" lon="2.504543918451364"><ele>76.33333333333333</ele><time>2026-04-22T12:03:46.998Z</time></trkpt><trkpt lat="49.14271978465715" lon="2.504534056021495"><ele>76.66666666666666</ele><time>2026-04-22T12:03:49.998Z</time></trkpt><trkpt lat="49.1428047457652" lon="2.5045432479996714"><ele>77.0</ele><time>2026-04-22T12:03:52.998Z</time></trkpt><trkpt lat="49.14286774524912" lon="2.5045269524079963"><ele>77.33333333333333</ele><time>2026-04-22T12:03:54.998Z</time></trkpt><trkpt lat="49.14293138524784" lon="2.5045351588408344"><ele>77.66666666666667</ele><time>2026-04-22T12:03:56.998Z</time></trkpt><trkpt lat="49.14300752525" lon="2.5045325033971553"><ele>78.0</ele><time>2026-04-22T12:03:59.998Z</time></trkpt><trkpt lat="49.143087918646664" lon="2.5045368425076133"><ele>78.0</ele><time>2026-04-22T12:04:25.997Z</time></trkpt><trkpt lat="49.14317185212238" lon="2.5045429378029453"><ele>78.0</ele><time>2026-04-22T12:04:28.997Z</time></trkpt><trkpt lat="49.1432403505754" lon="2.5045393766254955"><ele>78.0</ele><time>2026-04-22T12:04:31Z</time></trkpt><trkpt lat="49.14330332375257" lon="2.5045270713948735"><ele>78.0</ele><time>2026-04-22T12:04:33Z</time></trkpt><trkpt lat="49.14339626748252" lon="2.5045094569610753"><ele>78.0</ele><time>2026-04-22T12:04:36Z</time></trkpt><trkpt lat="49.14348053861908" lon="2.504522182546526"><ele>78.0</ele><time>2026-04-22T12:04:38Z</time></trkpt><trkpt lat="49.143556007009465" lon="2.5045283231359656"><ele>78.16666666666667</ele><time>2026-04-22T12:04:40Z</time></trkpt><trkpt lat="49.14362969361059" lon="2.5045239367949748"><ele>78.33333333333333</ele><time>2026-04-22T12:04:42Z</time></trkpt><trkpt lat="49.14370881320361" lon="2.5045168508162736"><ele>78.5</ele><time>2026-04-22T12:04:44Z</time></trkpt><trkpt lat="49.143803073866906" lon="2.504511562113804"><ele>78.66666666666666</ele><time>2026-04-22T12:04:46Z</time></trkpt><trkpt lat="49.14386731248733" lon="2.504521099906555"><ele>78.83333333333333</ele><time>2026-04-22T12:04:48Z</time></trkpt><trkpt lat="49.14394670425334" lon="2.504508738700066"><ele>79.0</ele><time>2026-04-22T12:04:50Z</time></trkpt><trkpt lat="49.144024582305" lon="2.5045102905245438"><ele>78.5</ele><time>2026-04-22T12:04:52Z</time></trkpt><trkpt lat="49.144104447812694" lon="2.5045157736173436"><ele>78.0</ele><time>2026-04-22T12:04:55Z</time></trkpt><trkpt lat="49.144176904550505" lon="2.5045191209242024"><ele>77.5</ele><time>2026-04-22T12:04:57Z</time></trkpt><trkpt lat="49.14426178277523" lon="2.5045205209683497"><ele>77.0</ele><time>2026-04-22T12:04:59Z</time></trkpt><trkpt lat="49.14434097183241" lon="2.504502017512727"><ele>76.5</ele><time>2026-04-22T12:05:01Z</time></trkpt><trkpt lat="49.14443126723292" lon="2.5045044769329814"><ele>76.0</ele><time>2026-04-22T12:05:03Z</time></trkpt><trkpt lat="49.14452349574114" lon="2.504509139451135"><ele>76.0</ele><time>2026-04-22T12:05:05Z</time></trkpt><trkpt lat="49.14461255998917" lon="2.504513455631796"><ele>76.0</ele><time>2026-04-22T12:05:06.999Z</time></trkpt><trkpt lat="49.14470684593802" lon="2.5045120964631407"><ele>76.0</ele><time>2026-04-22T12:05:08.999Z</time></trkpt><trkpt lat="49.14479161861544" lon="2.5045020730344767"><ele>76.0</ele><time>2026-04-22T12:05:10.999Z</time></trkpt><trkpt lat="49.14486465669573" lon="2.5044905056510345"><ele>76.0</ele><time>2026-04-22T12:05:12.999Z</time></trkpt><trkpt lat="49.144942043059565" lon="2.5044915129556777"><ele>76.0</ele><time>2026-04-22T12:05:14.999Z</time></trkpt><trkpt lat="49.14501690906796" lon="2.504485304645473"><ele>75.57142857142857</ele><time>2026-04-22T12:05:16.999Z</time></trkpt><trkpt lat="49.14508329759513" lon="2.50448936777053"><ele>75.14285714285715</ele><time>2026-04-22T12:05:18.999Z</time></trkpt><trkpt lat="49.145165469898956" lon="2.504520903967107"><ele>74.71428571428572</ele><time>2026-04-22T12:05:20.999Z</time></trkpt><trkpt lat="49.14523167373585" lon="2.504505045066978"><ele>74.28571428571428</ele><time>2026-04-22T12:05:22.999Z</time></trkpt><trkpt lat="49.1453033618945" lon="2.504496189759267"><ele>73.85714285714286</ele><time>2026-04-22T12:05:24.999Z</time></trkpt><trkpt lat="49.14536851006126" lon="2.5044915115521285"><ele>73.42857142857143</ele><time>2026-04-22T12:05:26.999Z</time></trkpt><trkpt lat="49.1454388962402" lon="2.504504088498085"><ele>73.0</ele><time>2026-04-22T12:05:28.999Z</time></trkpt><trkpt lat="49.1455014956477" lon="2.504444041697834"><ele>73.0</ele><time>2026-04-22T12:05:30.999Z</time></trkpt><trkpt lat="49.1455191976237" lon="2.504327954155359"><ele>73.0</ele><time>2026-04-22T12:05:32.999Z</time></trkpt><trkpt lat="49.145536873709446" lon="2.5042135937031214"><ele>73.0</ele><time>2026-04-22T12:05:34.999Z</time></trkpt><trkpt lat="49.14555837194626" lon="2.5041052304537117"><ele>73.0</ele><time>2026-04-22T12:05:36.999Z</time></trkpt><trkpt lat="49.14558834123871" lon="2.503985882045105"><ele>73.0</ele><time>2026-04-22T12:05:38.998Z</time></trkpt><trkpt lat="49.145603474343545" lon="2.503848548531972"><ele>73.0</ele><time>2026-04-22T12:05:40.998Z</time></trkpt><trkpt lat="49.1456238789694" lon="2.5037129312443773"><ele>73.16666666666666</ele><time>2026-04-22T12:05:42.998Z</time></trkpt><trkpt lat="49.145647520623235" lon="2.5035992777880027"><ele>73.33333333333333</ele><time>2026-04-22T12:05:44.998Z</time></trkpt><trkpt lat="49.14566784798202" lon="2.5034781727864743"><ele>73.5</ele><time>2026-04-22T12:05:46.998Z</time></trkpt><trkpt lat="49.14568542022904" lon="2.503365987560199"><ele>73.66666666666667</ele><time>2026-04-22T12:05:48.998Z</time></trkpt><trkpt lat="49.14570400132272" lon="2.5032249098625066"><ele>73.83333333333334</ele><time>2026-04-22T12:05:50.998Z</time></trkpt><trkpt lat="49.145723854602615" lon="2.5031113235644815"><ele>74.0</ele><time>2026-04-22T12:05:52.998Z</time></trkpt><trkpt lat="49.14574811074719" lon="2.5029547013078535"><ele>72.8</ele><time>2026-04-22T12:05:54.998Z</time></trkpt><trkpt lat="49.14576444661258" lon="2.5028004816482423"><ele>71.60000000000001</ele><time>2026-04-22T12:05:56.998Z</time></trkpt><trkpt lat="49.14577878055519" lon="2.5026614591552176"><ele>70.4</ele><time>2026-04-22T12:05:58.998Z</time></trkpt><trkpt lat="49.145804868195185" lon="2.502516710530915"><ele>69.2</ele><time>2026-04-22T12:06:00.998Z</time></trkpt><trkpt lat="49.145823585950346" lon="2.502372666398487"><ele>68.0</ele><time>2026-04-22T12:06:02.998Z</time></trkpt><trkpt lat="49.14583707928721" lon="2.5022205273260565"><ele>68.0</ele><time>2026-04-22T12:06:04.998Z</time></trkpt><trkpt lat="49.14590179325127" lon="2.5021724675974477"><ele>68.0</ele><time>2026-04-22T12:06:07.998Z</time></trkpt><trkpt lat="49.145992210640166" lon="2.502219607832827"><ele>68.0</ele><time>2026-04-22T12:06:10.998Z</time></trkpt><trkpt lat="49.14605957489227" lon="2.502281363456752"><ele>68.0</ele><time>2026-04-22T12:06:12.997Z</time></trkpt><trkpt lat="49.14614527426038" lon="2.5023484184385154"><ele>68.0</ele><time>2026-04-22T12:06:14.997Z</time></trkpt><trkpt lat="49.14623429838755" lon="2.502420693779212"><ele>68.0</ele><time>2026-04-22T12:06:16.997Z</time></trkpt><trkpt lat="49.14632706254449" lon="2.50249273053484"><ele>68.0</ele><time>2026-04-22T12:06:18.997Z</time></trkpt><trkpt lat="49.14642014699438" lon="2.502572592209657"><ele>68.0</ele><time>2026-04-22T12:06:20.997Z</time></trkpt><trkpt lat="49.1465181419372" lon="2.5026542278424992"><ele>68.0</ele><time>2026-04-22T12:06:22.997Z</time></trkpt><trkpt lat="49.146608494893506" lon="2.5027402118090314"><ele>68.0</ele><time>2026-04-22T12:06:24.997Z</time></trkpt><trkpt lat="49.14666948557335" lon="2.5027927649273756"><ele>68.0</ele><time>2026-04-22T12:06:25.997Z</time></trkpt><trkpt lat="49.14677389379485" lon="2.5028867633982097"><ele>66.5</ele><time>2026-04-22T12:06:27.997Z</time></trkpt><trkpt lat="49.146877171917865" lon="2.5029680510101877"><ele>65.0</ele><time>2026-04-22T12:06:29.997Z</time></trkpt><trkpt lat="49.14697942532785" lon="2.5030612569828254"><ele>63.5</ele><time>2026-04-22T12:06:31.997Z</time></trkpt><trkpt lat="49.147080512659855" lon="2.5031567650535704"><ele>62.0</ele><time>2026-04-22T12:06:33.997Z</time></trkpt><trkpt lat="49.14718007129105" lon="2.5032432205626605"><ele>62.0</ele><time>2026-04-22T12:06:35.997Z</time></trkpt><trkpt lat="49.14723813182245" lon="2.5032824954131643"><ele>62.0</ele><time>2026-04-22T12:06:37Z</time></trkpt><trkpt lat="49.14734092342845" lon="2.5033720480274466"><ele>62.0</ele><time>2026-04-22T12:06:39Z</time></trkpt><trkpt lat="49.1474424094979" lon="2.503466463978485"><ele>62.0</ele><time>2026-04-22T12:06:41Z</time></trkpt><trkpt lat="49.14754139677523" lon="2.503552597294176"><ele>62.0</ele><time>2026-04-22T12:06:43Z</time></trkpt><trkpt lat="49.14764110334963" lon="2.5036389049520826"><ele>62.25</ele><time>2026-04-22T12:06:45Z</time></trkpt><trkpt lat="49.14773520885804" lon="2.5037224455933447"><ele>62.5</ele><time>2026-04-22T12:06:47Z</time></trkpt><trkpt lat="49.14782925126013" lon="2.503810777051791"><ele>62.75</ele><time>2026-04-22T12:06:49Z</time></trkpt><trkpt lat="49.14793051773965" lon="2.503895384776368"><ele>63.0</ele><time>2026-04-22T12:06:51Z</time></trkpt><trkpt lat="49.148037232639005" lon="2.503982948831646"><ele>63.0</ele><time>2026-04-22T12:06:53Z</time></trkpt><trkpt lat="49.14813755909212" lon="2.5040650584836706"><ele>63.0</ele><time>2026-04-22T12:06:55Z</time></trkpt><trkpt lat="49.1482263680328" lon="2.5041586545745105"><ele>63.0</ele><time>2026-04-22T12:06:57Z</time></trkpt><trkpt lat="49.14832392306782" lon="2.5042161204866504"><ele>63.0</ele><time>2026-04-22T12:06:59Z</time></trkpt><trkpt lat="49.14841484085716" lon="2.5043149286842965"><ele>63.0</ele><time>2026-04-22T12:07:01Z</time></trkpt><trkpt lat="49.14848896254344" lon="2.504391105098292"><ele>64.0</ele><time>2026-04-22T12:07:03Z</time></trkpt><trkpt lat="49.148550396799045" lon="2.5044298385119355"><ele>65.0</ele><time>2026-04-22T12:07:05Z</time></trkpt><trkpt lat="49.148649127964866" lon="2.504239045374125"><ele>66.0</ele><time>2026-04-22T12:07:07Z</time></trkpt><trkpt lat="49.14872204345788" lon="2.504192304135039"><ele>67.0</ele><time>2026-04-22T12:07:09Z</time></trkpt><trkpt lat="49.14879815351065" lon="2.5041717887795647"><ele>68.0</ele><time>2026-04-22T12:07:11Z</time></trkpt><trkpt lat="49.14886188999473" lon="2.504133470605044"><ele>68.0</ele><time>2026-04-22T12:07:12.999Z</time></trkpt><trkpt lat="49.14893006055278" lon="2.5040898165747407"><ele>68.0</ele><time>2026-04-22T12:07:14.999Z</time></trkpt><trkpt lat="49.149002768767815" lon="2.50405090311466"><ele>68.0</ele><time>2026-04-22T12:07:16.999Z</time></trkpt><trkpt lat="49.14906922168272" lon="2.5040304084605953"><ele>68.0</ele><time>2026-04-22T12:07:18.999Z</time></trkpt><trkpt lat="49.14913021199814" lon="2.5039752504950545"><ele>68.0</ele><time>2026-04-22T12:07:20.999Z</time></trkpt><trkpt lat="49.14921409406962" lon="2.503912349819942"><ele>68.0</ele><time>2026-04-22T12:07:22.999Z</time></trkpt><trkpt lat="49.149295591524144" lon="2.5038732439950624"><ele>68.16666666666667</ele><time>2026-04-22T12:07:24.999Z</time></trkpt><trkpt lat="49.14935829292729" lon="2.503821836334651"><ele>68.33333333333334</ele><time>2026-04-22T12:07:26.999Z</time></trkpt><trkpt lat="49.149446505480896" lon="2.5037657815587013"><ele>68.5</ele><time>2026-04-22T12:07:28.999Z</time></trkpt><trkpt lat="49.14951701359023" lon="2.503726095418731"><ele>68.66666666666667</ele><time>2026-04-22T12:07:30.999Z</time></trkpt><trkpt lat="49.14959960279911" lon="2.5036933899729013"><ele>68.83333333333333</ele><time>2026-04-22T12:07:32.999Z</time></trkpt><trkpt lat="49.149670912506" lon="2.503628750594225"><ele>69.0</ele><time>2026-04-22T12:07:34.999Z</time></trkpt><trkpt lat="49.149752395444885" lon="2.503592072566286"><ele>69.16666666666667</ele><time>2026-04-22T12:07:36.999Z</time></trkpt><trkpt lat="49.14981740869706" lon="2.503558367956543"><ele>69.33333333333333</ele><time>2026-04-22T12:07:38.999Z</time></trkpt><trkpt lat="49.14986875116318" lon="2.5035016599637876"><ele>69.5</ele><time>2026-04-22T12:07:40.999Z</time></trkpt><trkpt lat="49.14994950751176" lon="2.5034755109191917"><ele>69.66666666666666</ele><time>2026-04-22T12:07:42.999Z</time></trkpt><trkpt lat="49.15000714955787" lon="2.503427232672786"><ele>69.83333333333333</ele><time>2026-04-22T12:07:44.998Z</time></trkpt><trkpt lat="49.150094718673905" lon="2.5033724756219393"><ele>70.0</ele><time>2026-04-22T12:07:46.998Z</time></trkpt><trkpt lat="49.150175294210314" lon="2.5033151251946726"><ele>70.0</ele><time>2026-04-22T12:07:48.998Z</time></trkpt><trkpt lat="49.15025465894657" lon="2.5032591861949025"><ele>70.0</ele><time>2026-04-22T12:07:50.998Z</time></trkpt><trkpt lat="49.1503365000362" lon="2.503225314579895"><ele>70.0</ele><time>2026-04-22T12:07:52.998Z</time></trkpt><trkpt lat="49.150416781871066" lon="2.503194011278756"><ele>70.0</ele><time>2026-04-22T12:07:54.998Z</time></trkpt><trkpt lat="49.15047532206726" lon="2.5031388398770593"><ele>70.0</ele><time>2026-04-22T12:07:56.998Z</time></trkpt><trkpt lat="49.15056952547946" lon="2.503093120919992"><ele>70.0</ele><time>2026-04-22T12:07:58.998Z</time></trkpt><trkpt lat="49.15065059351339" lon="2.5030469378667046"><ele>70.0</ele><time>2026-04-22T12:08:00.998Z</time></trkpt><trkpt lat="49.1507281821871" lon="2.502990256034788"><ele>70.0</ele><time>2026-04-22T12:08:02.998Z</time></trkpt><trkpt lat="49.15078992587207" lon="2.502958819475866"><ele>70.0</ele><time>2026-04-22T12:08:04.998Z</time></trkpt><trkpt lat="49.15088439482323" lon="2.5028960588164506"><ele>70.0</ele><time>2026-04-22T12:08:06.998Z</time></trkpt><trkpt lat="49.15097056017914" lon="2.5028476965437445"><ele>70.0</ele><time>2026-04-22T12:08:08.998Z</time></trkpt><trkpt lat="49.151054384773296" lon="2.502805680280637"><ele>70.0</ele><time>2026-04-22T12:08:10.998Z</time></trkpt><trkpt lat="49.151144769359504" lon="2.5027418723047314"><ele>69.8</ele><time>2026-04-22T12:08:12.998Z</time></trkpt><trkpt lat="49.15124696835383" lon="2.502687266629632"><ele>69.6</ele><time>2026-04-22T12:08:14.998Z</time></trkpt><trkpt lat="49.15133877385608" lon="2.5026515023787055"><ele>69.4</ele><time>2026-04-22T12:08:16.998Z</time></trkpt><trkpt lat="49.151430398191536" lon="2.502588776189339"><ele>69.2</ele><time>2026-04-22T12:08:18.997Z</time></trkpt><trkpt lat="49.15152479630992" lon="2.502524894505786"><ele>69.0</ele><time>2026-04-22T12:08:20.997Z</time></trkpt><trkpt lat="49.151626005401305" lon="2.5024502516693623"><ele>68.4</ele><time>2026-04-22T12:08:22.997Z</time></trkpt><trkpt lat="49.15172149507665" lon="2.5024071425441576"><ele>67.80000000000001</ele><time>2026-04-22T12:08:24.997Z</time></trkpt><trkpt lat="49.15182507162432" lon="2.50234305014169"><ele>67.19999999999999</ele><time>2026-04-22T12:08:26.997Z</time></trkpt><trkpt lat="49.15193761035254" lon="2.502272792781844"><ele>66.6</ele><time>2026-04-22T12:08:28.997Z</time></trkpt><trkpt lat="49.15203672429947" lon="2.5022256586654885"><ele>66.0</ele><time>2026-04-22T12:08:30.997Z</time></trkpt><trkpt lat="49.15210000892137" lon="2.502214059646896"><ele>66.0</ele><time>2026-04-22T12:08:31.997Z</time></trkpt><trkpt lat="49.152187645814244" lon="2.502152811513184"><ele>66.0</ele><time>2026-04-22T12:08:33.997Z</time></trkpt><trkpt lat="49.15226910976914" lon="2.5020761956213824"><ele>66.0</ele><time>2026-04-22T12:08:35.997Z</time></trkpt><trkpt lat="49.15235497296497" lon="2.50202466964691"><ele>66.0</ele><time>2026-04-22T12:08:37.997Z</time></trkpt><trkpt lat="49.152446100236396" lon="2.5019769742488625"><ele>66.0</ele><time>2026-04-22T12:08:39.997Z</time></trkpt><trkpt lat="49.15253862764405" lon="2.5019152714246418"><ele>66.2</ele><time>2026-04-22T12:08:41.997Z</time></trkpt><trkpt lat="49.15262655618176" lon="2.501865049664258"><ele>66.39999999999999</ele><time>2026-04-22T12:08:44Z</time></trkpt><trkpt lat="49.15271632177839" lon="2.5018007063845262"><ele>66.6</ele><time>2026-04-22T12:08:46Z</time></trkpt><trkpt lat="49.152803984326056" lon="2.5017503332646447"><ele>66.8</ele><time>2026-04-22T12:08:48Z</time></trkpt><trkpt lat="49.15288289188647" lon="2.501708367782678"><ele>67.0</ele><time>2026-04-22T12:08:50Z</time></trkpt><trkpt lat="49.15296752129061" lon="2.5016649040332903"><ele>67.0</ele><time>2026-04-22T12:08:52Z</time></trkpt><trkpt lat="49.15304628886857" lon="2.501605878072917"><ele>67.0</ele><time>2026-04-22T12:08:54Z</time></trkpt><trkpt lat="49.15311738008545" lon="2.5015524723255895"><ele>67.0</ele><time>2026-04-22T12:08:56Z</time></trkpt><trkpt lat="49.15319197339453" lon="2.5015150138913134"><ele>67.0</ele><time>2026-04-22T12:08:58Z</time></trkpt><trkpt lat="49.15326594176225" lon="2.5014883832219668"><ele>67.0</ele><time>2026-04-22T12:09:00Z</time></trkpt><trkpt lat="49.15334392885419" lon="2.5014384445521975"><ele>67.0</ele><time>2026-04-22T12:09:02Z</time></trkpt><trkpt lat="49.15342251705824" lon="2.501391064923657"><ele>67.0</ele><time>2026-04-22T12:09:04Z</time></trkpt><trkpt lat="49.15349631362472" lon="2.501344241422812"><ele>67.0</ele><time>2026-04-22T12:09:06Z</time></trkpt><trkpt lat="49.15357171159866" lon="2.5012941830998217"><ele>67.0</ele><time>2026-04-22T12:09:08Z</time></trkpt><trkpt lat="49.153649168453576" lon="2.501241439105517"><ele>67.0</ele><time>2026-04-22T12:09:10Z</time></trkpt><trkpt lat="49.15372884729694" lon="2.501200710511381"><ele>67.0</ele><time>2026-04-22T12:09:12Z</time></trkpt><trkpt lat="49.15380599368092" lon="2.5011644040882017"><ele>67.0</ele><time>2026-04-22T12:09:14Z</time></trkpt><trkpt lat="49.1538686071635" lon="2.501109685090333"><ele>67.0</ele><time>2026-04-22T12:09:15.999Z</time></trkpt><trkpt lat="49.153934013872615" lon="2.5010668966684433"><ele>67.0</ele><time>2026-04-22T12:09:17.999Z</time></trkpt><trkpt lat="49.15400339995905" lon="2.5010185930113575"><ele>67.0</ele><time>2026-04-22T12:09:19.999Z</time></trkpt><trkpt lat="49.15407909972443" lon="2.500974855904863"><ele>67.0</ele><time>2026-04-22T12:09:21.999Z</time></trkpt><trkpt lat="49.15414917447829" lon="2.5009488423135124"><ele>67.0</ele><time>2026-04-22T12:09:23.999Z</time></trkpt><trkpt lat="49.15422334088849" lon="2.5009102011333884"><ele>67.0</ele><time>2026-04-22T12:09:25.999Z</time></trkpt><trkpt lat="49.15429273092346" lon="2.50086719939507"><ele>67.0</ele><time>2026-04-22T12:09:27.999Z</time></trkpt><trkpt lat="49.15435205623872" lon="2.5008346525665597"><ele>67.0</ele><time>2026-04-22T12:09:29.999Z</time></trkpt><trkpt lat="49.15442332486656" lon="2.5007754571743805"><ele>67.0</ele><time>2026-04-22T12:09:31.999Z</time></trkpt><trkpt lat="49.154509869507265" lon="2.5007321409145105"><ele>67.0</ele><time>2026-04-22T12:09:33.999Z</time></trkpt><trkpt lat="49.15457000390527" lon="2.5006959779847167"><ele>67.0</ele><time>2026-04-22T12:09:35.999Z</time></trkpt><trkpt lat="49.15465978981425" lon="2.5006592731849797"><ele>67.0</ele><time>2026-04-22T12:09:37.999Z</time></trkpt><trkpt lat="49.15476028998432" lon="2.5005906488846135"><ele>67.0</ele><time>2026-04-22T12:09:40.999Z</time></trkpt><trkpt lat="49.15484422289457" lon="2.5005267880464226"><ele>67.0</ele><time>2026-04-22T12:09:42.999Z</time></trkpt><trkpt lat="49.1549345422345" lon="2.500485887199246"><ele>67.0</ele><time>2026-04-22T12:09:44.999Z</time></trkpt><trkpt lat="49.15501766487853" lon="2.5004213771038155"><ele>67.0</ele><time>2026-04-22T12:09:46.998Z</time></trkpt><trkpt lat="49.155097291777345" lon="2.50036965328781"><ele>67.0</ele><time>2026-04-22T12:09:48.998Z</time></trkpt><trkpt lat="49.155176790538114" lon="2.5003308419246877"><ele>66.6</ele><time>2026-04-22T12:09:50.998Z</time></trkpt><trkpt lat="49.155262654031354" lon="2.500270796964794"><ele>66.2</ele><time>2026-04-22T12:09:52.998Z</time></trkpt><trkpt lat="49.15534850065822" lon="2.5002149336397363"><ele>65.8</ele><time>2026-04-22T12:09:54.998Z</time></trkpt><trkpt lat="49.15542422530467" lon="2.5001775669161153"><ele>65.4</ele><time>2026-04-22T12:09:56.998Z</time></trkpt><trkpt lat="49.155517313291334" lon="2.5001151516045836"><ele>65.0</ele><time>2026-04-22T12:09:58.998Z</time></trkpt><trkpt lat="49.15559903888501" lon="2.5000763939087953"><ele>65.0</ele><time>2026-04-22T12:10:00.998Z</time></trkpt><trkpt lat="49.15569751907956" lon="2.5000045211270803"><ele>65.0</ele><time>2026-04-22T12:10:02.998Z</time></trkpt><trkpt lat="49.15579878342274" lon="2.4999531496161853"><ele>65.0</ele><time>2026-04-22T12:10:04.998Z</time></trkpt><trkpt lat="49.155889752547964" lon="2.4998917725777736"><ele>65.0</ele><time>2026-04-22T12:10:06.998Z</time></trkpt><trkpt lat="49.15599256864807" lon="2.4998309921128734"><ele>65.0</ele><time>2026-04-22T12:10:08.998Z</time></trkpt><trkpt lat="49.15608491523878" lon="2.499794368088509"><ele>65.16666666666667</ele><time>2026-04-22T12:10:10.998Z</time></trkpt><trkpt lat="49.15616030152382" lon="2.4997340214970993"><ele>65.33333333333334</ele><time>2026-04-22T12:10:12.998Z</time></trkpt><trkpt lat="49.156229789855914" lon="2.4997198413438277"><ele>65.5</ele><time>2026-04-22T12:10:42.997Z</time></trkpt><trkpt lat="49.15629121492226" lon="2.499762047142021"><ele>65.66666666666667</ele><time>2026-04-22T12:10:45.997Z</time></trkpt><trkpt lat="49.15634965061503" lon="2.4998042100072295"><ele>65.83333333333333</ele><time>2026-04-22T12:10:47.997Z</time></trkpt><trkpt lat="49.156424365285595" lon="2.49989308397435"><ele>66.0</ele><time>2026-04-22T12:10:50Z</time></trkpt><trkpt lat="49.15653233590784" lon="2.499995684506828"><ele>65.0</ele><time>2026-04-22T12:10:52Z</time></trkpt><trkpt lat="49.15659909862374" lon="2.500055526115854"><ele>63.99999999999999</ele><time>2026-04-22T12:10:53Z</time></trkpt><trkpt lat="49.15667587814804" lon="2.500121239123277"><ele>62.99999999999999</ele><time>2026-04-22T12:10:54Z</time></trkpt><trkpt lat="49.15675601614562" lon="2.500191570712409"><ele>62.0</ele><time>2026-04-22T12:10:55Z</time></trkpt><trkpt lat="49.15684278865742" lon="2.50027017556972"><ele>61.0</ele><time>2026-04-22T12:10:56Z</time></trkpt><trkpt lat="49.156935191015194" lon="2.5003516904799117"><ele>60.8</ele><time>2026-04-22T12:10:57Z</time></trkpt><trkpt lat="49.15703146041096" lon="2.50043388995917"><ele>60.599999999999994</ele><time>2026-04-22T12:10:58Z</time></trkpt><trkpt lat="49.15712846697506" lon="2.5005174904703993"><ele>60.4</ele><time>2026-04-22T12:10:59Z</time></trkpt><trkpt lat="49.157223104531624" lon="2.5006049762108638"><ele>60.2</ele><time>2026-04-22T12:11:00Z</time></trkpt><trkpt lat="49.15731859348919" lon="2.500685836443399"><ele>60.0</ele><time>2026-04-22T12:11:01Z</time></trkpt><trkpt lat="49.15740904541575" lon="2.50076412006728"><ele>57.8</ele><time>2026-04-22T12:11:02Z</time></trkpt><trkpt lat="49.15749857942495" lon="2.5008417461198906"><ele>55.6</ele><time>2026-04-22T12:11:03Z</time></trkpt><trkpt lat="49.15758233571096" lon="2.500922279099182"><ele>53.400000000000006</ele><time>2026-04-22T12:11:04Z</time></trkpt><trkpt lat="49.15766357163268" lon="2.500992228473806"><ele>51.2</ele><time>2026-04-22T12:11:05Z</time></trkpt><trkpt lat="49.157742335441675" lon="2.501060790327957"><ele>49.0</ele><time>2026-04-22T12:11:06Z</time></trkpt><trkpt lat="49.1578160161805" lon="2.5011250443616078"><ele>48.99999999999999</ele><time>2026-04-22T12:11:07Z</time></trkpt><trkpt lat="49.15788562724452" lon="2.5011899817962306"><ele>49.0</ele><time>2026-04-22T12:11:08Z</time></trkpt><trkpt lat="49.15794679377738" lon="2.501251327757102"><ele>49.0</ele><time>2026-04-22T12:11:09Z</time></trkpt><trkpt lat="49.1580121769129" lon="2.501317230004684"><ele>49.0</ele><time>2026-04-22T12:11:10Z</time></trkpt><trkpt lat="49.15807585801903" lon="2.501369533197243"><ele>48.99999999999999</ele><time>2026-04-22T12:11:11Z</time></trkpt><trkpt lat="49.158132617738985" lon="2.5014263715081104"><ele>49.0</ele><time>2026-04-22T12:11:12Z</time></trkpt><trkpt lat="49.15822708954744" lon="2.5015184641908386"><ele>49.49999999999999</ele><time>2026-04-22T12:11:14Z</time></trkpt><trkpt lat="49.158291793140855" lon="2.501569893615556"><ele>50.0</ele><time>2026-04-22T12:11:16Z</time></trkpt><trkpt lat="49.15834787155218" lon="2.501436059785258"><ele>50.5</ele><time>2026-04-22T12:11:20Z</time></trkpt><trkpt lat="49.1583303386001" lon="2.50132706270344"><ele>51.0</ele><time>2026-04-22T12:11:21.999Z</time></trkpt><trkpt lat="49.15833560962106" lon="2.5012189368689866"><ele>51.49999999999999</ele><time>2026-04-22T12:11:23.999Z</time></trkpt><trkpt lat="49.1583509784626" lon="2.5010643799423735"><ele>52.0</ele><time>2026-04-22T12:11:26.999Z</time></trkpt><trkpt lat="49.15834504986555" lon="2.500940979919436"><ele>51.99999999999999</ele><time>2026-04-22T12:11:28.999Z</time></trkpt><trkpt lat="49.15834716717681" lon="2.5008198166931335"><ele>52.0</ele><time>2026-04-22T12:11:30.999Z</time></trkpt><trkpt lat="49.15834832231555" lon="2.500714988955266"><ele>52.0</ele><time>2026-04-22T12:11:32.999Z</time></trkpt><trkpt lat="49.15835097137846" lon="2.5005943067219567"><ele>52.0</ele><time>2026-04-22T12:11:34.999Z</time></trkpt><trkpt lat="49.15834861638473" lon="2.500464825810533"><ele>51.99999999999999</ele><time>2026-04-22T12:11:36.999Z</time></trkpt><trkpt lat="49.158346932933675" lon="2.5003413840092925"><ele>52.0</ele><time>2026-04-22T12:11:38.999Z</time></trkpt><trkpt lat="49.15834326039661" lon="2.500215931446254"><ele>52.33333333333333</ele><time>2026-04-22T12:11:40.999Z</time></trkpt><trkpt lat="49.15834174715482" lon="2.5000984380707485"><ele>52.666666666666664</ele><time>2026-04-22T12:11:42.999Z</time></trkpt><trkpt lat="49.158340923844904" lon="2.4999860194051116"><ele>53.0</ele><time>2026-04-22T12:11:44.999Z</time></trkpt><trkpt lat="49.15834197115907" lon="2.4998288539048508"><ele>53.33333333333333</ele><time>2026-04-22T12:11:47.999Z</time></trkpt><trkpt lat="49.15833927599039" lon="2.49970792652151"><ele>53.666666666666664</ele><time>2026-04-22T12:11:49.999Z</time></trkpt><trkpt lat="49.15834108720749" lon="2.4995857334263656"><ele>54.0</ele><time>2026-04-22T12:11:51.999Z</time></trkpt><trkpt lat="49.158336016358646" lon="2.4994554776817095"><ele>54.0</ele><time>2026-04-22T12:11:53.998Z</time></trkpt><trkpt lat="49.158347652156365" lon="2.4993292511134007"><ele>54.0</ele><time>2026-04-22T12:11:55.998Z</time></trkpt><trkpt lat="49.158350063883525" lon="2.499190194676471"><ele>54.0</ele><time>2026-04-22T12:11:57.998Z</time></trkpt><trkpt lat="49.15834516545581" lon="2.4990613052926665"><ele>54.0</ele><time>2026-04-22T12:11:59.998Z</time></trkpt><trkpt lat="49.158345783179634" lon="2.498923295767268"><ele>54.0</ele><time>2026-04-22T12:12:01.998Z</time></trkpt><trkpt lat="49.15834880695299" lon="2.4987906721054753"><ele>54.0</ele><time>2026-04-22T12:12:03.998Z</time></trkpt><trkpt lat="49.158347538549975" lon="2.4986620656858243"><ele>54.0</ele><time>2026-04-22T12:12:05.998Z</time></trkpt><trkpt lat="49.1583415175072" lon="2.4985358240926354"><ele>54.0</ele><time>2026-04-22T12:12:07.998Z</time></trkpt><trkpt lat="49.15834529905467" lon="2.4984142385719292"><ele>54.0</ele><time>2026-04-22T12:12:09.998Z</time></trkpt><trkpt lat="49.15835845906547" lon="2.498297448439558"><ele>54.0</ele><time>2026-04-22T12:12:11.998Z</time></trkpt><trkpt lat="49.15836898701483" lon="2.4981829971894776"><ele>54.0</ele><time>2026-04-22T12:12:13.998Z</time></trkpt><trkpt lat="49.158375163151035" lon="2.498072076512236"><ele>54.0</ele><time>2026-04-22T12:12:15.998Z</time></trkpt><trkpt lat="49.158382399617466" lon="2.4979602518907496"><ele>54.285714285714285</ele><time>2026-04-22T12:12:17.998Z</time></trkpt><trkpt lat="49.15839819878118" lon="2.4978485240618222"><ele>54.57142857142857</ele><time>2026-04-22T12:12:19.998Z</time></trkpt><trkpt lat="49.15840997354451" lon="2.4977431185104586"><ele>54.85714285714286</ele><time>2026-04-22T12:12:21.998Z</time></trkpt><trkpt lat="49.15841278413929" lon="2.4976403696314886"><ele>55.14285714285714</ele><time>2026-04-22T12:12:23.998Z</time></trkpt><trkpt lat="49.15841679324266" lon="2.4975196445725603"><ele>55.42857142857143</ele><time>2026-04-22T12:12:25.997Z</time></trkpt><trkpt lat="49.15842568659536" lon="2.4974094086298173"><ele>55.714285714285715</ele><time>2026-04-22T12:12:27.997Z</time></trkpt><trkpt lat="49.1584420067774" lon="2.497294831098106"><ele>56.0</ele><time>2026-04-22T12:12:29.997Z</time></trkpt><trkpt lat="49.158455625402155" lon="2.497183514817036"><ele>56.50000000000001</ele><time>2026-04-22T12:12:31.997Z</time></trkpt><trkpt lat="49.158463908965594" lon="2.497066835256556"><ele>57.0</ele><time>2026-04-22T12:12:33.997Z</time></trkpt><trkpt lat="49.15847881602062" lon="2.496955826534589"><ele>57.5</ele><time>2026-04-22T12:12:35.997Z</time></trkpt><trkpt lat="49.158486188818934" lon="2.4968374317202615"><ele>58.0</ele><time>2026-04-22T12:12:37.997Z</time></trkpt><trkpt lat="49.158496216772306" lon="2.496725536882809"><ele>58.50000000000001</ele><time>2026-04-22T12:12:39.997Z</time></trkpt><trkpt lat="49.15850249741833" lon="2.496607765744462"><ele>59.0</ele><time>2026-04-22T12:12:41.997Z</time></trkpt><trkpt lat="49.15850732702594" lon="2.4964895458184917"><ele>59.0</ele><time>2026-04-22T12:12:43.997Z</time></trkpt><trkpt lat="49.15852197702375" lon="2.496354153796579"><ele>59.00000000000001</ele><time>2026-04-22T12:12:45.997Z</time></trkpt><trkpt lat="49.15853557225626" lon="2.496214459725769"><ele>59.00000000000001</ele><time>2026-04-22T12:12:47.997Z</time></trkpt><trkpt lat="49.15854117732115" lon="2.496071949978297"><ele>59.0</ele><time>2026-04-22T12:12:49.997Z</time></trkpt><trkpt lat="49.158554471721" lon="2.4959041046911463"><ele>59.0</ele><time>2026-04-22T12:12:51.997Z</time></trkpt><trkpt lat="49.15856271945001" lon="2.495752852519837"><ele>58.800000000000004</ele><time>2026-04-22T12:12:54Z</time></trkpt><trkpt lat="49.15856961571725" lon="2.495589382172783"><ele>58.60000000000001</ele><time>2026-04-22T12:12:56Z</time></trkpt><trkpt lat="49.15857182162672" lon="2.495416725322854"><ele>58.4</ele><time>2026-04-22T12:12:58Z</time></trkpt><trkpt lat="49.15857706546308" lon="2.495256490155658"><ele>58.2</ele><time>2026-04-22T12:13:00Z</time></trkpt><trkpt lat="49.15856763398745" lon="2.4950858221029075"><ele>58.0</ele><time>2026-04-22T12:13:02Z</time></trkpt><trkpt lat="49.15855679940201" lon="2.4949208298230072"><ele>57.4</ele><time>2026-04-22T12:13:04Z</time></trkpt><trkpt lat="49.15854521089147" lon="2.494760451776076"><ele>56.8</ele><time>2026-04-22T12:13:06Z</time></trkpt><trkpt lat="49.1585259210459" lon="2.4945871389050334"><ele>56.2</ele><time>2026-04-22T12:13:08Z</time></trkpt><trkpt lat="49.15851086073244" lon="2.494423053117892"><ele>55.6</ele><time>2026-04-22T12:13:10Z</time></trkpt><trkpt lat="49.15849001700327" lon="2.4942572148259"><ele>55.0</ele><time>2026-04-22T12:13:12Z</time></trkpt><trkpt lat="49.158472941318344" lon="2.494083077157987"><ele>55.0</ele><time>2026-04-22T12:13:14Z</time></trkpt><trkpt lat="49.15845564513755" lon="2.4939100702437638"><ele>55.0</ele><time>2026-04-22T12:13:16Z</time></trkpt><trkpt lat="49.15843119542447" lon="2.49373181113832"><ele>55.0</ele><time>2026-04-22T12:13:18Z</time></trkpt><trkpt lat="49.158420385825885" lon="2.4935563997951187"><ele>55.0</ele><time>2026-04-22T12:13:20Z</time></trkpt><trkpt lat="49.15839994951943" lon="2.4933817201753454"><ele>55.2</ele><time>2026-04-22T12:13:22Z</time></trkpt><trkpt lat="49.15838467332539" lon="2.4932206066684905"><ele>55.4</ele><time>2026-04-22T12:13:24Z</time></trkpt><trkpt lat="49.15836361130122" lon="2.4930611164564342"><ele>55.599999999999994</ele><time>2026-04-22T12:13:25.999Z</time></trkpt><trkpt lat="49.15834517801953" lon="2.492900418297688"><ele>55.8</ele><time>2026-04-22T12:13:27.999Z</time></trkpt><trkpt lat="49.158323957095305" lon="2.492742745096365"><ele>56.0</ele><time>2026-04-22T12:13:29.999Z</time></trkpt><trkpt lat="49.15830936709451" lon="2.492591239163028"><ele>56.00000000000001</ele><time>2026-04-22T12:13:31.999Z</time></trkpt><trkpt lat="49.158299536139715" lon="2.492455677671155"><ele>56.0</ele><time>2026-04-22T12:13:33.999Z</time></trkpt><trkpt lat="49.15828295956827" lon="2.492321535045394"><ele>56.0</ele><time>2026-04-22T12:13:35.999Z</time></trkpt><trkpt lat="49.15827000335013" lon="2.492199136846157"><ele>56.0</ele><time>2026-04-22T12:13:37.999Z</time></trkpt><trkpt lat="49.158256815561934" lon="2.4920796332825095"><ele>56.00000000000001</ele><time>2026-04-22T12:13:39.999Z</time></trkpt><trkpt lat="49.15824464508174" lon="2.491960788122153"><ele>56.0</ele><time>2026-04-22T12:13:41.999Z</time></trkpt><trkpt lat="49.15822709743528" lon="2.4918388247361047"><ele>56.16666666666667</ele><time>2026-04-22T12:13:43.999Z</time></trkpt><trkpt lat="49.15821741589085" lon="2.4917172917645893"><ele>56.333333333333336</ele><time>2026-04-22T12:13:45.999Z</time></trkpt><trkpt lat="49.15820591706171" lon="2.491606335085628"><ele>56.5</ele><time>2026-04-22T12:13:47.999Z</time></trkpt><trkpt lat="49.15819162077812" lon="2.4914873435048923"><ele>56.66666666666667</ele><time>2026-04-22T12:13:49.999Z</time></trkpt><trkpt lat="49.15817470137657" lon="2.4913626377231264"><ele>56.833333333333336</ele><time>2026-04-22T12:13:51.999Z</time></trkpt><trkpt lat="49.15817036171763" lon="2.491230994101359"><ele>57.0</ele><time>2026-04-22T12:13:53.999Z</time></trkpt><trkpt lat="49.15816149925579" lon="2.4910895375824595"><ele>55.6</ele><time>2026-04-22T12:13:55.999Z</time></trkpt><trkpt lat="49.158146057498314" lon="2.490942646452986"><ele>54.2</ele><time>2026-04-22T12:13:57.998Z</time></trkpt><trkpt lat="49.158136293529395" lon="2.4907965195648694"><ele>52.8</ele><time>2026-04-22T12:13:59.998Z</time></trkpt><trkpt lat="49.158121014316166" lon="2.4906411617566677"><ele>51.4</ele><time>2026-04-22T12:14:01.998Z</time></trkpt><trkpt lat="49.15810166353811" lon="2.4904942172655455"><ele>50.0</ele><time>2026-04-22T12:14:03.998Z</time></trkpt><trkpt lat="49.15809035819384" lon="2.490346066568114"><ele>50.0</ele><time>2026-04-22T12:14:05.998Z</time></trkpt><trkpt lat="49.15807549028755" lon="2.490197415145133"><ele>50.0</ele><time>2026-04-22T12:14:07.998Z</time></trkpt><trkpt lat="49.15807022691977" lon="2.490056222882656"><ele>50.0</ele><time>2026-04-22T12:14:09.998Z</time></trkpt><trkpt lat="49.15809129943177" lon="2.489916379542208"><ele>50.0</ele><time>2026-04-22T12:14:11.998Z</time></trkpt><trkpt lat="49.1581267044085" lon="2.48977717066878"><ele>50.0</ele><time>2026-04-22T12:14:13.998Z</time></trkpt><trkpt lat="49.158191368499544" lon="2.4896532463721974"><ele>51.6</ele><time>2026-04-22T12:14:15.998Z</time></trkpt><trkpt lat="49.158271836382276" lon="2.4895434339397635"><ele>53.2</ele><time>2026-04-22T12:14:17.998Z</time></trkpt><trkpt lat="49.15834973287248" lon="2.4894302648422753"><ele>54.8</ele><time>2026-04-22T12:14:19.998Z</time></trkpt><trkpt lat="49.15843137524011" lon="2.4893147406960643"><ele>56.4</ele><time>2026-04-22T12:14:21.998Z</time></trkpt><trkpt lat="49.15850602502321" lon="2.489194880949578"><ele>58.0</ele><time>2026-04-22T12:14:23.998Z</time></trkpt><trkpt lat="49.158580954913255" lon="2.4890762916596305"><ele>58.0</ele><time>2026-04-22T12:14:25.998Z</time></trkpt><trkpt lat="49.158660719961105" lon="2.4889603241076874"><ele>58.0</ele><time>2026-04-22T12:14:27.998Z</time></trkpt><trkpt lat="49.158734727385024" lon="2.4888464070884564"><ele>58.0</ele><time>2026-04-22T12:14:29.997Z</time></trkpt><trkpt lat="49.158812210654595" lon="2.4887188106476317"><ele>58.0</ele><time>2026-04-22T12:14:31.997Z</time></trkpt><trkpt lat="49.15888857162488" lon="2.488603940321968"><ele>58.0</ele><time>2026-04-22T12:14:33.997Z</time></trkpt><trkpt lat="49.15896559384495" lon="2.4884920542107807"><ele>59.25</ele><time>2026-04-22T12:14:35.997Z</time></trkpt><trkpt lat="49.15904488847949" lon="2.4883717009933517"><ele>60.5</ele><time>2026-04-22T12:14:37.997Z</time></trkpt><trkpt lat="49.159125234941314" lon="2.488245723178374"><ele>61.75</ele><time>2026-04-22T12:14:39.997Z</time></trkpt><trkpt lat="49.15920613121173" lon="2.4881219044297507"><ele>63.0</ele><time>2026-04-22T12:14:41.997Z</time></trkpt><trkpt lat="49.15929122142768" lon="2.488010438889239"><ele>62.2</ele><time>2026-04-22T12:14:43.997Z</time></trkpt><trkpt lat="49.159375896722004" lon="2.4878931111327174"><ele>61.4</ele><time>2026-04-22T12:14:45.997Z</time></trkpt><trkpt lat="49.15944474179759" lon="2.487764917649295"><ele>60.60000000000001</ele><time>2026-04-22T12:14:47.997Z</time></trkpt><trkpt lat="49.15950928938977" lon="2.4876355130495975"><ele>59.800000000000004</ele><time>2026-04-22T12:14:49.997Z</time></trkpt><trkpt lat="49.159576347272946" lon="2.4875069508868455"><ele>59.0</ele><time>2026-04-22T12:14:51.997Z</time></trkpt><trkpt lat="49.159640486752934" lon="2.4873836504587183"><ele>59.00000000000001</ele><time>2026-04-22T12:14:53.997Z</time></trkpt><trkpt lat="49.15969823526463" lon="2.4872548801700045"><ele>59.0</ele><time>2026-04-22T12:14:55.997Z</time></trkpt><trkpt lat="49.15974959298598" lon="2.487144294120901"><ele>59.0</ele><time>2026-04-22T12:14:57.997Z</time></trkpt><trkpt lat="49.15979448483719" lon="2.4870550371126496"><ele>59.0</ele><time>2026-04-22T12:15:00Z</time></trkpt><trkpt lat="49.15989061973694" lon="2.4869962848599667"><ele>59.00000000000001</ele><time>2026-04-22T12:15:04Z</time></trkpt><trkpt lat="49.159930148879575" lon="2.4869101186791696"><ele>59.0</ele><time>2026-04-22T12:15:06Z</time></trkpt><trkpt lat="49.15999252005832" lon="2.4868197642963676"><ele>60.2</ele><time>2026-04-22T12:15:08Z</time></trkpt><trkpt lat="49.16004804431307" lon="2.48671511201418"><ele>61.400000000000006</ele><time>2026-04-22T12:15:10Z</time></trkpt><trkpt lat="49.1600998119361" lon="2.4865893412812414"><ele>62.6</ele><time>2026-04-22T12:15:12Z</time></trkpt><trkpt lat="49.16016302176782" lon="2.4864882422451644"><ele>63.8</ele><time>2026-04-22T12:15:14Z</time></trkpt><trkpt lat="49.16023371071343" lon="2.4863864101143256"><ele>65.0</ele><time>2026-04-22T12:15:16Z</time></trkpt><trkpt lat="49.16029167814091" lon="2.4862790834299324"><ele>65.33333333333334</ele><time>2026-04-22T12:15:18Z</time></trkpt><trkpt lat="49.160352690997186" lon="2.486174096438266"><ele>65.66666666666667</ele><time>2026-04-22T12:15:20Z</time></trkpt><trkpt lat="49.1604114716445" lon="2.486075811554506"><ele>66.0</ele><time>2026-04-22T12:15:22Z</time></trkpt><trkpt lat="49.160467458782" lon="2.485983757714594"><ele>66.33333333333333</ele><time>2026-04-22T12:15:24Z</time></trkpt><trkpt lat="49.16052064114843" lon="2.485885025510062"><ele>66.66666666666666</ele><time>2026-04-22T12:15:26Z</time></trkpt><trkpt lat="49.160576284411114" lon="2.4857863477971014"><ele>67.0</ele><time>2026-04-22T12:15:28Z</time></trkpt><trkpt lat="49.16063440183722" lon="2.4856907332099443"><ele>67.0</ele><time>2026-04-22T12:15:29.999Z</time></trkpt><trkpt lat="49.16069273166981" lon="2.485593621517501"><ele>67.0</ele><time>2026-04-22T12:15:31.999Z</time></trkpt><trkpt lat="49.16075043723583" lon="2.4854907075194586"><ele>67.0</ele><time>2026-04-22T12:15:33.999Z</time></trkpt><trkpt lat="49.16080304167598" lon="2.485396604901206"><ele>67.0</ele><time>2026-04-22T12:15:35.999Z</time></trkpt><trkpt lat="49.16085716794864" lon="2.4853058636889753"><ele>67.0</ele><time>2026-04-22T12:15:37.999Z</time></trkpt><trkpt lat="49.16090915996327" lon="2.4852139414556342"><ele>67.0</ele><time>2026-04-22T12:15:39.999Z</time></trkpt><trkpt lat="49.16096415099056" lon="2.4851223158096016"><ele>67.33333333333333</ele><time>2026-04-22T12:15:41.999Z</time></trkpt><trkpt lat="49.16101942424458" lon="2.4850273255907367"><ele>67.66666666666666</ele><time>2026-04-22T12:15:43.999Z</time></trkpt><trkpt lat="49.16107571342327" lon="2.4849261243827763"><ele>68.0</ele><time>2026-04-22T12:15:45.999Z</time></trkpt><trkpt lat="49.161129115948626" lon="2.4848213986214875"><ele>68.33333333333333</ele><time>2026-04-22T12:15:47.999Z</time></trkpt><trkpt lat="49.16118437059296" lon="2.4847201749667214"><ele>68.66666666666667</ele><time>2026-04-22T12:15:49.999Z</time></trkpt><trkpt lat="49.16123877780805" lon="2.4846300670252925"><ele>69.0</ele><time>2026-04-22T12:15:51.999Z</time></trkpt><trkpt lat="49.16129793855269" lon="2.48454177858003"><ele>69.33333333333333</ele><time>2026-04-22T12:15:53.999Z</time></trkpt><trkpt lat="49.16135149408012" lon="2.484440089044605"><ele>69.66666666666667</ele><time>2026-04-22T12:15:55.999Z</time></trkpt><trkpt lat="49.161404793571684" lon="2.484346569641537"><ele>70.0</ele><time>2026-04-22T12:15:57.999Z</time></trkpt><trkpt lat="49.161465395550955" lon="2.4842562581622962"><ele>70.33333333333334</ele><time>2026-04-22T12:15:59.999Z</time></trkpt><trkpt lat="49.16152052284241" lon="2.48415114833149"><ele>70.66666666666667</ele><time>2026-04-22T12:16:01.998Z</time></trkpt><trkpt lat="49.16157726190811" lon="2.484043703203997"><ele>71.0</ele><time>2026-04-22T12:16:03.998Z</time></trkpt><trkpt lat="49.16163857836955" lon="2.483944960868371"><ele>71.16666666666667</ele><time>2026-04-22T12:16:05.998Z</time></trkpt><trkpt lat="49.161698052377695" lon="2.483848514553474"><ele>71.33333333333334</ele><time>2026-04-22T12:16:07.998Z</time></trkpt><trkpt lat="49.16175247980514" lon="2.4837501202006065"><ele>71.5</ele><time>2026-04-22T12:16:09.998Z</time></trkpt><trkpt lat="49.1618102058523" lon="2.483638604589047"><ele>71.66666666666667</ele><time>2026-04-22T12:16:11.998Z</time></trkpt><trkpt lat="49.16187178427463" lon="2.4835364902604566"><ele>71.83333333333333</ele><time>2026-04-22T12:16:13.998Z</time></trkpt><trkpt lat="49.16193166471892" lon="2.4834382958493952"><ele>72.0</ele><time>2026-04-22T12:16:15.998Z</time></trkpt><trkpt lat="49.16198928045188" lon="2.4833366736877345"><ele>72.0</ele><time>2026-04-22T12:16:17.998Z</time></trkpt><trkpt lat="49.16204705213499" lon="2.483235301658947"><ele>72.0</ele><time>2026-04-22T12:16:19.998Z</time></trkpt><trkpt lat="49.16210214960127" lon="2.4831429032739907"><ele>72.0</ele><time>2026-04-22T12:16:21.998Z</time></trkpt><trkpt lat="49.162160418285" lon="2.4830382851559754"><ele>72.0</ele><time>2026-04-22T12:16:23.998Z</time></trkpt><trkpt lat="49.16222107437288" lon="2.482948578346598"><ele>72.0</ele><time>2026-04-22T12:16:25.998Z</time></trkpt><trkpt lat="49.16228475645338" lon="2.482850483116134"><ele>72.0</ele><time>2026-04-22T12:16:27.998Z</time></trkpt><trkpt lat="49.162344801587004" lon="2.482747993420775"><ele>71.6</ele><time>2026-04-22T12:16:29.998Z</time></trkpt><trkpt lat="49.16240325111685" lon="2.482646711636102"><ele>71.2</ele><time>2026-04-22T12:16:31.998Z</time></trkpt><trkpt lat="49.16245701360483" lon="2.4825408019330215"><ele>70.8</ele><time>2026-04-22T12:16:33.997Z</time></trkpt><trkpt lat="49.162519351195485" lon="2.482440185085294"><ele>70.4</ele><time>2026-04-22T12:16:35.997Z</time></trkpt><trkpt lat="49.162580667809074" lon="2.482330521564805"><ele>70.0</ele><time>2026-04-22T12:16:37.997Z</time></trkpt><trkpt lat="49.16263614986077" lon="2.4822195793193673"><ele>70.0</ele><time>2026-04-22T12:16:39.997Z</time></trkpt><trkpt lat="49.16268996786767" lon="2.482114748611886"><ele>70.0</ele><time>2026-04-22T12:16:41.997Z</time></trkpt><trkpt lat="49.16274758787719" lon="2.4820149915001495"><ele>70.0</ele><time>2026-04-22T12:16:43.997Z</time></trkpt><trkpt lat="49.16280994603247" lon="2.4819195099856706"><ele>70.0</ele><time>2026-04-22T12:16:45.997Z</time></trkpt><trkpt lat="49.162871120852856" lon="2.4818219419848386"><ele>70.0</ele><time>2026-04-22T12:16:47.997Z</time></trkpt><trkpt lat="49.16293012662667" lon="2.481717636175734"><ele>70.0</ele><time>2026-04-22T12:16:49.997Z</time></trkpt><trkpt lat="49.16299152153923" lon="2.481621047992117"><ele>70.2</ele><time>2026-04-22T12:16:51.997Z</time></trkpt><trkpt lat="49.163047511053946" lon="2.4815130549877638"><ele>70.4</ele><time>2026-04-22T12:16:53.997Z</time></trkpt><trkpt lat="49.16310609305789" lon="2.4814005204773415"><ele>70.6</ele><time>2026-04-22T12:16:55.997Z</time></trkpt><trkpt lat="49.16316582819996" lon="2.481293457295565"><ele>70.8</ele><time>2026-04-22T12:16:57.997Z</time></trkpt><trkpt lat="49.16322903638202" lon="2.4811892165697853"><ele>71.0</ele><time>2026-04-22T12:16:59.997Z</time></trkpt><trkpt lat="49.16328838506597" lon="2.4810834960978285"><ele>71.0</ele><time>2026-04-22T12:17:01.997Z</time></trkpt><trkpt lat="49.16334920124625" lon="2.4809777521202543"><ele>71.0</ele><time>2026-04-22T12:17:03.997Z</time></trkpt><trkpt lat="49.16341390360068" lon="2.480878473968301"><ele>71.0</ele><time>2026-04-22T12:17:06Z</time></trkpt><trkpt lat="49.163476961380596" lon="2.4807651047644392"><ele>71.0</ele><time>2026-04-22T12:17:08Z</time></trkpt><trkpt lat="49.16353991918015" lon="2.4806572276953953"><ele>71.0</ele><time>2026-04-22T12:17:10Z</time></trkpt><trkpt lat="49.1636052272098" lon="2.4805546380606196"><ele>71.0</ele><time>2026-04-22T12:17:12Z</time></trkpt><trkpt lat="49.163670021267166" lon="2.4804403320336137"><ele>71.0</ele><time>2026-04-22T12:17:14Z</time></trkpt><trkpt lat="49.16373395556997" lon="2.4803282193350595"><ele>71.0</ele><time>2026-04-22T12:17:16Z</time></trkpt><trkpt lat="49.16379875200881" lon="2.4802169091146204"><ele>71.0</ele><time>2026-04-22T12:17:18Z</time></trkpt><trkpt lat="49.16386335563567" lon="2.4801043373969907"><ele>71.0</ele><time>2026-04-22T12:17:20Z</time></trkpt><trkpt lat="49.163928315779366" lon="2.4799876989761684"><ele>71.2</ele><time>2026-04-22T12:17:22Z</time></trkpt><trkpt lat="49.16399354829912" lon="2.47987090925932"><ele>71.39999999999999</ele><time>2026-04-22T12:17:24Z</time></trkpt><trkpt lat="49.16406026129947" lon="2.4797589758359635"><ele>71.6</ele><time>2026-04-22T12:17:26Z</time></trkpt><trkpt lat="49.16412750485704" lon="2.4796480156049867"><ele>71.8</ele><time>2026-04-22T12:17:28Z</time></trkpt><trkpt lat="49.16419220665788" lon="2.479534097800979"><ele>72.0</ele><time>2026-04-22T12:17:30Z</time></trkpt><trkpt lat="49.1642522171464" lon="2.479424489833016"><ele>71.4</ele><time>2026-04-22T12:17:32Z</time></trkpt><trkpt lat="49.16431135946966" lon="2.4793203118618603"><ele>70.80000000000001</ele><time>2026-04-22T12:17:33.999Z</time></trkpt><trkpt lat="49.16437325548473" lon="2.4792257173647334"><ele>70.2</ele><time>2026-04-22T12:17:35.999Z</time></trkpt><trkpt lat="49.1644265090808" lon="2.4791196622596035"><ele>69.60000000000001</ele><time>2026-04-22T12:17:37.999Z</time></trkpt><trkpt lat="49.16448729084275" lon="2.479013287990764"><ele>69.0</ele><time>2026-04-22T12:17:39.999Z</time></trkpt><trkpt lat="49.16454736154317" lon="2.4789058783404707"><ele>69.0</ele><time>2026-04-22T12:17:41.999Z</time></trkpt><trkpt lat="49.1646056671757" lon="2.4788049722807854"><ele>69.0</ele><time>2026-04-22T12:17:43.999Z</time></trkpt><trkpt lat="49.164666503552475" lon="2.4787106639271195"><ele>69.0</ele><time>2026-04-22T12:17:45.999Z</time></trkpt><trkpt lat="49.16471926180532" lon="2.4786081349582165"><ele>69.0</ele><time>2026-04-22T12:17:47.999Z</time></trkpt><trkpt lat="49.16477109658737" lon="2.478507993150485"><ele>69.0</ele><time>2026-04-22T12:17:49.999Z</time></trkpt><trkpt lat="49.16483202644323" lon="2.478427159362524"><ele>69.0</ele><time>2026-04-22T12:17:51.999Z</time></trkpt><trkpt lat="49.16489054563178" lon="2.478322110295672"><ele>69.5</ele><time>2026-04-22T12:17:53.999Z</time></trkpt><trkpt lat="49.16494946765215" lon="2.4782237743205533"><ele>70.0</ele><time>2026-04-22T12:17:55.999Z</time></trkpt><trkpt lat="49.16500910653423" lon="2.4781154081286654"><ele>70.5</ele><time>2026-04-22T12:17:57.999Z</time></trkpt><trkpt lat="49.16506141095254" lon="2.47800712190861"><ele>71.0</ele><time>2026-04-22T12:17:59.999Z</time></trkpt><trkpt lat="49.16512278652102" lon="2.477908010894491"><ele>71.5</ele><time>2026-04-22T12:18:01.999Z</time></trkpt><trkpt lat="49.165183986889986" lon="2.4778209626658856"><ele>72.0</ele><time>2026-04-22T12:18:03.999Z</time></trkpt><trkpt lat="49.16523989696899" lon="2.4777122253347716"><ele>72.0</ele><time>2026-04-22T12:18:05.998Z</time></trkpt><trkpt lat="49.16529759148448" lon="2.47760542936911"><ele>72.0</ele><time>2026-04-22T12:18:07.998Z</time></trkpt><trkpt lat="49.16536123803056" lon="2.477506601994743"><ele>72.0</ele><time>2026-04-22T12:18:09.998Z</time></trkpt><trkpt lat="49.16542784733172" lon="2.4774032924018545"><ele>72.0</ele><time>2026-04-22T12:18:11.998Z</time></trkpt><trkpt lat="49.16548968192675" lon="2.47730844724337"><ele>72.0</ele><time>2026-04-22T12:18:13.998Z</time></trkpt><trkpt lat="49.16555530567356" lon="2.4771882078507192"><ele>72.2</ele><time>2026-04-22T12:18:15.998Z</time></trkpt><trkpt lat="49.16561534967703" lon="2.4770651892709163"><ele>72.4</ele><time>2026-04-22T12:18:17.998Z</time></trkpt><trkpt lat="49.16567700624909" lon="2.4769440119684822"><ele>72.6</ele><time>2026-04-22T12:18:19.998Z</time></trkpt><trkpt lat="49.16573037982338" lon="2.4768285401990955"><ele>72.8</ele><time>2026-04-22T12:18:21.998Z</time></trkpt><trkpt lat="49.165798224237015" lon="2.4767343776229165"><ele>73.0</ele><time>2026-04-22T12:18:23.998Z</time></trkpt><trkpt lat="49.16586094501992" lon="2.4766406673350643"><ele>72.66666666666666</ele><time>2026-04-22T12:18:25.998Z</time></trkpt><trkpt lat="49.165916930791354" lon="2.476545015772091"><ele>72.33333333333333</ele><time>2026-04-22T12:18:27.998Z</time></trkpt><trkpt lat="49.16597126699531" lon="2.476450001791961"><ele>72.0</ele><time>2026-04-22T12:18:29.998Z</time></trkpt><trkpt lat="49.16603247413073" lon="2.4763510839710667"><ele>71.66666666666667</ele><time>2026-04-22T12:18:31.998Z</time></trkpt><trkpt lat="49.16609269206306" lon="2.476251492306356"><ele>71.33333333333334</ele><time>2026-04-22T12:18:33.998Z</time></trkpt><trkpt lat="49.166148116972735" lon="2.476143608126067"><ele>71.0</ele><time>2026-04-22T12:18:35.998Z</time></trkpt><trkpt lat="49.166208316285534" lon="2.476027442110113"><ele>71.0</ele><time>2026-04-22T12:18:37.997Z</time></trkpt><trkpt lat="49.16627287991863" lon="2.4759244691824724"><ele>71.0</ele><time>2026-04-22T12:18:39.997Z</time></trkpt><trkpt lat="49.166337570944975" lon="2.4758197035217244"><ele>71.0</ele><time>2026-04-22T12:18:41.997Z</time></trkpt><trkpt lat="49.16639500971414" lon="2.4757067307799923"><ele>71.0</ele><time>2026-04-22T12:18:43.997Z</time></trkpt><trkpt lat="49.16645281923907" lon="2.475595086338488"><ele>71.0</ele><time>2026-04-22T12:18:45.997Z</time></trkpt><trkpt lat="49.166514368417324" lon="2.4754990681630273"><ele>70.39999999999999</ele><time>2026-04-22T12:18:47.997Z</time></trkpt><trkpt lat="49.16658621622025" lon="2.4753871563891314"><ele>69.8</ele><time>2026-04-22T12:18:49.997Z</time></trkpt><trkpt lat="49.16665889750781" lon="2.4752780956004856"><ele>69.19999999999999</ele><time>2026-04-22T12:18:51.997Z</time></trkpt><trkpt lat="49.16671910219111" lon="2.4751540029243624"><ele>68.6</ele><time>2026-04-22T12:18:53.997Z</time></trkpt><trkpt lat="49.166785080489355" lon="2.475036304527937"><ele>68.0</ele><time>2026-04-22T12:18:55.997Z</time></trkpt><trkpt lat="49.166851707136225" lon="2.4749212988010845"><ele>68.0</ele><time>2026-04-22T12:18:57.997Z</time></trkpt><trkpt lat="49.16691649571197" lon="2.4748085696381343"><ele>68.0</ele><time>2026-04-22T12:18:59.997Z</time></trkpt><trkpt lat="49.16698548686214" lon="2.4746965261325884"><ele>68.0</ele><time>2026-04-22T12:19:01.997Z</time></trkpt><trkpt lat="49.16705060495461" lon="2.4745830980049877"><ele>68.0</ele><time>2026-04-22T12:19:03.997Z</time></trkpt><trkpt lat="49.167111521222985" lon="2.4744681002682447"><ele>68.0</ele><time>2026-04-22T12:19:05.997Z</time></trkpt><trkpt lat="49.167174453848695" lon="2.4743503849297985"><ele>68.4</ele><time>2026-04-22T12:19:07.997Z</time></trkpt><trkpt lat="49.167237758320475" lon="2.4742640212428544"><ele>68.8</ele><time>2026-04-22T12:19:09.996Z</time></trkpt><trkpt lat="49.16729374330948" lon="2.4741601800487834"><ele>69.2</ele><time>2026-04-22T12:19:12Z</time></trkpt><trkpt lat="49.167361961165575" lon="2.47406670535465"><ele>69.6</ele><time>2026-04-22T12:19:14Z</time></trkpt><trkpt lat="49.16742746171454" lon="2.473956242531064"><ele>70.0</ele><time>2026-04-22T12:19:16Z</time></trkpt><trkpt lat="49.1674908559035" lon="2.4738429017475267"><ele>71.0</ele><time>2026-04-22T12:19:18Z</time></trkpt><trkpt lat="49.16754712570824" lon="2.4737715318353035"><ele>72.0</ele><time>2026-04-22T12:19:20Z</time></trkpt><trkpt lat="49.16761220162808" lon="2.473658578517587"><ele>73.0</ele><time>2026-04-22T12:19:22Z</time></trkpt><trkpt lat="49.167677145809265" lon="2.4735314771816954"><ele>74.0</ele><time>2026-04-22T12:19:24Z</time></trkpt><trkpt lat="49.16773938317324" lon="2.473422381984184"><ele>75.0</ele><time>2026-04-22T12:19:26Z</time></trkpt><trkpt lat="49.167794640900155" lon="2.4733175584280294"><ele>75.0</ele><time>2026-04-22T12:19:28Z</time></trkpt><trkpt lat="49.16784412595064" lon="2.473222692465569"><ele>75.0</ele><time>2026-04-22T12:19:30Z</time></trkpt><trkpt lat="49.16790523458015" lon="2.4731025302478815"><ele>75.0</ele><time>2026-04-22T12:19:32Z</time></trkpt><trkpt lat="49.16796902205088" lon="2.4730092748568104"><ele>75.0</ele><time>2026-04-22T12:19:34Z</time></trkpt><trkpt lat="49.168023400428176" lon="2.472918487747964"><ele>75.0</ele><time>2026-04-22T12:19:36Z</time></trkpt><trkpt lat="49.168083416720606" lon="2.472830066143118"><ele>75.0</ele><time>2026-04-22T12:19:38.999Z</time></trkpt><trkpt lat="49.168130386614706" lon="2.4727483169773468"><ele>75.0</ele><time>2026-04-22T12:19:40.999Z</time></trkpt><trkpt lat="49.16817428286934" lon="2.4726521326151447"><ele>75.0</ele><time>2026-04-22T12:19:42.999Z</time></trkpt><trkpt lat="49.16823293702218" lon="2.47256500892953"><ele>75.0</ele><time>2026-04-22T12:19:44.999Z</time></trkpt><trkpt lat="49.16830093515205" lon="2.4725133189335184"><ele>75.0</ele><time>2026-04-22T12:19:46.999Z</time></trkpt><trkpt lat="49.16834456787547" lon="2.4724355448107747"><ele>75.0</ele><time>2026-04-22T12:19:48.999Z</time></trkpt><trkpt lat="49.16840306081555" lon="2.472331511674941"><ele>75.0</ele><time>2026-04-22T12:19:51.999Z</time></trkpt><trkpt lat="49.16845625171245" lon="2.4722534468106416"><ele>75.0</ele><time>2026-04-22T12:19:54.999Z</time></trkpt><trkpt lat="49.16852534454266" lon="2.4721788483628377"><ele>75.0</ele><time>2026-04-22T12:19:56.999Z</time></trkpt><trkpt lat="49.16860505195864" lon="2.4721284097887177"><ele>75.0</ele><time>2026-04-22T12:19:59.999Z</time></trkpt><trkpt lat="49.16866695021202" lon="2.4720939877420496"><ele>75.0</ele><time>2026-04-22T12:20:01.999Z</time></trkpt><trkpt lat="49.168743627533225" lon="2.4720244547380497"><ele>75.0</ele><time>2026-04-22T12:20:05.999Z</time></trkpt><trkpt lat="49.16881008452603" lon="2.471960130045368"><ele>75.0</ele><time>2026-04-22T12:20:08.999Z</time></trkpt><trkpt lat="49.16886893811207" lon="2.471918084726165"><ele>75.0</ele><time>2026-04-22T12:20:12.998Z</time></trkpt><trkpt lat="49.168939036739836" lon="2.471885618330538"><ele>75.0</ele><time>2026-04-22T12:20:15.998Z</time></trkpt><trkpt lat="49.16901565447124" lon="2.4718829025466884"><ele>75.0</ele><time>2026-04-22T12:20:18.998Z</time></trkpt><trkpt lat="49.169090794241775" lon="2.4719027159580755"><ele>75.0</ele><time>2026-04-22T12:20:20.998Z</time></trkpt><trkpt lat="49.1691664158346" lon="2.471871701271542"><ele>75.0</ele><time>2026-04-22T12:20:22.998Z</time></trkpt><trkpt lat="49.169250395442724" lon="2.471887800559687"><ele>75.0</ele><time>2026-04-22T12:20:24.998Z</time></trkpt><trkpt lat="49.16932519431721" lon="2.4718598384474895"><ele>74.6</ele><time>2026-04-22T12:20:26.998Z</time></trkpt><trkpt lat="49.16942921035512" lon="2.471844195028861"><ele>74.2</ele><time>2026-04-22T12:20:29.998Z</time></trkpt><trkpt lat="49.16951101492248" lon="2.4718318690833665"><ele>73.8</ele><time>2026-04-22T12:20:31.998Z</time></trkpt><trkpt lat="49.16960265426172" lon="2.4718259682574386"><ele>73.4</ele><time>2026-04-22T12:20:33.998Z</time></trkpt><trkpt lat="49.169706803783995" lon="2.471807425308872"><ele>73.0</ele><time>2026-04-22T12:20:35.998Z</time></trkpt><trkpt lat="49.1698111120912" lon="2.4717864559951956"><ele>72.8</ele><time>2026-04-22T12:20:37.998Z</time></trkpt><trkpt lat="49.169915611420976" lon="2.47177029690108"><ele>72.6</ele><time>2026-04-22T12:20:39.998Z</time></trkpt><trkpt lat="49.17002443996527" lon="2.471744103020378"><ele>72.4</ele><time>2026-04-22T12:20:41.998Z</time></trkpt><trkpt lat="49.170132483998366" lon="2.471728100146493"><ele>72.2</ele><time>2026-04-22T12:20:43.997Z</time></trkpt><trkpt lat="49.17023226731233" lon="2.4717135898960616"><ele>72.0</ele><time>2026-04-22T12:20:45.997Z</time></trkpt><trkpt lat="49.17033273094244" lon="2.471698948402881"><ele>72.0</ele><time>2026-04-22T12:20:47.997Z</time></trkpt><trkpt lat="49.17041922814289" lon="2.471679963490168"><ele>72.0</ele><time>2026-04-22T12:20:49.997Z</time></trkpt><trkpt lat="49.17051815171128" lon="2.47166710518935"><ele>72.0</ele><time>2026-04-22T12:20:51.997Z</time></trkpt><trkpt lat="49.170606917390714" lon="2.471652587515936"><ele>72.0</ele><time>2026-04-22T12:20:53.997Z</time></trkpt><trkpt lat="49.17069593639133" lon="2.47163505830874"><ele>72.0</ele><time>2026-04-22T12:20:55.997Z</time></trkpt><trkpt lat="49.170783758336626" lon="2.471632680268336"><ele>71.6</ele><time>2026-04-22T12:20:57.997Z</time></trkpt><trkpt lat="49.17087786787829" lon="2.4716294575398483"><ele>71.2</ele><time>2026-04-22T12:20:59.997Z</time></trkpt><trkpt lat="49.170962348525194" lon="2.471612573763373"><ele>70.8</ele><time>2026-04-22T12:21:01.997Z</time></trkpt><trkpt lat="49.17105491617056" lon="2.4716047850999145"><ele>70.4</ele><time>2026-04-22T12:21:03.997Z</time></trkpt><trkpt lat="49.17114934313519" lon="2.4715906889901866"><ele>70.0</ele><time>2026-04-22T12:21:05.997Z</time></trkpt><trkpt lat="49.171242580631045" lon="2.471578258378982"><ele>70.0</ele><time>2026-04-22T12:21:07.997Z</time></trkpt><trkpt lat="49.17133568773023" lon="2.4715637608501244"><ele>70.0</ele><time>2026-04-22T12:21:09.997Z</time></trkpt><trkpt lat="49.1714280442975" lon="2.47155534561074"><ele>70.0</ele><time>2026-04-22T12:21:11.997Z</time></trkpt><trkpt lat="49.1715233327425" lon="2.471539457056246"><ele>70.0</ele><time>2026-04-22T12:21:13.997Z</time></trkpt><trkpt lat="49.171618868366586" lon="2.471521377729309"><ele>70.0</ele><time>2026-04-22T12:21:15.996Z</time></trkpt><trkpt lat="49.17171688428384" lon="2.471511930166812"><ele>70.0</ele><time>2026-04-22T12:21:18Z</time></trkpt><trkpt lat="49.1718144287777" lon="2.471496983218183"><ele>70.0</ele><time>2026-04-22T12:21:20Z</time></trkpt><trkpt lat="49.17191183706725" lon="2.471487596928571"><ele>70.0</ele><time>2026-04-22T12:21:22Z</time></trkpt><trkpt lat="49.1720125457283" lon="2.471478865336017"><ele>70.0</ele><time>2026-04-22T12:21:24Z</time></trkpt><trkpt lat="49.17211294471257" lon="2.4714632596120163"><ele>70.0</ele><time>2026-04-22T12:21:26Z</time></trkpt><trkpt lat="49.17221242325597" lon="2.471445068562393"><ele>70.0</ele><time>2026-04-22T12:21:28Z</time></trkpt><trkpt lat="49.17231437640738" lon="2.4714316574744846"><ele>70.0</ele><time>2026-04-22T12:21:30Z</time></trkpt><trkpt lat="49.172415768666006" lon="2.4714176330955646"><ele>70.0</ele><time>2026-04-22T12:21:32Z</time></trkpt><trkpt lat="49.17251696339041" lon="2.4714017108543183"><ele>70.0</ele><time>2026-04-22T12:21:34Z</time></trkpt><trkpt lat="49.17261601310607" lon="2.4713839173361696"><ele>70.0</ele><time>2026-04-22T12:21:36Z</time></trkpt><trkpt lat="49.172714346127385" lon="2.471369848940398"><ele>70.2</ele><time>2026-04-22T12:21:38Z</time></trkpt><trkpt lat="49.17281245124111" lon="2.471355831559895"><ele>70.4</ele><time>2026-04-22T12:21:40Z</time></trkpt><trkpt lat="49.172904817647314" lon="2.4713462231144283"><ele>70.6</ele><time>2026-04-22T12:21:42Z</time></trkpt><trkpt lat="49.17299622648559" lon="2.4713427708764497"><ele>70.8</ele><time>2026-04-22T12:21:43.999Z</time></trkpt><trkpt lat="49.17309392972246" lon="2.4713325702755538"><ele>71.0</ele><time>2026-04-22T12:21:45.999Z</time></trkpt><trkpt lat="49.17319129428239" lon="2.4713199880257757"><ele>71.0</ele><time>2026-04-22T12:21:47.999Z</time></trkpt><trkpt lat="49.173287864058885" lon="2.471305171265863"><ele>71.0</ele><time>2026-04-22T12:21:49.999Z</time></trkpt><trkpt lat="49.17338429307832" lon="2.471293524575269"><ele>71.0</ele><time>2026-04-22T12:21:51.999Z</time></trkpt><trkpt lat="49.17348524024145" lon="2.4712793913688484"><ele>71.0</ele><time>2026-04-22T12:21:53.999Z</time></trkpt><trkpt lat="49.173582743940194" lon="2.4712656671244115"><ele>71.0</ele><time>2026-04-22T12:21:55.999Z</time></trkpt><trkpt lat="49.17368431933658" lon="2.4712516656646355"><ele>71.0</ele><time>2026-04-22T12:21:57.999Z</time></trkpt><trkpt lat="49.173785840267556" lon="2.47123226257397"><ele>71.0</ele><time>2026-04-22T12:21:59.999Z</time></trkpt><trkpt lat="49.17388257305315" lon="2.4712151205470163"><ele>71.0</ele><time>2026-04-22T12:22:01.999Z</time></trkpt><trkpt lat="49.173981596697324" lon="2.47120609218176"><ele>71.0</ele><time>2026-04-22T12:22:03.999Z</time></trkpt><trkpt lat="49.17408252104967" lon="2.4711882279240056"><ele>71.0</ele><time>2026-04-22T12:22:05.999Z</time></trkpt><trkpt lat="49.17417960324135" lon="2.47117389993081"><ele>70.8</ele><time>2026-04-22T12:22:07.999Z</time></trkpt><trkpt lat="49.17426765479461" lon="2.4711582297041335"><ele>70.6</ele><time>2026-04-22T12:22:09.999Z</time></trkpt><trkpt lat="49.17435391214689" lon="2.4711424883881383"><ele>70.4</ele><time>2026-04-22T12:22:11.999Z</time></trkpt><trkpt lat="49.17444242500851" lon="2.4711323096264333"><ele>70.2</ele><time>2026-04-22T12:22:13.999Z</time></trkpt><trkpt lat="49.17453528084625" lon="2.4711260284274554"><ele>70.0</ele><time>2026-04-22T12:22:15.998Z</time></trkpt><trkpt lat="49.17462928651288" lon="2.4711137050762337"><ele>70.0</ele><time>2026-04-22T12:22:17.998Z</time></trkpt><trkpt lat="49.17471959828114" lon="2.471111279784347"><ele>70.0</ele><time>2026-04-22T12:22:19.998Z</time></trkpt><trkpt lat="49.17481950519436" lon="2.4710917882548165"><ele>70.0</ele><time>2026-04-22T12:22:21.998Z</time></trkpt><trkpt lat="49.17491622328442" lon="2.4710810232639693"><ele>70.0</ele><time>2026-04-22T12:22:23.998Z</time></trkpt><trkpt lat="49.17501510266206" lon="2.4710718613849707"><ele>70.0</ele><time>2026-04-22T12:22:25.998Z</time></trkpt><trkpt lat="49.175117821600224" lon="2.4710539525907054"><ele>69.6</ele><time>2026-04-22T12:22:27.998Z</time></trkpt><trkpt lat="49.17521814139168" lon="2.4710396196614095"><ele>69.2</ele><time>2026-04-22T12:22:29.998Z</time></trkpt><trkpt lat="49.17531493186164" lon="2.471023302955766"><ele>68.8</ele><time>2026-04-22T12:22:31.998Z</time></trkpt><trkpt lat="49.17541459894235" lon="2.4710104529851966"><ele>68.4</ele><time>2026-04-22T12:22:33.998Z</time></trkpt><trkpt lat="49.17551363524569" lon="2.470991430786946"><ele>68.0</ele><time>2026-04-22T12:22:35.998Z</time></trkpt><trkpt lat="49.17560957129314" lon="2.4709746703293476"><ele>68.0</ele><time>2026-04-22T12:22:37.998Z</time></trkpt><trkpt lat="49.17570488949765" lon="2.4709566588132943"><ele>68.0</ele><time>2026-04-22T12:22:39.998Z</time></trkpt><trkpt lat="49.175793298614565" lon="2.4709340721946402"><ele>68.0</ele><time>2026-04-22T12:22:41.998Z</time></trkpt><trkpt lat="49.17588243504353" lon="2.4709184663482633"><ele>68.0</ele><time>2026-04-22T12:22:43.998Z</time></trkpt><trkpt lat="49.175981237294884" lon="2.4709079926510213"><ele>68.0</ele><time>2026-04-22T12:22:45.998Z</time></trkpt><trkpt lat="49.1760751021279" lon="2.470895035668211"><ele>68.0</ele><time>2026-04-22T12:22:47.997Z</time></trkpt><trkpt lat="49.17616736711346" lon="2.470876344643969"><ele>68.0</ele><time>2026-04-22T12:22:49.997Z</time></trkpt><trkpt lat="49.17626430023625" lon="2.470861923582761"><ele>68.0</ele><time>2026-04-22T12:22:51.997Z</time></trkpt><trkpt lat="49.17633367500096" lon="2.4708437494517828"><ele>68.0</ele><time>2026-04-22T12:22:54.997Z</time></trkpt><trkpt lat="49.17639457963407" lon="2.4708693064246203"><ele>68.0</ele><time>2026-04-22T12:23:19.996Z</time></trkpt><trkpt lat="49.17646549045523" lon="2.470828906052266"><ele>68.0</ele><time>2026-04-22T12:24:38.998Z</time></trkpt><trkpt lat="49.176544559249066" lon="2.4708241604453467"><ele>68.0</ele><time>2026-04-22T12:24:41.998Z</time></trkpt><trkpt lat="49.17663008002832" lon="2.470809244486038"><ele>68.0</ele><time>2026-04-22T12:24:44.998Z</time></trkpt><trkpt lat="49.17672706660295" lon="2.4708020704243054"><ele>68.0</ele><time>2026-04-22T12:24:47.998Z</time></trkpt><trkpt lat="49.17681995856606" lon="2.4707886011102422"><ele>68.0</ele><time>2026-04-22T12:24:50.998Z</time></trkpt><trkpt lat="49.1769024428014" lon="2.470776353741562"><ele>68.0</ele><time>2026-04-22T12:24:53.998Z</time></trkpt><trkpt lat="49.176973884942534" lon="2.470752935884367"><ele>68.0</ele><time>2026-04-22T12:24:55.997Z</time></trkpt><trkpt lat="49.17705136526782" lon="2.4707477578812"><ele>68.0</ele><time>2026-04-22T12:24:57.997Z</time></trkpt><trkpt lat="49.17713201372116" lon="2.4707296487917745"><ele>68.0</ele><time>2026-04-22T12:24:59.997Z</time></trkpt><trkpt lat="49.17721273034477" lon="2.4707388398337815"><ele>68.0</ele><time>2026-04-22T12:25:01.997Z</time></trkpt><trkpt lat="49.17730431373259" lon="2.4707123676615326"><ele>68.0</ele><time>2026-04-22T12:25:03.997Z</time></trkpt><trkpt lat="49.17739294592109" lon="2.470702865805437"><ele>68.0</ele><time>2026-04-22T12:25:05.997Z</time></trkpt><trkpt lat="49.17748614514442" lon="2.470699252526168"><ele>68.0</ele><time>2026-04-22T12:25:07.997Z</time></trkpt><trkpt lat="49.17757660027383" lon="2.470697810427716"><ele>68.4</ele><time>2026-04-22T12:25:09.997Z</time></trkpt><trkpt lat="49.177666182777564" lon="2.470676731408568"><ele>68.8</ele><time>2026-04-22T12:25:11.997Z</time></trkpt><trkpt lat="49.17775633519716" lon="2.4706555410925635"><ele>69.2</ele><time>2026-04-22T12:25:13.997Z</time></trkpt><trkpt lat="49.17785381301385" lon="2.4706424581969064"><ele>69.6</ele><time>2026-04-22T12:25:15.997Z</time></trkpt><trkpt lat="49.177944534491125" lon="2.470621834087626"><ele>70.0</ele><time>2026-04-22T12:25:17.997Z</time></trkpt><trkpt lat="49.1780297719101" lon="2.4706174640699623"><ele>70.0</ele><time>2026-04-22T12:25:19.997Z</time></trkpt><trkpt lat="49.17811611352979" lon="2.470614001438392"><ele>70.0</ele><time>2026-04-22T12:25:21.997Z</time></trkpt><trkpt lat="49.178193650510636" lon="2.470578391260768"><ele>70.0</ele><time>2026-04-22T12:25:23.997Z</time></trkpt><trkpt lat="49.17827029109252" lon="2.470575373810491"><ele>70.0</ele><time>2026-04-22T12:25:25.997Z</time></trkpt><trkpt lat="49.17834501731361" lon="2.4705671873652"><ele>70.0</ele><time>2026-04-22T12:25:27.996Z</time></trkpt><trkpt lat="49.17841382274342" lon="2.4705466916253416"><ele>70.0</ele><time>2026-04-22T12:25:30Z</time></trkpt><trkpt lat="49.17848473804438" lon="2.470537010487159"><ele>70.0</ele><time>2026-04-22T12:25:32Z</time></trkpt><trkpt lat="49.17856595467492" lon="2.4705378986438267"><ele>70.0</ele><time>2026-04-22T12:25:34Z</time></trkpt><trkpt lat="49.17865078595895" lon="2.4705193803386853"><ele>70.0</ele><time>2026-04-22T12:25:36Z</time></trkpt><trkpt lat="49.17873525085291" lon="2.470503340588304"><ele>70.0</ele><time>2026-04-22T12:25:38Z</time></trkpt><trkpt lat="49.17883766288297" lon="2.4705019477977346"><ele>70.0</ele><time>2026-04-22T12:25:40Z</time></trkpt><trkpt lat="49.17893708607461" lon="2.470487892933986"><ele>69.6</ele><time>2026-04-22T12:25:42Z</time></trkpt><trkpt lat="49.17903786793151" lon="2.470485969097214"><ele>69.2</ele><time>2026-04-22T12:25:44Z</time></trkpt><trkpt lat="49.179130694566986" lon="2.4704791011755063"><ele>68.8</ele><time>2026-04-22T12:25:46Z</time></trkpt><trkpt lat="49.17922440027221" lon="2.4704608694143126"><ele>68.4</ele><time>2026-04-22T12:25:48Z</time></trkpt><trkpt lat="49.179329472233675" lon="2.4704570704296205"><ele>68.0</ele><time>2026-04-22T12:25:50Z</time></trkpt><trkpt lat="49.17942974934572" lon="2.4704401036493344"><ele>68.0</ele><time>2026-04-22T12:25:52Z</time></trkpt><trkpt lat="49.17954146953614" lon="2.4704323507019694"><ele>68.0</ele><time>2026-04-22T12:25:54Z</time></trkpt><trkpt lat="49.179645767802654" lon="2.4704168002358844"><ele>68.0</ele><time>2026-04-22T12:25:55.999Z</time></trkpt><trkpt lat="49.17975836378996" lon="2.4703989831499973"><ele>68.0</ele><time>2026-04-22T12:25:57.999Z</time></trkpt><trkpt lat="49.17987070837247" lon="2.4703827146290047"><ele>68.0</ele><time>2026-04-22T12:25:59.999Z</time></trkpt><trkpt lat="49.17997698051356" lon="2.470357521451228"><ele>67.6</ele><time>2026-04-22T12:26:01.999Z</time></trkpt><trkpt lat="49.180085852517244" lon="2.470339402750837"><ele>67.19999999999999</ele><time>2026-04-22T12:26:03.999Z</time></trkpt><trkpt lat="49.18020527656898" lon="2.470318571357754"><ele>66.8</ele><time>2026-04-22T12:26:05.999Z</time></trkpt><trkpt lat="49.18027505535322" lon="2.4703115985138737"><ele>66.39999999999999</ele><time>2026-04-22T12:26:06.999Z</time></trkpt><trkpt lat="49.18040237747766" lon="2.4703024556381576"><ele>66.0</ele><time>2026-04-22T12:26:08.999Z</time></trkpt><trkpt lat="49.18046578655887" lon="2.4702888143275645"><ele>66.0</ele><time>2026-04-22T12:26:09.999Z</time></trkpt><trkpt lat="49.180531829565" lon="2.4702861994651193"><ele>66.0</ele><time>2026-04-22T12:26:10.999Z</time></trkpt><trkpt lat="49.18059642051122" lon="2.4702794354585627"><ele>66.0</ele><time>2026-04-22T12:26:11.999Z</time></trkpt><trkpt lat="49.180662805746515" lon="2.4702714664339886"><ele>66.0</ele><time>2026-04-22T12:26:12.999Z</time></trkpt><trkpt lat="49.18078590442245" lon="2.4702627981060705"><ele>66.0</ele><time>2026-04-22T12:26:14.999Z</time></trkpt><trkpt lat="49.18090903747435" lon="2.47024604222107"><ele>66.0</ele><time>2026-04-22T12:26:16.999Z</time></trkpt><trkpt lat="49.18098121608093" lon="2.470234597135358"><ele>65.85714285714286</ele><time>2026-04-22T12:26:17.999Z</time></trkpt><trkpt lat="49.18104849859114" lon="2.4702208921974633"><ele>65.71428571428572</ele><time>2026-04-22T12:26:18.999Z</time></trkpt><trkpt lat="49.18111339185578" lon="2.470211462113133"><ele>65.57142857142858</ele><time>2026-04-22T12:26:19.999Z</time></trkpt><trkpt lat="49.18118060012351" lon="2.4702029240926064"><ele>65.42857142857143</ele><time>2026-04-22T12:26:20.999Z</time></trkpt><trkpt lat="49.18124537668283" lon="2.4701956385224895"><ele>65.28571428571429</ele><time>2026-04-22T12:26:21.999Z</time></trkpt><trkpt lat="49.181309684351554" lon="2.4701759002836168"><ele>65.14285714285715</ele><time>2026-04-22T12:26:22.999Z</time></trkpt><trkpt lat="49.18137129120442" lon="2.4701554729015185"><ele>65.0</ele><time>2026-04-22T12:26:23.999Z</time></trkpt><trkpt lat="49.18143302649774" lon="2.4701339224243073"><ele>65.2</ele><time>2026-04-22T12:26:24.999Z</time></trkpt><trkpt lat="49.18155730613903" lon="2.470109938680766"><ele>65.4</ele><time>2026-04-22T12:26:26.998Z</time></trkpt><trkpt lat="49.18162244226295" lon="2.4701018167283038"><ele>65.6</ele><time>2026-04-22T12:26:27.998Z</time></trkpt><trkpt lat="49.18174044487619" lon="2.4700748024081833"><ele>65.8</ele><time>2026-04-22T12:26:29.998Z</time></trkpt><trkpt lat="49.18185904626321" lon="2.470048933726325"><ele>66.0</ele><time>2026-04-22T12:26:31.998Z</time></trkpt><trkpt lat="49.181977462641555" lon="2.470012904294731"><ele>66.0</ele><time>2026-04-22T12:26:33.998Z</time></trkpt><trkpt lat="49.182040435060294" lon="2.4700051735330346"><ele>66.0</ele><time>2026-04-22T12:26:34.998Z</time></trkpt><trkpt lat="49.18216118528059" lon="2.469976343518179"><ele>66.0</ele><time>2026-04-22T12:26:36.998Z</time></trkpt><trkpt lat="49.182275308447984" lon="2.4699530182008984"><ele>66.0</ele><time>2026-04-22T12:26:38.998Z</time></trkpt><trkpt lat="49.18233959297399" lon="2.4699340085632904"><ele>66.0</ele><time>2026-04-22T12:26:39.998Z</time></trkpt><trkpt lat="49.18245266130396" lon="2.469929218881008"><ele>65.8</ele><time>2026-04-22T12:26:41.998Z</time></trkpt><trkpt lat="49.182560924965706" lon="2.4698739355181374"><ele>65.6</ele><time>2026-04-22T12:26:43.998Z</time></trkpt><trkpt lat="49.18269250295374" lon="2.469853903051373"><ele>65.4</ele><time>2026-04-22T12:26:45.998Z</time></trkpt><trkpt lat="49.18275764960809" lon="2.469843901473823"><ele>65.2</ele><time>2026-04-22T12:26:46.998Z</time></trkpt><trkpt lat="49.182867547960285" lon="2.469824838658922"><ele>65.0</ele><time>2026-04-22T12:26:48.998Z</time></trkpt><trkpt lat="49.18298745212497" lon="2.469783771566361"><ele>65.0</ele><time>2026-04-22T12:26:50.998Z</time></trkpt><trkpt lat="49.183051174881996" lon="2.469772487705443"><ele>65.0</ele><time>2026-04-22T12:26:51.998Z</time></trkpt><trkpt lat="49.18311602165363" lon="2.4697601394653477"><ele>65.0</ele><time>2026-04-22T12:26:52.998Z</time></trkpt><trkpt lat="49.18324063914153" lon="2.4697384380161203"><ele>65.0</ele><time>2026-04-22T12:26:54.998Z</time></trkpt><trkpt lat="49.18335800209111" lon="2.4697122531679416"><ele>65.0</ele><time>2026-04-22T12:26:56.998Z</time></trkpt><trkpt lat="49.18347963665973" lon="2.4696831145565716"><ele>65.25</ele><time>2026-04-22T12:26:58.997Z</time></trkpt><trkpt lat="49.18359410923888" lon="2.4696624794268702"><ele>65.5</ele><time>2026-04-22T12:27:00.997Z</time></trkpt><trkpt lat="49.183712958469776" lon="2.4696288603780148"><ele>65.75</ele><time>2026-04-22T12:27:02.997Z</time></trkpt><trkpt lat="49.18383112773013" lon="2.4695950285557835"><ele>66.0</ele><time>2026-04-22T12:27:04.997Z</time></trkpt><trkpt lat="49.18395135337624" lon="2.469569576025511"><ele>66.25</ele><time>2026-04-22T12:27:06.997Z</time></trkpt><trkpt lat="49.184070281220386" lon="2.4695369962673412"><ele>66.5</ele><time>2026-04-22T12:27:08.997Z</time></trkpt><trkpt lat="49.18418254378746" lon="2.469513101868372"><ele>66.75</ele><time>2026-04-22T12:27:10.997Z</time></trkpt><trkpt lat="49.18429537663679" lon="2.4694849855944585"><ele>67.0</ele><time>2026-04-22T12:27:12.997Z</time></trkpt><trkpt lat="49.18440702454499" lon="2.4694583888328845"><ele>67.0</ele><time>2026-04-22T12:27:14.997Z</time></trkpt><trkpt lat="49.18451434028705" lon="2.4694305778318606"><ele>67.0</ele><time>2026-04-22T12:27:16.997Z</time></trkpt><trkpt lat="49.18461735318574" lon="2.469405856598652"><ele>67.0</ele><time>2026-04-22T12:27:18.997Z</time></trkpt><trkpt lat="49.18472075846947" lon="2.4693859391288515"><ele>67.0</ele><time>2026-04-22T12:27:20.997Z</time></trkpt><trkpt lat="49.184819754402284" lon="2.4693612086911627"><ele>67.0</ele><time>2026-04-22T12:27:22.997Z</time></trkpt><trkpt lat="49.18492434499561" lon="2.4693311430397196"><ele>66.6</ele><time>2026-04-22T12:27:24.997Z</time></trkpt><trkpt lat="49.18502217255848" lon="2.469307174912581"><ele>66.2</ele><time>2026-04-22T12:27:26.997Z</time></trkpt><trkpt lat="49.18512368250193" lon="2.4692819215798427"><ele>65.8</ele><time>2026-04-22T12:27:28.997Z</time></trkpt><trkpt lat="49.18521944580811" lon="2.4692591472261336"><ele>65.4</ele><time>2026-04-22T12:27:30.996Z</time></trkpt><trkpt lat="49.185315948657355" lon="2.469224459473639"><ele>65.0</ele><time>2026-04-22T12:27:32.996Z</time></trkpt><trkpt lat="49.185411548585606" lon="2.4691688818862954"><ele>65.0</ele><time>2026-04-22T12:27:35Z</time></trkpt><trkpt lat="49.185505945791" lon="2.4691034374609613"><ele>65.0</ele><time>2026-04-22T12:27:37Z</time></trkpt><trkpt lat="49.185598279920555" lon="2.4691187183792596"><ele>65.0</ele><time>2026-04-22T12:27:39Z</time></trkpt><trkpt lat="49.185712885106476" lon="2.4691362571441826"><ele>65.0</ele><time>2026-04-22T12:27:41Z</time></trkpt><trkpt lat="49.18581801469771" lon="2.469110316572215"><ele>65.0</ele><time>2026-04-22T12:27:43Z</time></trkpt><trkpt lat="49.18592335923554" lon="2.469091609478986"><ele>65.0</ele><time>2026-04-22T12:27:45Z</time></trkpt><trkpt lat="49.18603236141062" lon="2.469062979138415"><ele>65.0</ele><time>2026-04-22T12:27:47Z</time></trkpt><trkpt lat="49.18614198858198" lon="2.469040748999492"><ele>65.0</ele><time>2026-04-22T12:27:49Z</time></trkpt><trkpt lat="49.18625035450247" lon="2.4690117898374506"><ele>65.0</ele><time>2026-04-22T12:27:51Z</time></trkpt><trkpt lat="49.18636303140419" lon="2.468990971312668"><ele>65.0</ele><time>2026-04-22T12:27:53Z</time></trkpt><trkpt lat="49.18647076612512" lon="2.4689586626219575"><ele>65.0</ele><time>2026-04-22T12:27:55Z</time></trkpt><trkpt lat="49.186580483146464" lon="2.4689233898983716"><ele>65.0</ele><time>2026-04-22T12:27:57Z</time></trkpt><trkpt lat="49.18669088296048" lon="2.4688887982322836"><ele>65.0</ele><time>2026-04-22T12:27:59Z</time></trkpt><trkpt lat="49.18679997008039" lon="2.468867607795378"><ele>65.0</ele><time>2026-04-22T12:28:00.999Z</time></trkpt><trkpt lat="49.18690804619911" lon="2.468857178223841"><ele>65.0</ele><time>2026-04-22T12:28:02.999Z</time></trkpt><trkpt lat="49.18701873524359" lon="2.468831737253815"><ele>65.0</ele><time>2026-04-22T12:28:04.999Z</time></trkpt><trkpt lat="49.18711987753895" lon="2.468794594476362"><ele>65.0</ele><time>2026-04-22T12:28:06.999Z</time></trkpt><trkpt lat="49.187219268810686" lon="2.4687740398604117"><ele>65.0</ele><time>2026-04-22T12:28:08.999Z</time></trkpt><trkpt lat="49.187319834510426" lon="2.468839718611689"><ele>65.0</ele><time>2026-04-22T12:28:10.999Z</time></trkpt><trkpt lat="49.18740864488503" lon="2.468892217369696"><ele>65.0</ele><time>2026-04-22T12:28:12.999Z</time></trkpt><trkpt lat="49.18747628371816" lon="2.468786356638804"><ele>64.0</ele><time>2026-04-22T12:28:14.999Z</time></trkpt><trkpt lat="49.18747997316365" lon="2.468648418830951"><ele>63.0</ele><time>2026-04-22T12:28:16.999Z</time></trkpt><trkpt lat="49.187460884834884" lon="2.4685217882827715"><ele>62.0</ele><time>2026-04-22T12:28:18.999Z</time></trkpt><trkpt lat="49.18751869605485" lon="2.4684217122650614"><ele>61.0</ele><time>2026-04-22T12:28:20.999Z</time></trkpt><trkpt lat="49.187559712340914" lon="2.468301972137417"><ele>60.00000000000001</ele><time>2026-04-22T12:28:23.999Z</time></trkpt><trkpt lat="49.18760167156356" lon="2.4681850620158925"><ele>59.0</ele><time>2026-04-22T12:28:26.999Z</time></trkpt><trkpt lat="49.18763456579457" lon="2.4680682916626173"><ele>59.00000000000001</ele><time>2026-04-22T12:28:29.999Z</time></trkpt><trkpt lat="49.18767065528463" lon="2.46796102975621"><ele>59.0</ele><time>2026-04-22T12:28:32.998Z</time></trkpt><trkpt lat="49.187726032832046" lon="2.467885575533645"><ele>59.0</ele><time>2026-04-22T12:28:35.998Z</time></trkpt><trkpt lat="49.18779255463955" lon="2.4678635554989454"><ele>59.0</ele><time>2026-04-22T12:28:38.998Z</time></trkpt><trkpt lat="49.187795378980645" lon="2.467690441486907"><ele>59.00000000000001</ele><time>2026-04-22T12:28:42.998Z</time></trkpt><trkpt lat="49.18776857685432" lon="2.4675923368169093"><ele>59.0</ele><time>2026-04-22T12:28:44.998Z</time></trkpt><trkpt lat="49.18774878255277" lon="2.467484773576958"><ele>59.16666666666667</ele><time>2026-04-22T12:28:46.998Z</time></trkpt><trkpt lat="49.187742854895184" lon="2.4673719334456696"><ele>59.333333333333336</ele><time>2026-04-22T12:28:48.998Z</time></trkpt><trkpt lat="49.18770874154098" lon="2.4672627258078275"><ele>59.5</ele><time>2026-04-22T12:28:50.998Z</time></trkpt><trkpt lat="49.18770024852273" lon="2.467140339211084"><ele>59.66666666666667</ele><time>2026-04-22T12:28:52.998Z</time></trkpt><trkpt lat="49.18766349519275" lon="2.4670338539183025"><ele>59.833333333333336</ele><time>2026-04-22T12:28:54.998Z</time></trkpt><trkpt lat="49.187646310325285" lon="2.4669141719110668"><ele>60.0</ele><time>2026-04-22T12:28:56.998Z</time></trkpt><trkpt lat="49.187624482551215" lon="2.466797057313955"><ele>60.0</ele><time>2026-04-22T12:28:58.998Z</time></trkpt><trkpt lat="49.18760242093038" lon="2.466681647722513"><ele>60.0</ele><time>2026-04-22T12:29:00.998Z</time></trkpt><trkpt lat="49.18758482997495" lon="2.4665627697587174"><ele>60.0</ele><time>2026-04-22T12:29:02.998Z</time></trkpt><trkpt lat="49.1875664165956" lon="2.466443969170554"><ele>60.0</ele><time>2026-04-22T12:29:04.997Z</time></trkpt><trkpt lat="49.187542998324474" lon="2.4663303051635626"><ele>60.0</ele><time>2026-04-22T12:29:06.997Z</time></trkpt><trkpt lat="49.187525466794064" lon="2.466198782375332"><ele>60.0</ele><time>2026-04-22T12:29:08.997Z</time></trkpt><trkpt lat="49.187499139994735" lon="2.4660515776998526"><ele>60.0</ele><time>2026-04-22T12:29:10.997Z</time></trkpt><trkpt lat="49.187481182506545" lon="2.4659555961739708"><ele>60.0</ele><time>2026-04-22T12:29:11.997Z</time></trkpt><trkpt lat="49.18744365097366" lon="2.4657748294221618"><ele>60.0</ele><time>2026-04-22T12:29:13.997Z</time></trkpt><trkpt lat="49.1874203978418" lon="2.4656599514708764"><ele>60.0</ele><time>2026-04-22T12:29:14.997Z</time></trkpt><trkpt lat="49.187397160637545" lon="2.465498097412318"><ele>60.0</ele><time>2026-04-22T12:29:16.997Z</time></trkpt><trkpt lat="49.187339182701585" lon="2.4653277011955814"><ele>60.28571428571429</ele><time>2026-04-22T12:29:18.997Z</time></trkpt><trkpt lat="49.18731581133326" lon="2.465234930135722"><ele>60.57142857142857</ele><time>2026-04-22T12:29:19.997Z</time></trkpt><trkpt lat="49.187293064000045" lon="2.465141627838942"><ele>60.85714285714286</ele><time>2026-04-22T12:29:20.997Z</time></trkpt><trkpt lat="49.18727119278306" lon="2.46504534276618"><ele>61.142857142857146</ele><time>2026-04-22T12:29:21.997Z</time></trkpt><trkpt lat="49.18724156927186" lon="2.4649472198086686"><ele>61.42857142857143</ele><time>2026-04-22T12:29:22.997Z</time></trkpt><trkpt lat="49.18721729887492" lon="2.464850651357738"><ele>61.714285714285715</ele><time>2026-04-22T12:29:23.997Z</time></trkpt><trkpt lat="49.18719145652219" lon="2.464760329627185"><ele>62.0</ele><time>2026-04-22T12:29:24.997Z</time></trkpt><trkpt lat="49.187168143812556" lon="2.464665063249913"><ele>61.833333333333336</ele><time>2026-04-22T12:29:25.997Z</time></trkpt><trkpt lat="49.18714516395338" lon="2.4645725303294914"><ele>61.66666666666667</ele><time>2026-04-22T12:29:26.997Z</time></trkpt><trkpt lat="49.187094964755865" lon="2.4643934388644966"><ele>61.5</ele><time>2026-04-22T12:29:28.997Z</time></trkpt><trkpt lat="49.18707172815258" lon="2.4643021693124725"><ele>61.33333333333333</ele><time>2026-04-22T12:29:29.997Z</time></trkpt><trkpt lat="49.187046021256485" lon="2.4642135525580255"><ele>61.166666666666664</ele><time>2026-04-22T12:29:30.997Z</time></trkpt><trkpt lat="49.18702409427884" lon="2.464118558800532"><ele>61.0</ele><time>2026-04-22T12:29:31.997Z</time></trkpt><trkpt lat="49.18699986371316" lon="2.4639372097961987"><ele>60.8</ele><time>2026-04-22T12:29:33.997Z</time></trkpt><trkpt lat="49.18696696686663" lon="2.4637503667975045"><ele>60.599999999999994</ele><time>2026-04-22T12:29:35.997Z</time></trkpt><trkpt lat="49.186952556704576" lon="2.463655841577071"><ele>60.4</ele><time>2026-04-22T12:29:36.996Z</time></trkpt><trkpt lat="49.186931653225145" lon="2.4634706294106237"><ele>60.2</ele><time>2026-04-22T12:29:38.996Z</time></trkpt><trkpt lat="49.18690940895767" lon="2.463281606954559"><ele>60.0</ele><time>2026-04-22T12:29:41Z</time></trkpt><trkpt lat="49.18688526594855" lon="2.4630938876409134"><ele>60.0</ele><time>2026-04-22T12:29:43Z</time></trkpt><trkpt lat="49.18673291211296" lon="2.463046825741787"><ele>60.0</ele><time>2026-04-22T12:29:44Z</time></trkpt><trkpt lat="49.186705066577915" lon="2.4628660070219164"><ele>60.0</ele><time>2026-04-22T12:29:46Z</time></trkpt><trkpt lat="49.186682508927724" lon="2.4627678306220178"><ele>60.0</ele><time>2026-04-22T12:29:47Z</time></trkpt><trkpt lat="49.18666214571214" lon="2.4626750997368645"><ele>60.0</ele><time>2026-04-22T12:29:48Z</time></trkpt><trkpt lat="49.186626507141106" lon="2.4625107384458453"><ele>59.8</ele><time>2026-04-22T12:29:50Z</time></trkpt><trkpt lat="49.186591732322945" lon="2.4623355676064826"><ele>59.6</ele><time>2026-04-22T12:29:52Z</time></trkpt><trkpt lat="49.186561010480325" lon="2.4621779481272656"><ele>59.400000000000006</ele><time>2026-04-22T12:29:54Z</time></trkpt><trkpt lat="49.186540827557" lon="2.4620377990648894"><ele>59.2</ele><time>2026-04-22T12:29:56Z</time></trkpt><trkpt lat="49.1865800738953" lon="2.4619278958307516"><ele>59.0</ele><time>2026-04-22T12:29:58Z</time></trkpt><trkpt lat="49.1866456093536" lon="2.4619240201805153"><ele>58.75</ele><time>2026-04-22T12:30:00Z</time></trkpt><trkpt lat="49.18651935252177" lon="2.461841186378158"><ele>58.5</ele><time>2026-04-22T12:30:01Z</time></trkpt><trkpt lat="49.186723192900146" lon="2.4618640835989805"><ele>58.25</ele><time>2026-04-22T12:30:04Z</time></trkpt><trkpt lat="49.18680442802517" lon="2.461860291081378"><ele>58.0</ele><time>2026-04-22T12:30:05.999Z</time></trkpt><trkpt lat="49.18687393790686" lon="2.4618323989301247"><ele>58.0</ele><time>2026-04-22T12:30:07.999Z</time></trkpt><trkpt lat="49.18690787360912" lon="2.461729555818893"><ele>58.0</ele><time>2026-04-22T12:30:10.999Z</time></trkpt><trkpt lat="49.18701867629043" lon="2.461490603517374"><ele>58.0</ele><time>2026-04-22T12:30:16.999Z</time></trkpt><trkpt lat="49.187082825868046" lon="2.4615306781809654"><ele>58.0</ele><time>2026-04-22T12:30:19.999Z</time></trkpt><trkpt lat="49.18716080349743" lon="2.4614035705147597"><ele>58.25</ele><time>2026-04-22T12:30:20.999Z</time></trkpt><trkpt lat="49.187355341017756" lon="2.4615274417411896"><ele>58.5</ele><time>2026-04-22T12:30:25.999Z</time></trkpt><trkpt lat="49.18744062696541" lon="2.461581880324131"><ele>58.75</ele><time>2026-04-22T12:30:27.999Z</time></trkpt><trkpt lat="49.18751946277722" lon="2.4616322509764186"><ele>59.0</ele><time>2026-04-22T12:30:29.999Z</time></trkpt><trkpt lat="49.1875888648841" lon="2.461676594156318"><ele>59.00000000000001</ele><time>2026-04-22T12:30:31.999Z</time></trkpt><trkpt lat="49.18767126864833" lon="2.461729244405063"><ele>59.0</ele><time>2026-04-22T12:30:33.999Z</time></trkpt><trkpt lat="49.18774715546215" lon="2.461777730787925"><ele>59.0</ele><time>2026-04-22T12:30:35.999Z</time></trkpt><trkpt lat="49.187821908817114" lon="2.461825493115727"><ele>59.0</ele><time>2026-04-22T12:30:37.998Z</time></trkpt><trkpt lat="49.18790252271584" lon="2.4618769997803605"><ele>59.00000000000001</ele><time>2026-04-22T12:30:39.998Z</time></trkpt><trkpt lat="49.18799748514934" lon="2.4619382430515637"><ele>59.0</ele><time>2026-04-22T12:30:42.998Z</time></trkpt><trkpt lat="49.18811524454506" lon="2.462015227978147"><ele>58.833333333333336</ele><time>2026-04-22T12:30:44.998Z</time></trkpt><trkpt lat="49.188195186600694" lon="2.462067490064949"><ele>58.66666666666667</ele><time>2026-04-22T12:30:46.998Z</time></trkpt><trkpt lat="49.18825976815668" lon="2.46210971012868"><ele>58.5</ele><time>2026-04-22T12:30:48.998Z</time></trkpt><trkpt lat="49.188334207897285" lon="2.4621583750179554"><ele>58.33333333333333</ele><time>2026-04-22T12:30:50.998Z</time></trkpt><trkpt lat="49.18842684968443" lon="2.462218939503186"><ele>58.166666666666664</ele><time>2026-04-22T12:30:52.998Z</time></trkpt><trkpt lat="49.18852469163984" lon="2.462282903519223"><ele>58.0</ele><time>2026-04-22T12:30:54.998Z</time></trkpt><trkpt lat="49.18861807549739" lon="2.462342550694017"><ele>57.8</ele><time>2026-04-22T12:30:56.998Z</time></trkpt><trkpt lat="49.18872227740193" lon="2.462408522419742"><ele>57.599999999999994</ele><time>2026-04-22T12:30:58.998Z</time></trkpt><trkpt lat="49.18879434333991" lon="2.4624541585074478"><ele>57.400000000000006</ele><time>2026-04-22T12:31:00.998Z</time></trkpt><trkpt lat="49.18889157329841" lon="2.462515591264394"><ele>57.2</ele><time>2026-04-22T12:31:02.998Z</time></trkpt><trkpt lat="49.18899070746319" lon="2.4625780106151747"><ele>57.0</ele><time>2026-04-22T12:31:04.998Z</time></trkpt><trkpt lat="49.189087069330085" lon="2.462638684316971"><ele>56.833333333333336</ele><time>2026-04-22T12:31:06.998Z</time></trkpt><trkpt lat="49.18916410428059" lon="2.462687188933309"><ele>56.66666666666667</ele><time>2026-04-22T12:31:08.998Z</time></trkpt><trkpt lat="49.189252165478436" lon="2.4627426362000433"><ele>56.5</ele><time>2026-04-22T12:31:10.997Z</time></trkpt><trkpt lat="49.18934465087762" lon="2.462800869073801"><ele>56.333333333333336</ele><time>2026-04-22T12:31:12.997Z</time></trkpt><trkpt lat="49.189437552707425" lon="2.462861137109681"><ele>56.16666666666667</ele><time>2026-04-22T12:31:14.997Z</time></trkpt><trkpt lat="49.1894978226842" lon="2.4628999962703912"><ele>56.0</ele><time>2026-04-22T12:31:16.997Z</time></trkpt><trkpt lat="49.18956979904076" lon="2.462946403069083"><ele>56.00000000000001</ele><time>2026-04-22T12:31:18.997Z</time></trkpt><trkpt lat="49.189651010582544" lon="2.462998764370942"><ele>56.0</ele><time>2026-04-22T12:31:20.997Z</time></trkpt><trkpt lat="49.18971568724807" lon="2.463040464696824"><ele>56.0</ele><time>2026-04-22T12:31:22.997Z</time></trkpt><trkpt lat="49.189777297237846" lon="2.463072189169275"><ele>56.0</ele><time>2026-04-22T12:31:25.997Z</time></trkpt><trkpt lat="49.18987134610769" lon="2.463075084736635"><ele>56.00000000000001</ele><time>2026-04-22T12:31:27.997Z</time></trkpt><trkpt lat="49.189971732847646" lon="2.463140829444698"><ele>56.0</ele><time>2026-04-22T12:31:29.997Z</time></trkpt><trkpt lat="49.190068394094276" lon="2.4632086056978015"><ele>56.0</ele><time>2026-04-22T12:31:31.997Z</time></trkpt><trkpt lat="49.19016632067519" lon="2.4632692884600096"><ele>55.99999999999999</ele><time>2026-04-22T12:31:33.997Z</time></trkpt><trkpt lat="49.190260568571404" lon="2.4633240802702034"><ele>55.99999999999999</ele><time>2026-04-22T12:31:35.997Z</time></trkpt><trkpt lat="49.19035337413773" lon="2.4633844177400257"><ele>56.0</ele><time>2026-04-22T12:31:37.997Z</time></trkpt><trkpt lat="49.19044769328961" lon="2.4634440450958706"><ele>56.0</ele><time>2026-04-22T12:31:39.997Z</time></trkpt><trkpt lat="49.19054298899329" lon="2.463501006955276"><ele>56.0</ele><time>2026-04-22T12:31:41.997Z</time></trkpt><trkpt lat="49.19063934291364" lon="2.4635565941849746"><ele>55.99999999999999</ele><time>2026-04-22T12:31:43.996Z</time></trkpt><trkpt lat="49.190734157557706" lon="2.4636174401284276"><ele>55.99999999999999</ele><time>2026-04-22T12:31:46Z</time></trkpt><trkpt lat="49.19083030855807" lon="2.463679891970555"><ele>56.0</ele><time>2026-04-22T12:31:48Z</time></trkpt><trkpt lat="49.19092439092771" lon="2.463741368754503"><ele>56.0</ele><time>2026-04-22T12:31:50Z</time></trkpt><trkpt lat="49.191018661462884" lon="2.4637954269556954"><ele>56.199999999999996</ele><time>2026-04-22T12:31:52Z</time></trkpt><trkpt lat="49.191118718121096" lon="2.4638539309133667"><ele>56.39999999999999</ele><time>2026-04-22T12:31:54Z</time></trkpt><trkpt lat="49.191216452739184" lon="2.4639136742664305"><ele>56.6</ele><time>2026-04-22T12:31:56Z</time></trkpt><trkpt lat="49.19131324001624" lon="2.4639770771188965"><ele>56.8</ele><time>2026-04-22T12:31:58Z</time></trkpt><trkpt lat="49.19141090194244" lon="2.4640436082845283"><ele>57.0</ele><time>2026-04-22T12:32:00Z</time></trkpt><trkpt lat="49.19151219990847" lon="2.4641033815372513"><ele>57.0</ele><time>2026-04-22T12:32:02Z</time></trkpt><trkpt lat="49.19161237586363" lon="2.4641667930241415"><ele>57.0</ele><time>2026-04-22T12:32:04Z</time></trkpt><trkpt lat="49.191710676332505" lon="2.464228456668502"><ele>57.0</ele><time>2026-04-22T12:32:06Z</time></trkpt><trkpt lat="49.19181091429236" lon="2.4642935130867474"><ele>57.0</ele><time>2026-04-22T12:32:08Z</time></trkpt><trkpt lat="49.191910372179414" lon="2.4643597313337198"><ele>57.0</ele><time>2026-04-22T12:32:10Z</time></trkpt><trkpt lat="49.1920096236378" lon="2.46442098918283"><ele>57.0</ele><time>2026-04-22T12:32:11.999Z</time></trkpt><trkpt lat="49.19210657297057" lon="2.464484393988207"><ele>57.0</ele><time>2026-04-22T12:32:13.999Z</time></trkpt><trkpt lat="49.19220302586057" lon="2.4645422135641843"><ele>57.0</ele><time>2026-04-22T12:32:15.999Z</time></trkpt><trkpt lat="49.19229752108415" lon="2.46460521656235"><ele>57.0</ele><time>2026-04-22T12:32:17.999Z</time></trkpt><trkpt lat="49.19238410278187" lon="2.4646744141941985"><ele>57.0</ele><time>2026-04-22T12:32:19.999Z</time></trkpt><trkpt lat="49.19247211921825" lon="2.4647316759764175"><ele>56.8</ele><time>2026-04-22T12:32:21.999Z</time></trkpt><trkpt lat="49.192560910274466" lon="2.4647859632842692"><ele>56.6</ele><time>2026-04-22T12:32:23.999Z</time></trkpt><trkpt lat="49.19265493680056" lon="2.4648484432070954"><ele>56.39999999999999</ele><time>2026-04-22T12:32:25.999Z</time></trkpt><trkpt lat="49.19275325346649" lon="2.4649040324289038"><ele>56.199999999999996</ele><time>2026-04-22T12:32:27.999Z</time></trkpt><trkpt lat="49.192846842567164" lon="2.4649713097375248"><ele>56.0</ele><time>2026-04-22T12:32:29.999Z</time></trkpt><trkpt lat="49.192943812649176" lon="2.465034666225502"><ele>56.0</ele><time>2026-04-22T12:32:31.999Z</time></trkpt><trkpt lat="49.1930451108864" lon="2.4650956905191594"><ele>55.99999999999999</ele><time>2026-04-22T12:32:33.999Z</time></trkpt><trkpt lat="49.19314735989283" lon="2.465159036878682"><ele>55.99999999999999</ele><time>2026-04-22T12:32:35.999Z</time></trkpt><trkpt lat="49.193251543598386" lon="2.465225707203726"><ele>56.0</ele><time>2026-04-22T12:32:37.999Z</time></trkpt><trkpt lat="49.19334884508556" lon="2.4652851962264473"><ele>56.0</ele><time>2026-04-22T12:32:39.999Z</time></trkpt><trkpt lat="49.19345211352905" lon="2.4653512102444464"><ele>55.8</ele><time>2026-04-22T12:32:41.998Z</time></trkpt><trkpt lat="49.19355471885721" lon="2.4654069856325473"><ele>55.599999999999994</ele><time>2026-04-22T12:32:43.998Z</time></trkpt><trkpt lat="49.19366137467897" lon="2.4654726056614744"><ele>55.4</ele><time>2026-04-22T12:32:45.998Z</time></trkpt><trkpt lat="49.19376499758668" lon="2.465535389171263"><ele>55.2</ele><time>2026-04-22T12:32:47.998Z</time></trkpt><trkpt lat="49.19386977120286" lon="2.465598840235035"><ele>55.0</ele><time>2026-04-22T12:32:49.998Z</time></trkpt><trkpt lat="49.19397372887959" lon="2.465658718507121"><ele>54.8</ele><time>2026-04-22T12:32:51.998Z</time></trkpt><trkpt lat="49.19407349018743" lon="2.465721217215497"><ele>54.6</ele><time>2026-04-22T12:32:53.998Z</time></trkpt><trkpt lat="49.19416483776212" lon="2.465805921687236"><ele>54.400000000000006</ele><time>2026-04-22T12:32:55.998Z</time></trkpt><trkpt lat="49.19418586377273" lon="2.4659787623052987"><ele>54.2</ele><time>2026-04-22T12:32:57.998Z</time></trkpt><trkpt lat="49.19418640775642" lon="2.466140669778349"><ele>54.0</ele><time>2026-04-22T12:32:59.998Z</time></trkpt><trkpt lat="49.19419585482965" lon="2.4662920763564964"><ele>54.0</ele><time>2026-04-22T12:33:01.998Z</time></trkpt><trkpt lat="49.19420227765541" lon="2.466436074368225"><ele>54.00000000000001</ele><time>2026-04-22T12:33:03.998Z</time></trkpt><trkpt lat="49.19420288060901" lon="2.4665823323788563"><ele>54.00000000000001</ele><time>2026-04-22T12:33:05.998Z</time></trkpt><trkpt lat="49.19420584236209" lon="2.46671931930061"><ele>54.0</ele><time>2026-04-22T12:33:07.998Z</time></trkpt><trkpt lat="49.19421610415554" lon="2.4668542504278186"><ele>54.0</ele><time>2026-04-22T12:33:09.998Z</time></trkpt><trkpt lat="49.194226339633026" lon="2.466988268058091"><ele>54.5</ele><time>2026-04-22T12:33:11.998Z</time></trkpt><trkpt lat="49.194223272374174" lon="2.467120184052952"><ele>55.0</ele><time>2026-04-22T12:33:13.997Z</time></trkpt><trkpt lat="49.1942254440164" lon="2.467253077160735"><ele>55.5</ele><time>2026-04-22T12:33:15.997Z</time></trkpt><trkpt lat="49.19422438066723" lon="2.4673839209182113"><ele>56.0</ele><time>2026-04-22T12:33:17.997Z</time></trkpt><trkpt lat="49.194226787650216" lon="2.467504841532564"><ele>56.5</ele><time>2026-04-22T12:33:19.997Z</time></trkpt><trkpt lat="49.19422629000121" lon="2.4676365951396857"><ele>57.0</ele><time>2026-04-22T12:33:21.997Z</time></trkpt><trkpt lat="49.19423580696744" lon="2.4677637732631426"><ele>57.0</ele><time>2026-04-22T12:33:23.997Z</time></trkpt><trkpt lat="49.19424765732715" lon="2.4678874139175337"><ele>57.0</ele><time>2026-04-22T12:33:25.997Z</time></trkpt><trkpt lat="49.194254416411965" lon="2.468012712009981"><ele>57.0</ele><time>2026-04-22T12:33:27.997Z</time></trkpt><trkpt lat="49.1942622247651" lon="2.4681348109048358"><ele>57.0</ele><time>2026-04-22T12:33:29.997Z</time></trkpt><trkpt lat="49.194268245799776" lon="2.4682588625365214"><ele>57.0</ele><time>2026-04-22T12:33:31.997Z</time></trkpt><trkpt lat="49.194263621133125" lon="2.468383584752234"><ele>57.0</ele><time>2026-04-22T12:33:33.997Z</time></trkpt><trkpt lat="49.19427226919786" lon="2.4685108926918415"><ele>57.0</ele><time>2026-04-22T12:33:35.997Z</time></trkpt><trkpt lat="49.19428075996915" lon="2.468638469122089"><ele>57.0</ele><time>2026-04-22T12:33:37.997Z</time></trkpt><trkpt lat="49.194285065412984" lon="2.468768812271262"><ele>57.0</ele><time>2026-04-22T12:33:39.997Z</time></trkpt><trkpt lat="49.19428814610998" lon="2.46889913833727"><ele>57.0</ele><time>2026-04-22T12:33:41.997Z</time></trkpt><trkpt lat="49.19429325731533" lon="2.4690292490299544"><ele>57.0</ele><time>2026-04-22T12:33:43.997Z</time></trkpt><trkpt lat="49.19429856609309" lon="2.4691582202626887"><ele>57.0</ele><time>2026-04-22T12:33:45.996Z</time></trkpt><trkpt lat="49.194303243886104" lon="2.4692880985915613"><ele>56.833333333333336</ele><time>2026-04-22T12:33:47.996Z</time></trkpt><trkpt lat="49.194309148509916" lon="2.4694158096941"><ele>56.66666666666667</ele><time>2026-04-22T12:33:50Z</time></trkpt><trkpt lat="49.194312458357246" lon="2.469546092470407"><ele>56.5</ele><time>2026-04-22T12:33:52Z</time></trkpt><trkpt lat="49.19431590561282" lon="2.469672836006641"><ele>56.333333333333336</ele><time>2026-04-22T12:33:54Z</time></trkpt><trkpt lat="49.19431554730328" lon="2.469806577134215"><ele>56.16666666666667</ele><time>2026-04-22T12:33:56Z</time></trkpt><trkpt lat="49.19431797178753" lon="2.4699446653023127"><ele>56.0</ele><time>2026-04-22T12:33:58Z</time></trkpt><trkpt lat="49.19432800546928" lon="2.4700845128653284"><ele>56.0</ele><time>2026-04-22T12:34:00Z</time></trkpt><trkpt lat="49.1943411157147" lon="2.470224635341573"><ele>55.99999999999999</ele><time>2026-04-22T12:34:02Z</time></trkpt><trkpt lat="49.19434455500842" lon="2.4703674456920144"><ele>55.99999999999999</ele><time>2026-04-22T12:34:04Z</time></trkpt><trkpt lat="49.19435011158451" lon="2.4705102675976436"><ele>56.0</ele><time>2026-04-22T12:34:06Z</time></trkpt><trkpt lat="49.19435308612347" lon="2.470653959353825"><ele>56.0</ele><time>2026-04-22T12:34:08Z</time></trkpt><trkpt lat="49.194358007385155" lon="2.470800788966584"><ele>56.0</ele><time>2026-04-22T12:34:10Z</time></trkpt><trkpt lat="49.194361854381974" lon="2.470948614801722"><ele>55.99999999999999</ele><time>2026-04-22T12:34:12Z</time></trkpt><trkpt lat="49.19436622374453" lon="2.4711004520654796"><ele>55.99999999999999</ele><time>2026-04-22T12:34:13.999Z</time></trkpt><trkpt lat="49.19436651179069" lon="2.4712396548889717"><ele>56.0</ele><time>2026-04-22T12:34:15.999Z</time></trkpt><trkpt lat="49.19437551009807" lon="2.4713948057760153"><ele>56.0</ele><time>2026-04-22T12:34:17.999Z</time></trkpt><trkpt lat="49.19438658595407" lon="2.4715457583482"><ele>56.0</ele><time>2026-04-22T12:34:19.999Z</time></trkpt><trkpt lat="49.19439686376665" lon="2.4716424032456263"><ele>56.0</ele><time>2026-04-22T12:34:21.999Z</time></trkpt><trkpt lat="49.19443923778266" lon="2.471716101717154"><ele>56.0</ele><time>2026-04-22T12:34:24.999Z</time></trkpt><trkpt lat="49.19443200807964" lon="2.471820906853917"><ele>56.0</ele><time>2026-04-22T12:34:26.999Z</time></trkpt><trkpt lat="49.19443403742618" lon="2.4719272916774306"><ele>56.0</ele><time>2026-04-22T12:34:28.999Z</time></trkpt><trkpt lat="49.19443311361594" lon="2.472045613731162"><ele>56.0</ele><time>2026-04-22T12:34:30.999Z</time></trkpt><trkpt lat="49.19443751660991" lon="2.472161975629974"><ele>56.0</ele><time>2026-04-22T12:34:32.999Z</time></trkpt><trkpt lat="49.19443709876786" lon="2.4722848586199926"><ele>56.00000000000001</ele><time>2026-04-22T12:34:34.999Z</time></trkpt><trkpt lat="49.19444024150461" lon="2.4724059196620436"><ele>56.0</ele><time>2026-04-22T12:34:36.999Z</time></trkpt><trkpt lat="49.19443788578544" lon="2.4725140558931673"><ele>56.0</ele><time>2026-04-22T12:34:38.999Z</time></trkpt><trkpt lat="49.19439249402585" lon="2.4726574285714005"><ele>56.0</ele><time>2026-04-22T12:34:41.999Z</time></trkpt><trkpt lat="49.19437936208892" lon="2.472777005147181"><ele>56.00000000000001</ele><time>2026-04-22T12:34:43.999Z</time></trkpt><trkpt lat="49.194392523352185" lon="2.47291227535624"><ele>56.0</ele><time>2026-04-22T12:34:45.998Z</time></trkpt><trkpt lat="49.194378853195815" lon="2.473060476132236"><ele>56.0</ele><time>2026-04-22T12:34:47.998Z</time></trkpt><trkpt lat="49.19438478695693" lon="2.473203265354332"><ele>55.99999999999999</ele><time>2026-04-22T12:34:49.998Z</time></trkpt><trkpt lat="49.19439086166967" lon="2.473349446265914"><ele>55.99999999999999</ele><time>2026-04-22T12:34:51.998Z</time></trkpt><trkpt lat="49.19439617732384" lon="2.4734971451094077"><ele>56.0</ele><time>2026-04-22T12:34:53.998Z</time></trkpt><trkpt lat="49.194401001614814" lon="2.4736490315353232"><ele>56.0</ele><time>2026-04-22T12:34:55.998Z</time></trkpt><trkpt lat="49.1944057441348" lon="2.47380052176901"><ele>56.16666666666667</ele><time>2026-04-22T12:34:57.998Z</time></trkpt><trkpt lat="49.19441026638684" lon="2.4739449758960834"><ele>56.333333333333336</ele><time>2026-04-22T12:34:59.998Z</time></trkpt><trkpt lat="49.194414665217984" lon="2.4740854877583343"><ele>56.5</ele><time>2026-04-22T12:35:01.998Z</time></trkpt><trkpt lat="49.19441883623543" lon="2.4742187224632675"><ele>56.66666666666667</ele><time>2026-04-22T12:35:03.998Z</time></trkpt><trkpt lat="49.19442305682306" lon="2.4743535406314727"><ele>56.833333333333336</ele><time>2026-04-22T12:35:05.998Z</time></trkpt><trkpt lat="49.194426336681175" lon="2.4744850768844766"><ele>57.0</ele><time>2026-04-22T12:35:07.998Z</time></trkpt><trkpt lat="49.19442949052648" lon="2.474613442014902"><ele>57.0</ele><time>2026-04-22T12:35:09.998Z</time></trkpt><trkpt lat="49.19443328453368" lon="2.474745355693389"><ele>57.0</ele><time>2026-04-22T12:35:11.998Z</time></trkpt><trkpt lat="49.19443883465306" lon="2.47487507002834"><ele>57.0</ele><time>2026-04-22T12:35:13.998Z</time></trkpt><trkpt lat="49.19444465282749" lon="2.4750037296151723"><ele>57.0</ele><time>2026-04-22T12:35:15.998Z</time></trkpt><trkpt lat="49.19444919976294" lon="2.475129667315772"><ele>57.0</ele><time>2026-04-22T12:35:17.997Z</time></trkpt><trkpt lat="49.194452851756196" lon="2.4752525334327755"><ele>57.0</ele><time>2026-04-22T12:35:19.997Z</time></trkpt><trkpt lat="49.194456052500534" lon="2.4753672355623855"><ele>56.57142857142857</ele><time>2026-04-22T12:35:21.997Z</time></trkpt><trkpt lat="49.19445910453208" lon="2.475476608344035"><ele>56.14285714285714</ele><time>2026-04-22T12:35:23.997Z</time></trkpt><trkpt lat="49.19446200728418" lon="2.475580631567145"><ele>55.71428571428571</ele><time>2026-04-22T12:35:25.997Z</time></trkpt><trkpt lat="49.19446483790355" lon="2.4756889179962953"><ele>55.285714285714285</ele><time>2026-04-22T12:35:27.997Z</time></trkpt><trkpt lat="49.194466958701184" lon="2.4757963718227627"><ele>54.857142857142854</ele><time>2026-04-22T12:35:29.997Z</time></trkpt><trkpt lat="49.19446706548192" lon="2.4758961934718804"><ele>54.42857142857143</ele><time>2026-04-22T12:35:31.997Z</time></trkpt><trkpt lat="49.19446541468673" lon="2.47599541792812"><ele>54.0</ele><time>2026-04-22T12:35:33.997Z</time></trkpt><trkpt lat="49.19446346637253" lon="2.4761029014570752"><ele>54.0</ele><time>2026-04-22T12:35:35.997Z</time></trkpt><trkpt lat="49.19446146583531" lon="2.476213265872071"><ele>54.0</ele><time>2026-04-22T12:35:37.997Z</time></trkpt><trkpt lat="49.19445376938903" lon="2.476322048522481"><ele>54.0</ele><time>2026-04-22T12:35:39.997Z</time></trkpt><trkpt lat="49.19444951729355" lon="2.4764286746608373"><ele>54.0</ele><time>2026-04-22T12:35:41.997Z</time></trkpt><trkpt lat="49.194446419267344" lon="2.4765283207994018"><ele>54.0</ele><time>2026-04-22T12:35:43.997Z</time></trkpt><trkpt lat="49.19444414799383" lon="2.4766594221167306"><ele>54.0</ele><time>2026-04-22T12:35:46.997Z</time></trkpt><trkpt lat="49.19444179887825" lon="2.476795016629188"><ele>53.857142857142854</ele><time>2026-04-22T12:35:49.996Z</time></trkpt><trkpt lat="49.19444006932391" lon="2.4768948490991884"><ele>53.71428571428571</ele><time>2026-04-22T12:35:51.996Z</time></trkpt><trkpt lat="49.19443864746373" lon="2.47699532815423"><ele>53.57142857142857</ele><time>2026-04-22T12:35:53.996Z</time></trkpt><trkpt lat="49.19443780007212" lon="2.4770928433588333"><ele>53.42857142857143</ele><time>2026-04-22T12:35:56Z</time></trkpt><trkpt lat="49.19443655315445" lon="2.4772363346811224"><ele>53.285714285714285</ele><time>2026-04-22T12:35:59Z</time></trkpt><trkpt lat="49.194435924784656" lon="2.4773334926659687"><ele>53.142857142857146</ele><time>2026-04-22T12:36:01Z</time></trkpt><trkpt lat="49.194436099213505" lon="2.4774382714688916"><ele>53.0</ele><time>2026-04-22T12:36:03Z</time></trkpt><trkpt lat="49.194439391275985" lon="2.4775706863961164"><ele>53.0</ele><time>2026-04-22T12:36:06Z</time></trkpt><trkpt lat="49.194442246156505" lon="2.477685517915644"><ele>53.0</ele><time>2026-04-22T12:36:09Z</time></trkpt><trkpt lat="49.19445360659627" lon="2.4777920023302205"><ele>53.0</ele><time>2026-04-22T12:36:12Z</time></trkpt><trkpt lat="49.19444634206104" lon="2.477688827252486"><ele>53.0</ele><time>2026-04-22T12:36:17.999Z</time></trkpt><trkpt lat="49.19443998722548" lon="2.477567063767616"><ele>53.0</ele><time>2026-04-22T12:36:20.999Z</time></trkpt><trkpt lat="49.19443618795534" lon="2.477441841050629"><ele>53.0</ele><time>2026-04-22T12:36:23.999Z</time></trkpt><trkpt lat="49.19443677900901" lon="2.477345036651981"><ele>53.0</ele><time>2026-04-22T12:36:26.999Z</time></trkpt><trkpt lat="49.19438073266121" lon="2.477299936851565"><ele>53.00000000000001</ele><time>2026-04-22T12:36:28.999Z</time></trkpt><trkpt lat="49.19425077555676" lon="2.4772970606128877"><ele>53.0</ele><time>2026-04-22T12:36:31.999Z</time></trkpt><trkpt lat="49.19417857817621" lon="2.477282447918281"><ele>53.0</ele><time>2026-04-22T12:36:33.999Z</time></trkpt><trkpt lat="49.194110235158654" lon="2.477290891906394"><ele>53.0</ele><time>2026-04-22T12:36:35.999Z</time></trkpt><trkpt lat="49.19403804535699" lon="2.4772991384666025"><ele>53.00000000000001</ele><time>2026-04-22T12:36:37.999Z</time></trkpt><trkpt lat="49.19396494412998" lon="2.477281969104851"><ele>53.0</ele><time>2026-04-22T12:36:39.999Z</time></trkpt><trkpt lat="49.193894912416134" lon="2.477247789204337"><ele>53.16666666666667</ele><time>2026-04-22T12:36:41.999Z</time></trkpt><trkpt lat="49.19382073738927" lon="2.4772067892208955"><ele>53.333333333333336</ele><time>2026-04-22T12:36:43.999Z</time></trkpt><trkpt lat="49.19374280055652" lon="2.4772665903576985"><ele>53.5</ele><time>2026-04-22T12:36:45.999Z</time></trkpt><trkpt lat="49.19366231643667" lon="2.4772933905739607"><ele>53.66666666666667</ele><time>2026-04-22T12:36:47.999Z</time></trkpt><trkpt lat="49.19357610811062" lon="2.477295596630257"><ele>53.833333333333336</ele><time>2026-04-22T12:36:49.998Z</time></trkpt><trkpt lat="49.1934942207275" lon="2.477332912448072"><ele>54.0</ele><time>2026-04-22T12:36:51.998Z</time></trkpt><trkpt lat="49.19344953113296" lon="2.4774581962888362"><ele>54.0</ele><time>2026-04-22T12:36:53.998Z</time></trkpt><trkpt lat="49.19343539192445" lon="2.4776023065423654"><ele>54.00000000000001</ele><time>2026-04-22T12:36:55.998Z</time></trkpt><trkpt lat="49.193419231388326" lon="2.4777660115532543"><ele>54.00000000000001</ele><time>2026-04-22T12:36:57.998Z</time></trkpt><trkpt lat="49.193428875800215" lon="2.4779200801431402"><ele>54.0</ele><time>2026-04-22T12:36:59.998Z</time></trkpt><trkpt lat="49.19342796420665" lon="2.478071637974855"><ele>54.0</ele><time>2026-04-22T12:37:01.998Z</time></trkpt><trkpt lat="49.19342819157788" lon="2.478215459560152"><ele>54.2</ele><time>2026-04-22T12:37:03.998Z</time></trkpt><trkpt lat="49.19342882661973" lon="2.4783671733284627"><ele>54.400000000000006</ele><time>2026-04-22T12:37:05.998Z</time></trkpt><trkpt lat="49.19342546136874" lon="2.4785122984946217"><ele>54.6</ele><time>2026-04-22T12:37:07.998Z</time></trkpt><trkpt lat="49.1934251054832" lon="2.478656873955905"><ele>54.8</ele><time>2026-04-22T12:37:09.998Z</time></trkpt><trkpt lat="49.19343218481007" lon="2.4788028445272485"><ele>55.0</ele><time>2026-04-22T12:37:11.998Z</time></trkpt><trkpt lat="49.19343750342252" lon="2.4789500107878313"><ele>55.2</ele><time>2026-04-22T12:37:13.998Z</time></trkpt><trkpt lat="49.19343972667838" lon="2.4791027509339822"><ele>55.4</ele><time>2026-04-22T12:37:15.998Z</time></trkpt><trkpt lat="49.193445605256066" lon="2.4792469880346677"><ele>55.599999999999994</ele><time>2026-04-22T12:37:17.998Z</time></trkpt><trkpt lat="49.19345027347723" lon="2.4793906160435633"><ele>55.8</ele><time>2026-04-22T12:37:19.998Z</time></trkpt><trkpt lat="49.19345857755473" lon="2.479537464199872"><ele>56.0</ele><time>2026-04-22T12:37:21.997Z</time></trkpt><trkpt lat="49.19347085541675" lon="2.479676873389944"><ele>55.50000000000001</ele><time>2026-04-22T12:37:23.997Z</time></trkpt><trkpt lat="49.19347638311074" lon="2.4798297516622907"><ele>55.0</ele><time>2026-04-22T12:37:25.997Z</time></trkpt><trkpt lat="49.19347716916549" lon="2.479973584545383"><ele>54.5</ele><time>2026-04-22T12:37:27.997Z</time></trkpt><trkpt lat="49.19347990489966" lon="2.4801090756500637"><ele>54.0</ele><time>2026-04-22T12:37:29.997Z</time></trkpt><trkpt lat="49.193488499500845" lon="2.480235168918144"><ele>53.50000000000001</ele><time>2026-04-22T12:37:31.997Z</time></trkpt><trkpt lat="49.19350525894374" lon="2.4803486335735805"><ele>53.0</ele><time>2026-04-22T12:37:33.997Z</time></trkpt><trkpt lat="49.19356404698103" lon="2.480428646844837"><ele>53.0</ele><time>2026-04-22T12:37:36.997Z</time></trkpt><trkpt lat="49.193590610278754" lon="2.4805301400571964"><ele>53.0</ele><time>2026-04-22T12:37:39.997Z</time></trkpt><trkpt lat="49.19360704487329" lon="2.480436531891"><ele>53.0</ele><time>2026-04-22T12:37:45.997Z</time></trkpt><trkpt lat="49.19366283415025" lon="2.4803558930815592"><ele>53.0</ele><time>2026-04-22T12:38:49.999Z</time></trkpt><trkpt lat="49.19370043847249" lon="2.4804522658462114"><ele>53.0</ele><time>2026-04-22T12:42:21.999Z</time></trkpt><trkpt lat="49.19375449917539" lon="2.4805069419670276"><ele>53.0</ele><time>2026-04-22T12:42:27Z</time></trkpt><trkpt lat="49.19382457149319" lon="2.4805411045527745"><ele>53.0</ele><time>2026-04-22T12:42:30.999Z</time></trkpt><trkpt lat="49.19389741057961" lon="2.4805536119310427"><ele>52.66666666666667</ele><time>2026-04-22T12:42:34.999Z</time></trkpt><trkpt lat="49.19382270166402" lon="2.480544054403248"><ele>52.333333333333336</ele><time>2026-04-22T12:55:26.999Z</time></trkpt><trkpt lat="49.19375289775625" lon="2.4805288373267955"><ele>52.0</ele><time>2026-04-22T12:55:29.999Z</time></trkpt><trkpt lat="49.193698003351244" lon="2.480587895540478"><ele>51.66666666666667</ele><time>2026-04-22T12:55:32.998Z</time></trkpt><trkpt lat="49.19363024747425" lon="2.480688142855932"><ele>51.333333333333336</ele><time>2026-04-22T12:55:35.998Z</time></trkpt><trkpt lat="49.19356467190586" lon="2.480780211898427"><ele>51.0</ele><time>2026-04-22T12:55:38.998Z</time></trkpt><trkpt lat="49.193524137231336" lon="2.4808707364834834"><ele>51.0</ele><time>2026-04-22T12:55:40.998Z</time></trkpt><trkpt lat="49.193470277968785" lon="2.4809707389864775"><ele>51.0</ele><time>2026-04-22T12:55:42.998Z</time></trkpt><trkpt lat="49.19340736018898" lon="2.4810800803347384"><ele>51.0</ele><time>2026-04-22T12:55:44.998Z</time></trkpt><trkpt lat="49.19334229699913" lon="2.481202719921208"><ele>51.0</ele><time>2026-04-22T12:55:46.998Z</time></trkpt><trkpt lat="49.19329248631928" lon="2.4813537888443946"><ele>51.0</ele><time>2026-04-22T12:55:48.998Z</time></trkpt><trkpt lat="49.193231790603804" lon="2.4814953885517923"><ele>50.0</ele><time>2026-04-22T12:55:50.998Z</time></trkpt><trkpt lat="49.19317103013993" lon="2.481637043572957"><ele>49.0</ele><time>2026-04-22T12:55:52.998Z</time></trkpt><trkpt lat="49.193110893067065" lon="2.481788410900257"><ele>48.0</ele><time>2026-04-22T12:55:54.998Z</time></trkpt><trkpt lat="49.1930388727192" lon="2.481927641994387"><ele>47.0</ele><time>2026-04-22T12:55:56.998Z</time></trkpt><trkpt lat="49.19295474587829" lon="2.482040536688072"><ele>46.400000000000006</ele><time>2026-04-22T12:55:58.998Z</time></trkpt><trkpt lat="49.19287244906276" lon="2.482148236735527"><ele>45.800000000000004</ele><time>2026-04-22T12:56:00.998Z</time></trkpt><trkpt lat="49.19277455227511" lon="2.482223683170653"><ele>45.2</ele><time>2026-04-22T12:56:02.998Z</time></trkpt><trkpt lat="49.19268482407064" lon="2.482300866840766"><ele>44.6</ele><time>2026-04-22T12:56:04.998Z</time></trkpt><trkpt lat="49.19260155806221" lon="2.4823838137232626"><ele>44.0</ele><time>2026-04-22T12:56:06.998Z</time></trkpt><trkpt lat="49.19251795759839" lon="2.482452851749749"><ele>44.0</ele><time>2026-04-22T12:56:08.998Z</time></trkpt><trkpt lat="49.19243015968626" lon="2.4825191801173867"><ele>44.0</ele><time>2026-04-22T12:56:10.998Z</time></trkpt><trkpt lat="49.19233522787341" lon="2.4825691831541463"><ele>44.0</ele><time>2026-04-22T12:56:12.998Z</time></trkpt><trkpt lat="49.19224524633137" lon="2.4826307807923884"><ele>44.0</ele><time>2026-04-22T12:56:14.997Z</time></trkpt><trkpt lat="49.19215995363639" lon="2.4827001688998425"><ele>44.0</ele><time>2026-04-22T12:56:16.997Z</time></trkpt><trkpt lat="49.19207317036167" lon="2.482761288004378"><ele>44.666666666666664</ele><time>2026-04-22T12:56:18.997Z</time></trkpt><trkpt lat="49.19198318551861" lon="2.4827929479833073"><ele>45.33333333333333</ele><time>2026-04-22T12:56:20.997Z</time></trkpt><trkpt lat="49.19190251414138" lon="2.4828464633457883"><ele>46.0</ele><time>2026-04-22T12:56:22.997Z</time></trkpt><trkpt lat="49.19182689987126" lon="2.482899991807477"><ele>46.666666666666664</ele><time>2026-04-22T12:56:24.997Z</time></trkpt><trkpt lat="49.19175619097848" lon="2.482951786237672"><ele>47.333333333333336</ele><time>2026-04-22T12:56:26.997Z</time></trkpt><trkpt lat="49.19168793955552" lon="2.483007741722085"><ele>48.0</ele><time>2026-04-22T12:56:28.997Z</time></trkpt><trkpt lat="49.19162745729765" lon="2.4830744070778046"><ele>47.99999999999999</ele><time>2026-04-22T12:56:30.997Z</time></trkpt><trkpt lat="49.19158284061124" lon="2.4831591769125803"><ele>48.0</ele><time>2026-04-22T12:56:32.997Z</time></trkpt><trkpt lat="49.1915631164149" lon="2.4832727187284482"><ele>48.0</ele><time>2026-04-22T12:56:34.997Z</time></trkpt><trkpt lat="49.19154228644658" lon="2.4833745624599697"><ele>48.0</ele><time>2026-04-22T12:56:36.997Z</time></trkpt><trkpt lat="49.191538500822325" lon="2.4834788050925707"><ele>48.0</ele><time>2026-04-22T12:56:38.997Z</time></trkpt><trkpt lat="49.19151956000227" lon="2.4835797962385353"><ele>47.99999999999999</ele><time>2026-04-22T12:56:40.997Z</time></trkpt><trkpt lat="49.19150915823753" lon="2.483697784605323"><ele>48.0</ele><time>2026-04-22T12:56:42.997Z</time></trkpt><trkpt lat="49.19151576546024" lon="2.483816014460288"><ele>48.666666666666664</ele><time>2026-04-22T12:56:44.997Z</time></trkpt><trkpt lat="49.191490215750584" lon="2.4839425765751844"><ele>49.33333333333333</ele><time>2026-04-22T12:56:46.997Z</time></trkpt><trkpt lat="49.191437221070444" lon="2.484013645946949"><ele>50.0</ele><time>2026-04-22T12:56:48.997Z</time></trkpt><trkpt lat="49.19137401582035" lon="2.483998313880861"><ele>50.666666666666664</ele><time>2026-04-22T12:56:50.997Z</time></trkpt><trkpt lat="49.19130513234505" lon="2.4841452215154027"><ele>51.33333333333333</ele><time>2026-04-22T12:56:53.999Z</time></trkpt><trkpt lat="49.19131655505085" lon="2.4842510575861825"><ele>52.0</ele><time>2026-04-22T12:56:54.999Z</time></trkpt><trkpt lat="49.19130878935936" lon="2.4840008858589786"><ele>52.0</ele><time>2026-04-22T12:56:56.999Z</time></trkpt><trkpt lat="49.19143698697507" lon="2.4844029901252775"><ele>52.0</ele><time>2026-04-22T12:56:58.999Z</time></trkpt><trkpt lat="49.19148992551575" lon="2.484470014783503"><ele>52.0</ele><time>2026-04-22T12:57:00.999Z</time></trkpt><trkpt lat="49.19151787228077" lon="2.484589669492001"><ele>52.0</ele><time>2026-04-22T12:57:03.999Z</time></trkpt><trkpt lat="49.19151294408888" lon="2.4847105596277683"><ele>50.99999999999999</ele><time>2026-04-22T12:57:06.999Z</time></trkpt><trkpt lat="49.19152540074803" lon="2.4848382459266185"><ele>50.0</ele><time>2026-04-22T12:57:08.999Z</time></trkpt><trkpt lat="49.191548319996876" lon="2.4849684047483214"><ele>49.0</ele><time>2026-04-22T12:57:10.999Z</time></trkpt><trkpt lat="49.1915955400612" lon="2.4850687436765426"><ele>48.0</ele><time>2026-04-22T12:57:12.999Z</time></trkpt><trkpt lat="49.191616294885854" lon="2.4851768565631227"><ele>47.0</ele><time>2026-04-22T12:57:14.999Z</time></trkpt><trkpt lat="49.19162675575232" lon="2.4853071059223364"><ele>46.0</ele><time>2026-04-22T12:57:16.999Z</time></trkpt><trkpt lat="49.19167044324397" lon="2.4854027494835718"><ele>46.0</ele><time>2026-04-22T12:57:19.999Z</time></trkpt><trkpt lat="49.19173052204683" lon="2.4854547563062126"><ele>46.0</ele><time>2026-04-22T12:57:22.999Z</time></trkpt><trkpt lat="49.19178682689077" lon="2.4855132672048663"><ele>46.0</ele><time>2026-04-22T12:57:48.998Z</time></trkpt><trkpt lat="49.1917231668457" lon="2.4855139806022697"><ele>46.0</ele><time>2026-04-22T13:04:16.999Z</time></trkpt><trkpt lat="49.19164571635719" lon="2.4854576136583697"><ele>46.0</ele><time>2026-04-22T13:04:41.998Z</time></trkpt><trkpt lat="49.19151730595323" lon="2.4851213555543032"><ele>47.0</ele><time>2026-04-22T13:04:43.998Z</time></trkpt><trkpt lat="49.19143444231085" lon="2.4851789877856176"><ele>48.0</ele><time>2026-04-22T13:04:45.998Z</time></trkpt><trkpt lat="49.19112138895246" lon="2.4862398315096796"><ele>48.857142857142854</ele><time>2026-04-22T13:05:08.997Z</time></trkpt><trkpt lat="49.191070346506" lon="2.486325092656797"><ele>49.714285714285715</ele><time>2026-04-22T13:05:11.997Z</time></trkpt><trkpt lat="49.19102143027638" lon="2.4863990966028156"><ele>50.57142857142857</ele><time>2026-04-22T13:05:14.997Z</time></trkpt><trkpt lat="49.19097496480569" lon="2.486481518957607"><ele>51.42857142857143</ele><time>2026-04-22T13:05:18Z</time></trkpt><trkpt lat="49.19092141625761" lon="2.486557258273618"><ele>52.285714285714285</ele><time>2026-04-22T13:05:21Z</time></trkpt><trkpt lat="49.19087024880152" lon="2.486639447203335"><ele>53.14285714285714</ele><time>2026-04-22T13:05:24Z</time></trkpt><trkpt lat="49.19081583519414" lon="2.486728059791448"><ele>54.0</ele><time>2026-04-22T13:05:27Z</time></trkpt><trkpt lat="49.19074914673301" lon="2.4868141903110774"><ele>54.0</ele><time>2026-04-22T13:05:30Z</time></trkpt><trkpt lat="49.19069590916401" lon="2.4869011576651268"><ele>54.0</ele><time>2026-04-22T13:05:33Z</time></trkpt><trkpt lat="49.19063351713049" lon="2.4870015832985084"><ele>54.0</ele><time>2026-04-22T13:05:37Z</time></trkpt><trkpt lat="49.19057083261491" lon="2.487082588502287"><ele>54.0</ele><time>2026-04-22T13:05:40Z</time></trkpt><trkpt lat="49.190519529312674" lon="2.4871863318076306"><ele>54.0</ele><time>2026-04-22T13:05:43Z</time></trkpt><trkpt lat="49.19045387043534" lon="2.487262617696679"><ele>54.0</ele><time>2026-04-22T13:05:45.999Z</time></trkpt><trkpt lat="49.19040214718365" lon="2.4873451248901293"><ele>54.285714285714285</ele><time>2026-04-22T13:05:48.999Z</time></trkpt><trkpt lat="49.190378697515975" lon="2.487440430888254"><ele>54.57142857142857</ele><time>2026-04-22T13:05:51.999Z</time></trkpt><trkpt lat="49.19032900935191" lon="2.4875581475934805"><ele>54.85714285714286</ele><time>2026-04-22T13:05:54.999Z</time></trkpt><trkpt lat="49.19028649608519" lon="2.4876337988413737"><ele>55.14285714285714</ele><time>2026-04-22T13:05:56.999Z</time></trkpt><trkpt lat="49.190243369990675" lon="2.487723382411662"><ele>55.42857142857143</ele><time>2026-04-22T13:05:58.999Z</time></trkpt><trkpt lat="49.19020378064999" lon="2.487821781639867"><ele>55.714285714285715</ele><time>2026-04-22T13:06:00.999Z</time></trkpt><trkpt lat="49.19016905309038" lon="2.4879128194181215"><ele>56.0</ele><time>2026-04-22T13:06:02.999Z</time></trkpt><trkpt lat="49.19013081753718" lon="2.4880142462225834"><ele>56.00000000000001</ele><time>2026-04-22T13:06:04.999Z</time></trkpt><trkpt lat="49.19008955178498" lon="2.4881156269996816"><ele>56.0</ele><time>2026-04-22T13:06:06.999Z</time></trkpt><trkpt lat="49.19004848465025" lon="2.4882195191478997"><ele>56.0</ele><time>2026-04-22T13:06:08.999Z</time></trkpt><trkpt lat="49.19001364172869" lon="2.488346485094764"><ele>56.0</ele><time>2026-04-22T13:06:10.999Z</time></trkpt><trkpt lat="49.18996916769652" lon="2.4884713021176124"><ele>56.00000000000001</ele><time>2026-04-22T13:06:12.999Z</time></trkpt><trkpt lat="49.189919332295254" lon="2.488613388934568"><ele>56.0</ele><time>2026-04-22T13:06:14.999Z</time></trkpt><trkpt lat="49.1898541699413" lon="2.488779117357718"><ele>55.199999999999996</ele><time>2026-04-22T13:06:16.999Z</time></trkpt><trkpt lat="49.18995883813987" lon="2.4890174741065194"><ele>54.39999999999999</ele><time>2026-04-22T13:06:17.999Z</time></trkpt><trkpt lat="49.18991440169985" lon="2.4891171216134924"><ele>53.6</ele><time>2026-04-22T13:06:18.999Z</time></trkpt><trkpt lat="49.189870090207606" lon="2.48921664277313"><ele>52.8</ele><time>2026-04-22T13:06:19.999Z</time></trkpt><trkpt lat="49.18982441695833" lon="2.4893242676384877"><ele>52.0</ele><time>2026-04-22T13:06:20.999Z</time></trkpt><trkpt lat="49.189783959271786" lon="2.48942125367887"><ele>52.0</ele><time>2026-04-22T13:06:21.998Z</time></trkpt><trkpt lat="49.18974180558667" lon="2.489528126511146"><ele>52.0</ele><time>2026-04-22T13:06:22.998Z</time></trkpt><trkpt lat="49.18970741492583" lon="2.4896240657555673"><ele>52.0</ele><time>2026-04-22T13:06:23.998Z</time></trkpt><trkpt lat="49.18967381321196" lon="2.4897214765073405"><ele>52.0</ele><time>2026-04-22T13:06:24.998Z</time></trkpt><trkpt lat="49.18962122987463" lon="2.4899061410030296"><ele>52.0</ele><time>2026-04-22T13:06:26.998Z</time></trkpt><trkpt lat="49.189598275709976" lon="2.4900604698911746"><ele>52.49999999999999</ele><time>2026-04-22T13:06:28.998Z</time></trkpt><trkpt lat="49.189611865456946" lon="2.490204791724871"><ele>53.0</ele><time>2026-04-22T13:06:32.998Z</time></trkpt><trkpt lat="49.189622141415235" lon="2.490318992610684"><ele>53.5</ele><time>2026-04-22T13:06:35.998Z</time></trkpt><trkpt lat="49.189660211899984" lon="2.490448455398305"><ele>54.0</ele><time>2026-04-22T13:06:41.998Z</time></trkpt><trkpt lat="49.18969059217662" lon="2.4905507788265426"><ele>54.49999999999999</ele><time>2026-04-22T13:06:45.998Z</time></trkpt><trkpt lat="49.189725911966555" lon="2.4906765241675757"><ele>55.0</ele><time>2026-04-22T13:06:48.998Z</time></trkpt><trkpt lat="49.189773960127795" lon="2.49083927115899"><ele>55.166666666666664</ele><time>2026-04-22T13:06:51.998Z</time></trkpt><trkpt lat="49.18979626783986" lon="2.4909308867273126"><ele>55.33333333333333</ele><time>2026-04-22T13:06:52.998Z</time></trkpt><trkpt lat="49.18981592190767" lon="2.4910346623951236"><ele>55.5</ele><time>2026-04-22T13:06:54.998Z</time></trkpt><trkpt lat="49.18983451751334" lon="2.4911909111802744"><ele>55.66666666666667</ele><time>2026-04-22T13:06:55.998Z</time></trkpt><trkpt lat="49.1898445957527" lon="2.491307833710516"><ele>55.833333333333336</ele><time>2026-04-22T13:06:57.998Z</time></trkpt><trkpt lat="49.189852927881596" lon="2.491417382021097"><ele>56.0</ele><time>2026-04-22T13:06:59.997Z</time></trkpt><trkpt lat="49.18986275328874" lon="2.491551257014292"><ele>56.333333333333336</ele><time>2026-04-22T13:07:02.997Z</time></trkpt><trkpt lat="49.18987187398061" lon="2.4916755300176803"><ele>56.66666666666667</ele><time>2026-04-22T13:07:05.997Z</time></trkpt><trkpt lat="49.18988098254084" lon="2.4917939908198132"><ele>57.0</ele><time>2026-04-22T13:07:08.997Z</time></trkpt><trkpt lat="49.18989260659686" lon="2.4919270715961055"><ele>57.33333333333333</ele><time>2026-04-22T13:07:11.997Z</time></trkpt><trkpt lat="49.18990284805164" lon="2.492044323502249"><ele>57.666666666666664</ele><time>2026-04-22T13:07:14.997Z</time></trkpt><trkpt lat="49.189912019801945" lon="2.4921493282287237"><ele>58.0</ele><time>2026-04-22T13:07:16.997Z</time></trkpt><trkpt lat="49.18992098958049" lon="2.492252021179779"><ele>57.99999999999999</ele><time>2026-04-22T13:07:18.997Z</time></trkpt><trkpt lat="49.18993006407405" lon="2.4923559127457056"><ele>58.0</ele><time>2026-04-22T13:07:20.997Z</time></trkpt><trkpt lat="49.18993962615067" lon="2.4924653864185826"><ele>58.0</ele><time>2026-04-22T13:07:23Z</time></trkpt><trkpt lat="49.18995301128378" lon="2.4926186295541934"><ele>58.0</ele><time>2026-04-22T13:07:26Z</time></trkpt><trkpt lat="49.18996179231317" lon="2.4927191610702972"><ele>57.99999999999999</ele><time>2026-04-22T13:07:28Z</time></trkpt><trkpt lat="49.18997072526823" lon="2.492821432347834"><ele>58.0</ele><time>2026-04-22T13:07:30Z</time></trkpt><trkpt lat="49.18998463886384" lon="2.492969695947883"><ele>57.99999999999999</ele><time>2026-04-22T13:07:33Z</time></trkpt><trkpt lat="49.18999395735745" lon="2.4930666969596764"><ele>58.0</ele><time>2026-04-22T13:07:35Z</time></trkpt><trkpt lat="49.19000786750942" lon="2.493201976927215"><ele>58.0</ele><time>2026-04-22T13:07:38Z</time></trkpt><trkpt lat="49.18995867409371" lon="2.493320683372542"><ele>58.0</ele><time>2026-04-22T13:07:40Z</time></trkpt><trkpt lat="49.189956083309184" lon="2.4934379431064855"><ele>57.99999999999999</ele><time>2026-04-22T13:07:42Z</time></trkpt><trkpt lat="49.18999804619746" lon="2.493525779188934"><ele>58.0</ele><time>2026-04-22T13:07:44Z</time></trkpt><trkpt lat="49.190037122487574" lon="2.4936203320496237"><ele>58.0</ele><time>2026-04-22T13:07:46Z</time></trkpt><trkpt lat="49.1900618775964" lon="2.4937240485360763"><ele>58.0</ele><time>2026-04-22T13:07:48Z</time></trkpt><trkpt lat="49.1895285270247" lon="2.493956630078649"><ele>58.28571428571429</ele><time>2026-04-22T13:07:50Z</time></trkpt><trkpt lat="49.189535959192746" lon="2.494058627218348"><ele>58.57142857142857</ele><time>2026-04-22T13:07:51.999Z</time></trkpt><trkpt lat="49.18954184142744" lon="2.4941677018331636"><ele>58.85714285714286</ele><time>2026-04-22T13:07:53.999Z</time></trkpt><trkpt lat="49.1895393044395" lon="2.494278703550495"><ele>59.142857142857146</ele><time>2026-04-22T13:07:55.999Z</time></trkpt><trkpt lat="49.18953079692303" lon="2.4943910495599817"><ele>59.42857142857143</ele><time>2026-04-22T13:07:57.999Z</time></trkpt><trkpt lat="49.1895208498421" lon="2.494501089512722"><ele>59.714285714285715</ele><time>2026-04-22T13:07:59.999Z</time></trkpt><trkpt lat="49.189513409696055" lon="2.4946145749282973"><ele>60.0</ele><time>2026-04-22T13:08:01.999Z</time></trkpt><trkpt lat="49.189510759063594" lon="2.494720817323324"><ele>60.0</ele><time>2026-04-22T13:08:03.999Z</time></trkpt><trkpt lat="49.189498259512696" lon="2.49482730324769"><ele>60.0</ele><time>2026-04-22T13:08:05.999Z</time></trkpt><trkpt lat="49.18949238769768" lon="2.4949306909064566"><ele>60.0</ele><time>2026-04-22T13:08:07.999Z</time></trkpt><trkpt lat="49.18948130331902" lon="2.495042209849299"><ele>60.0</ele><time>2026-04-22T13:08:09.999Z</time></trkpt><trkpt lat="49.18947290750364" lon="2.495157756664422"><ele>60.0</ele><time>2026-04-22T13:08:11.999Z</time></trkpt><trkpt lat="49.18946467068667" lon="2.4952772368156966"><ele>60.0</ele><time>2026-04-22T13:08:13.999Z</time></trkpt><trkpt lat="49.189456514230635" lon="2.4953996397648117"><ele>60.0</ele><time>2026-04-22T13:08:15.999Z</time></trkpt><trkpt lat="49.18945043299586" lon="2.495517135316365"><ele>60.0</ele><time>2026-04-22T13:08:17.999Z</time></trkpt><trkpt lat="49.189439147653566" lon="2.4956374118081692"><ele>60.0</ele><time>2026-04-22T13:08:19.999Z</time></trkpt><trkpt lat="49.18943386084074" lon="2.495773136817805"><ele>60.0</ele><time>2026-04-22T13:08:21.999Z</time></trkpt><trkpt lat="49.18943000516859" lon="2.495891407835125"><ele>60.0</ele><time>2026-04-22T13:08:23.999Z</time></trkpt><trkpt lat="49.18941601351353" lon="2.496021147918382"><ele>60.0</ele><time>2026-04-22T13:08:25.998Z</time></trkpt><trkpt lat="49.18941003293594" lon="2.496160367705505"><ele>60.0</ele><time>2026-04-22T13:08:27.998Z</time></trkpt><trkpt lat="49.18940235930747" lon="2.49630116388853"><ele>60.166666666666664</ele><time>2026-04-22T13:08:29.998Z</time></trkpt><trkpt lat="49.18939401588859" lon="2.4964376307019176"><ele>60.33333333333333</ele><time>2026-04-22T13:08:31.998Z</time></trkpt><trkpt lat="49.18938365892199" lon="2.4965698216927907"><ele>60.5</ele><time>2026-04-22T13:08:33.998Z</time></trkpt><trkpt lat="49.18937923254166" lon="2.496698302405922"><ele>60.666666666666664</ele><time>2026-04-22T13:08:35.998Z</time></trkpt><trkpt lat="49.18937169736752" lon="2.4968253061257104"><ele>60.83333333333333</ele><time>2026-04-22T13:08:37.998Z</time></trkpt><trkpt lat="49.189363713459315" lon="2.4969561437365306"><ele>61.0</ele><time>2026-04-22T13:08:39.998Z</time></trkpt><trkpt lat="49.189357435811615" lon="2.497088527271544"><ele>61.666666666666664</ele><time>2026-04-22T13:08:41.998Z</time></trkpt><trkpt lat="49.18935674534773" lon="2.497221354678516"><ele>62.33333333333333</ele><time>2026-04-22T13:08:43.998Z</time></trkpt><trkpt lat="49.18934801605578" lon="2.4973475557119063"><ele>63.0</ele><time>2026-04-22T13:08:45.998Z</time></trkpt><trkpt lat="49.18933759916559" lon="2.49745267170236"><ele>63.66666666666667</ele><time>2026-04-22T13:08:47.998Z</time></trkpt><trkpt lat="49.18934375338351" lon="2.4976075193272997"><ele>64.33333333333334</ele><time>2026-04-22T13:08:49.998Z</time></trkpt><trkpt lat="49.189369683782566" lon="2.497737926957703"><ele>65.0</ele><time>2026-04-22T13:08:51.998Z</time></trkpt><trkpt lat="49.18940196678815" lon="2.49786626021023"><ele>64.5</ele><time>2026-04-22T13:08:53.998Z</time></trkpt><trkpt lat="49.18942817849339" lon="2.4979912252907654"><ele>64.0</ele><time>2026-04-22T13:08:55.998Z</time></trkpt><trkpt lat="49.18944999726691" lon="2.4981074149977514"><ele>63.5</ele><time>2026-04-22T13:08:57.998Z</time></trkpt><trkpt lat="49.18947763001761" lon="2.4982392267467946"><ele>63.0</ele><time>2026-04-22T13:08:59.998Z</time></trkpt><trkpt lat="49.18950569777573" lon="2.49836944021255"><ele>62.50000000000001</ele><time>2026-04-22T13:09:01.998Z</time></trkpt><trkpt lat="49.18953147856879" lon="2.4984931074085583"><ele>62.0</ele><time>2026-04-22T13:09:03.997Z</time></trkpt><trkpt lat="49.18956175545401" lon="2.4986249709322528"><ele>61.833333333333336</ele><time>2026-04-22T13:09:05.997Z</time></trkpt><trkpt lat="49.189589482932796" lon="2.49875313982912"><ele>61.66666666666667</ele><time>2026-04-22T13:09:07.997Z</time></trkpt><trkpt lat="49.18961507726424" lon="2.498883551481338"><ele>61.5</ele><time>2026-04-22T13:09:09.997Z</time></trkpt><trkpt lat="49.18964639458926" lon="2.499005297136111"><ele>61.33333333333333</ele><time>2026-04-22T13:09:11.997Z</time></trkpt><trkpt lat="49.1896691418765" lon="2.4991240790183267"><ele>61.166666666666664</ele><time>2026-04-22T13:09:13.997Z</time></trkpt><trkpt lat="49.189697402655334" lon="2.499250574347619"><ele>61.0</ele><time>2026-04-22T13:09:15.997Z</time></trkpt><trkpt lat="49.189721175807726" lon="2.4993757708977884"><ele>60.99999999999999</ele><time>2026-04-22T13:09:17.997Z</time></trkpt><trkpt lat="49.18975010952183" lon="2.4995046931016422"><ele>61.0</ele><time>2026-04-22T13:09:19.997Z</time></trkpt><trkpt lat="49.189777334351064" lon="2.4996303951776278"><ele>61.0</ele><time>2026-04-22T13:09:21.997Z</time></trkpt><trkpt lat="49.18980433250341" lon="2.4997552780220906"><ele>61.0</ele><time>2026-04-22T13:09:23.997Z</time></trkpt><trkpt lat="49.18983283493963" lon="2.499878377565126"><ele>60.99999999999999</ele><time>2026-04-22T13:09:25.997Z</time></trkpt><trkpt lat="49.18985954260252" lon="2.5000027952077732"><ele>61.0</ele><time>2026-04-22T13:09:27.997Z</time></trkpt><trkpt lat="49.18988325016696" lon="2.500126273261686"><ele>61.33333333333333</ele><time>2026-04-22T13:09:30Z</time></trkpt><trkpt lat="49.18991031664616" lon="2.500255980033022"><ele>61.666666666666664</ele><time>2026-04-22T13:09:32Z</time></trkpt><trkpt lat="49.18993555120334" lon="2.5003838243392362"><ele>62.0</ele><time>2026-04-22T13:09:34Z</time></trkpt><trkpt lat="49.18996486139428" lon="2.5005115528695763"><ele>62.33333333333333</ele><time>2026-04-22T13:09:36Z</time></trkpt><trkpt lat="49.18999339693225" lon="2.500642279100971"><ele>62.666666666666664</ele><time>2026-04-22T13:09:38Z</time></trkpt><trkpt lat="49.19001780616783" lon="2.500778612929973"><ele>63.0</ele><time>2026-04-22T13:09:40Z</time></trkpt><trkpt lat="49.190047740274316" lon="2.500915875224765"><ele>63.2</ele><time>2026-04-22T13:09:42Z</time></trkpt><trkpt lat="49.190087323274106" lon="2.5010390348452556"><ele>63.4</ele><time>2026-04-22T13:09:44Z</time></trkpt><trkpt lat="49.190126720654234" lon="2.50116650177777"><ele>63.60000000000001</ele><time>2026-04-22T13:09:46Z</time></trkpt><trkpt lat="49.19015194687205" lon="2.501300196907955"><ele>63.800000000000004</ele><time>2026-04-22T13:09:47.999Z</time></trkpt><trkpt lat="49.190179982364775" lon="2.5014399088932335"><ele>64.0</ele><time>2026-04-22T13:09:49.999Z</time></trkpt><trkpt lat="49.190208020656016" lon="2.5015806113921455"><ele>64.0</ele><time>2026-04-22T13:09:51.999Z</time></trkpt><trkpt lat="49.19023249543822" lon="2.501717957385647"><ele>64.0</ele><time>2026-04-22T13:09:53.999Z</time></trkpt><trkpt lat="49.19026263755291" lon="2.501868696374121"><ele>64.0</ele><time>2026-04-22T13:09:55.999Z</time></trkpt><trkpt lat="49.19028922890615" lon="2.50200233704306"><ele>64.0</ele><time>2026-04-22T13:09:57.998Z</time></trkpt><trkpt lat="49.19032141490004" lon="2.502138933526608"><ele>64.0</ele><time>2026-04-22T13:09:59.998Z</time></trkpt><trkpt lat="49.190351112613016" lon="2.5022949871003934"><ele>63.6</ele><time>2026-04-22T13:10:01.998Z</time></trkpt><trkpt lat="49.19039217256621" lon="2.502454777838824"><ele>63.2</ele><time>2026-04-22T13:10:03.998Z</time></trkpt><trkpt lat="49.19042500783803" lon="2.5026133772113095"><ele>62.800000000000004</ele><time>2026-04-22T13:10:05.998Z</time></trkpt><trkpt lat="49.190461701784734" lon="2.5027766697643754"><ele>62.400000000000006</ele><time>2026-04-22T13:10:07.998Z</time></trkpt><trkpt lat="49.190496033011506" lon="2.502942454342815"><ele>62.0</ele><time>2026-04-22T13:10:09.998Z</time></trkpt><trkpt lat="49.19053386089638" lon="2.503105717888318"><ele>61.75</ele><time>2026-04-22T13:10:11.998Z</time></trkpt><trkpt lat="49.190567178449726" lon="2.5032703656959674"><ele>61.5</ele><time>2026-04-22T13:10:13.997Z</time></trkpt><trkpt lat="49.19062042240352" lon="2.5034196744844235"><ele>61.25</ele><time>2026-04-22T13:10:15.997Z</time></trkpt><trkpt lat="49.190688693474826" lon="2.503557525137358"><ele>61.0</ele><time>2026-04-22T13:10:17.997Z</time></trkpt><trkpt lat="49.190751661572634" lon="2.503706507231584"><ele>60.75</ele><time>2026-04-22T13:10:19.997Z</time></trkpt><trkpt lat="49.19081628005771" lon="2.503863494405026"><ele>60.5</ele><time>2026-04-22T13:10:21.997Z</time></trkpt><trkpt lat="49.19088126975894" lon="2.504009533800879"><ele>60.25</ele><time>2026-04-22T13:10:23.997Z</time></trkpt><trkpt lat="49.1909461417215" lon="2.504161960477762"><ele>60.0</ele><time>2026-04-22T13:10:25.997Z</time></trkpt><trkpt lat="49.191005335813074" lon="2.504308929278413"><ele>60.0</ele><time>2026-04-22T13:10:27.997Z</time></trkpt><trkpt lat="49.1910696888698" lon="2.504457018162442"><ele>60.0</ele><time>2026-04-22T13:10:29.997Z</time></trkpt><trkpt lat="49.19113549242869" lon="2.5046028105737363"><ele>60.0</ele><time>2026-04-22T13:10:31.997Z</time></trkpt><trkpt lat="49.19119314210914" lon="2.5047513317933285"><ele>60.0</ele><time>2026-04-22T13:10:33.997Z</time></trkpt><trkpt lat="49.19125650883387" lon="2.504896694155837"><ele>60.2</ele><time>2026-04-22T13:10:35.997Z</time></trkpt><trkpt lat="49.19131982143146" lon="2.505039040751402"><ele>60.4</ele><time>2026-04-22T13:10:37.997Z</time></trkpt><trkpt lat="49.19135338703656" lon="2.50512468000566"><ele>60.599999999999994</ele><time>2026-04-22T13:10:38.997Z</time></trkpt><trkpt lat="49.19139283485248" lon="2.505201086757405"><ele>60.8</ele><time>2026-04-22T13:10:39.996Z</time></trkpt><trkpt lat="49.19145596182522" lon="2.5053530601833494"><ele>61.0</ele><time>2026-04-22T13:10:41.996Z</time></trkpt><trkpt lat="49.191516369650934" lon="2.5055028811683457"><ele>60.4</ele><time>2026-04-22T13:10:43.996Z</time></trkpt><trkpt lat="49.19158328592874" lon="2.505648485593772"><ele>59.8</ele><time>2026-04-22T13:10:45.996Z</time></trkpt><trkpt lat="49.191646509225414" lon="2.5057920264877507"><ele>59.199999999999996</ele><time>2026-04-22T13:10:47.996Z</time></trkpt><trkpt lat="49.19170393062353" lon="2.5059335294528604"><ele>58.599999999999994</ele><time>2026-04-22T13:10:49.996Z</time></trkpt><trkpt lat="49.19176244812617" lon="2.5060737385628467"><ele>58.0</ele><time>2026-04-22T13:10:51.996Z</time></trkpt><trkpt lat="49.19181431179143" lon="2.506211011597198"><ele>57.599999999999994</ele><time>2026-04-22T13:10:53.996Z</time></trkpt><trkpt lat="49.19187639871261" lon="2.506351931684857"><ele>57.199999999999996</ele><time>2026-04-22T13:10:55.996Z</time></trkpt><trkpt lat="49.19193566656135" lon="2.506490913959034"><ele>56.8</ele><time>2026-04-22T13:10:57.996Z</time></trkpt><trkpt lat="49.19198978776936" lon="2.5066266713540575"><ele>56.4</ele><time>2026-04-22T13:10:59.996Z</time></trkpt><trkpt lat="49.192053983866415" lon="2.5067365119280662"><ele>56.0</ele><time>2026-04-22T13:11:01.996Z</time></trkpt><trkpt lat="49.19211093879588" lon="2.506843253431158"><ele>56.0</ele><time>2026-04-22T13:11:03.996Z</time></trkpt><trkpt lat="49.19206900766322" lon="2.5069669384120856"><ele>55.99999999999999</ele><time>2026-04-22T13:11:05.996Z</time></trkpt><trkpt lat="49.19205588443423" lon="2.507088489659371"><ele>55.99999999999999</ele><time>2026-04-22T13:11:07.996Z</time></trkpt><trkpt lat="49.19204229805671" lon="2.5072212442037434"><ele>56.0</ele><time>2026-04-22T13:11:09.996Z</time></trkpt><trkpt lat="49.19203009045726" lon="2.507340524285928"><ele>56.0</ele><time>2026-04-22T13:11:11.996Z</time></trkpt><trkpt lat="49.19221601210165" lon="2.507483127691832"><ele>55.333333333333336</ele><time>2026-04-22T13:11:13.995Z</time></trkpt><trkpt lat="49.19227902322074" lon="2.50757330510366"><ele>54.66666666666667</ele><time>2026-04-22T13:11:15.995Z</time></trkpt><trkpt lat="49.19234518915984" lon="2.507664994273144"><ele>54.0</ele><time>2026-04-22T13:11:17.995Z</time></trkpt><trkpt lat="49.192407519498516" lon="2.5077629213920196"><ele>53.33333333333333</ele><time>2026-04-22T13:11:19.995Z</time></trkpt><trkpt lat="49.19247547189535" lon="2.5078403255268724"><ele>52.666666666666664</ele><time>2026-04-22T13:11:21.995Z</time></trkpt><trkpt lat="49.19253931903709" lon="2.5079081405598997"><ele>52.0</ele><time>2026-04-22T13:11:23.995Z</time></trkpt><trkpt lat="49.192594298052214" lon="2.5079987533195203"><ele>51.57142857142857</ele><time>2026-04-22T13:11:25.995Z</time></trkpt><trkpt lat="49.19265107840218" lon="2.508073406592004"><ele>51.142857142857146</ele><time>2026-04-22T13:11:27.995Z</time></trkpt><trkpt lat="49.192705343707374" lon="2.508149886322469"><ele>50.714285714285715</ele><time>2026-04-22T13:11:29.995Z</time></trkpt><trkpt lat="49.19275322667888" lon="2.508217368403841"><ele>50.285714285714285</ele><time>2026-04-22T13:11:31.995Z</time></trkpt><trkpt lat="49.19280437242477" lon="2.5082894484787555"><ele>49.85714285714286</ele><time>2026-04-22T13:11:33.995Z</time></trkpt><trkpt lat="49.19288355527408" lon="2.50831174822158"><ele>49.42857142857143</ele><time>2026-04-22T13:11:35.998Z</time></trkpt><trkpt lat="49.19293887052291" lon="2.5083818593643175"><ele>49.0</ele><time>2026-04-22T13:11:37.999Z</time></trkpt><trkpt lat="49.19299137524868" lon="2.5084575764359633"><ele>49.0</ele><time>2026-04-22T13:11:39.999Z</time></trkpt><trkpt lat="49.19304107686465" lon="2.5085268368219062"><ele>49.0</ele><time>2026-04-22T13:11:41.999Z</time></trkpt><trkpt lat="49.19309528296424" lon="2.508588552633155"><ele>49.0</ele><time>2026-04-22T13:11:43.999Z</time></trkpt><trkpt lat="49.19314484064215" lon="2.50865714591351"><ele>49.0</ele><time>2026-04-22T13:11:45.999Z</time></trkpt><trkpt lat="49.193197173340586" lon="2.5087214775446127"><ele>49.0</ele><time>2026-04-22T13:11:47.999Z</time></trkpt><trkpt lat="49.1932545506745" lon="2.5087855905607594"><ele>49.0</ele><time>2026-04-22T13:11:49.999Z</time></trkpt><trkpt lat="49.193313182204584" lon="2.5088380740794434"><ele>49.0</ele><time>2026-04-22T13:11:51.999Z</time></trkpt><trkpt lat="49.19336761238573" lon="2.5089050005413704"><ele>49.142857142857146</ele><time>2026-04-22T13:11:53.999Z</time></trkpt><trkpt lat="49.193423367416706" lon="2.508971228576743"><ele>49.285714285714285</ele><time>2026-04-22T13:11:55.999Z</time></trkpt><trkpt lat="49.19347479921221" lon="2.5090493172245525"><ele>49.42857142857143</ele><time>2026-04-22T13:11:57.999Z</time></trkpt><trkpt lat="49.1935183483284" lon="2.509142607643095"><ele>49.57142857142857</ele><time>2026-04-22T13:11:59.999Z</time></trkpt><trkpt lat="49.19355836827018" lon="2.5092338506417233"><ele>49.714285714285715</ele><time>2026-04-22T13:12:01.999Z</time></trkpt><trkpt lat="49.193602334473155" lon="2.5093261959174438"><ele>49.85714285714286</ele><time>2026-04-22T13:12:03.999Z</time></trkpt><trkpt lat="49.19364178696464" lon="2.509415607535449"><ele>50.0</ele><time>2026-04-22T13:12:05.999Z</time></trkpt><trkpt lat="49.19366173189373" lon="2.5095116127000296"><ele>50.142857142857146</ele><time>2026-04-22T13:12:07.999Z</time></trkpt><trkpt lat="49.193690149171466" lon="2.5096030974733243"><ele>50.285714285714285</ele><time>2026-04-22T13:12:09.999Z</time></trkpt><trkpt lat="49.19371537220382" lon="2.5097038299619285"><ele>50.42857142857143</ele><time>2026-04-22T13:12:11.999Z</time></trkpt><trkpt lat="49.1937376323169" lon="2.509808517239451"><ele>50.57142857142857</ele><time>2026-04-22T13:12:13.999Z</time></trkpt><trkpt lat="49.19377391775825" lon="2.509909906591783"><ele>50.714285714285715</ele><time>2026-04-22T13:12:15.999Z</time></trkpt><trkpt lat="49.193774798776914" lon="2.5100243551100867"><ele>50.85714285714286</ele><time>2026-04-22T13:12:17.999Z</time></trkpt><trkpt lat="49.19378561807385" lon="2.5101331110949445"><ele>51.0</ele><time>2026-04-22T13:12:19.999Z</time></trkpt><trkpt lat="49.19378946545241" lon="2.51024097266906"><ele>51.0</ele><time>2026-04-22T13:12:21.999Z</time></trkpt><trkpt lat="49.193800318037646" lon="2.510353962401924"><ele>51.0</ele><time>2026-04-22T13:12:23.999Z</time></trkpt><trkpt lat="49.193804238224814" lon="2.5104677228201173"><ele>51.0</ele><time>2026-04-22T13:12:25.999Z</time></trkpt><trkpt lat="49.1937870621574" lon="2.5105795063873084"><ele>51.0</ele><time>2026-04-22T13:12:27.999Z</time></trkpt><trkpt lat="49.193785965453735" lon="2.5106961438482878"><ele>51.0</ele><time>2026-04-22T13:12:29.999Z</time></trkpt><trkpt lat="49.19378596545394" lon="2.5108116933534164"><ele>51.0</ele><time>2026-04-22T13:12:31.999Z</time></trkpt><trkpt lat="49.19378636046094" lon="2.5109288337877866"><ele>51.0</ele><time>2026-04-22T13:12:33.999Z</time></trkpt><trkpt lat="49.19380459243115" lon="2.511044206105201"><ele>51.0</ele><time>2026-04-22T13:12:35.999Z</time></trkpt><trkpt lat="49.193803390679776" lon="2.511162931592435"><ele>51.0</ele><time>2026-04-22T13:12:37.998Z</time></trkpt><trkpt lat="49.19380621994181" lon="2.5112775676062524"><ele>51.0</ele><time>2026-04-22T13:12:39.998Z</time></trkpt><trkpt lat="49.19381328802555" lon="2.5113916841308"><ele>51.0</ele><time>2026-04-22T13:12:41.998Z</time></trkpt><trkpt lat="49.19382197935416" lon="2.5115108813707923"><ele>51.0</ele><time>2026-04-22T13:12:43.998Z</time></trkpt><trkpt lat="49.193833048520055" lon="2.5116264158604626"><ele>51.0</ele><time>2026-04-22T13:12:45.998Z</time></trkpt><trkpt lat="49.19382927649738" lon="2.5117526654130145"><ele>51.0</ele><time>2026-04-22T13:12:47.998Z</time></trkpt><trkpt lat="49.19383569065265" lon="2.511881781964933"><ele>51.0</ele><time>2026-04-22T13:12:49.998Z</time></trkpt><trkpt lat="49.19382146709375" lon="2.5120167797082797"><ele>51.0</ele><time>2026-04-22T13:12:51.998Z</time></trkpt><trkpt lat="49.19383392637581" lon="2.512153798186368"><ele>51.0</ele><time>2026-04-22T13:12:53.998Z</time></trkpt><trkpt lat="49.19383535928065" lon="2.512292004407532"><ele>51.0</ele><time>2026-04-22T13:12:55.998Z</time></trkpt><trkpt lat="49.19383534987687" lon="2.5124238901401377"><ele>51.0</ele><time>2026-04-22T13:12:57.998Z</time></trkpt><trkpt lat="49.19384002020125" lon="2.5125508896588102"><ele>51.0</ele><time>2026-04-22T13:12:59.998Z</time></trkpt><trkpt lat="49.193839032841204" lon="2.5126685499513415"><ele>51.0</ele><time>2026-04-22T13:13:01.998Z</time></trkpt><trkpt lat="49.193840798377984" lon="2.512791397267059"><ele>51.0</ele><time>2026-04-22T13:13:03.998Z</time></trkpt><trkpt lat="49.19384158649006" lon="2.5129059979938244"><ele>51.0</ele><time>2026-04-22T13:13:06.998Z</time></trkpt><trkpt lat="49.19383897677772" lon="2.5130085778729843"><ele>51.0</ele><time>2026-04-22T13:13:10.998Z</time></trkpt><trkpt lat="49.193970516867076" lon="2.512969176891797"><ele>50.833333333333336</ele><time>2026-04-22T13:13:12.997Z</time></trkpt><trkpt lat="49.194037012688284" lon="2.5130230721708027"><ele>50.66666666666667</ele><time>2026-04-22T13:13:14.997Z</time></trkpt><trkpt lat="49.1941090334426" lon="2.513079852091185"><ele>50.5</ele><time>2026-04-22T13:13:16.997Z</time></trkpt><trkpt lat="49.19416788864304" lon="2.5131242696561333"><ele>50.333333333333336</ele><time>2026-04-22T13:13:18.997Z</time></trkpt><trkpt lat="49.19423123129167" lon="2.51318434218685"><ele>50.16666666666667</ele><time>2026-04-22T13:13:21.997Z</time></trkpt><trkpt lat="49.194209072923314" lon="2.5133432999455216"><ele>50.0</ele><time>2026-04-22T13:13:22.997Z</time></trkpt><trkpt lat="49.19421254617832" lon="2.5134618377359006"><ele>50.0</ele><time>2026-04-22T13:13:24.997Z</time></trkpt><trkpt lat="49.194204280429155" lon="2.513587791298405"><ele>50.0</ele><time>2026-04-22T13:13:26.997Z</time></trkpt><trkpt lat="49.194186982328816" lon="2.5137164018852536"><ele>50.0</ele><time>2026-04-22T13:13:28.997Z</time></trkpt><trkpt lat="49.19417628403335" lon="2.513856244726376"><ele>50.0</ele><time>2026-04-22T13:13:30.997Z</time></trkpt><trkpt lat="49.194143057548224" lon="2.513997567800319"><ele>50.0</ele><time>2026-04-22T13:13:32.997Z</time></trkpt><trkpt lat="49.194129635130054" lon="2.514156414574028"><ele>50.0</ele><time>2026-04-22T13:13:34.997Z</time></trkpt><trkpt lat="49.19410899764036" lon="2.514314096501348"><ele>50.0</ele><time>2026-04-22T13:13:36.997Z</time></trkpt><trkpt lat="49.19408629281397" lon="2.5144718518191524"><ele>50.0</ele><time>2026-04-22T13:13:38.997Z</time></trkpt><trkpt lat="49.19406189900219" lon="2.5146324498795547"><ele>50.0</ele><time>2026-04-22T13:13:41Z</time></trkpt><trkpt lat="49.194038077391795" lon="2.5147906409023824"><ele>50.0</ele><time>2026-04-22T13:13:43Z</time></trkpt><trkpt lat="49.193994070111216" lon="2.514943973481857"><ele>50.0</ele><time>2026-04-22T13:13:45Z</time></trkpt><trkpt lat="49.19390212545295" lon="2.515036909534368"><ele>50.0</ele><time>2026-04-22T13:13:47Z</time></trkpt><trkpt lat="49.1938005175381" lon="2.5150567562241313"><ele>50.0</ele><time>2026-04-22T13:13:49Z</time></trkpt><trkpt lat="49.19373435227691" lon="2.514980466018937"><ele>50.0</ele><time>2026-04-22T13:13:51Z</time></trkpt><trkpt lat="49.19362957063899" lon="2.5152112341367814"><ele>50.00000000000001</ele><time>2026-04-22T13:13:54Z</time></trkpt><trkpt lat="49.19358796182327" lon="2.5153020060573925"><ele>50.0</ele><time>2026-04-22T13:13:56Z</time></trkpt><trkpt lat="49.19355886233813" lon="2.5154048100925746"><ele>50.0</ele><time>2026-04-22T13:13:58Z</time></trkpt><trkpt lat="49.19353357437248" lon="2.5155197917642136"><ele>50.0</ele><time>2026-04-22T13:14:00Z</time></trkpt><trkpt lat="49.19350587223535" lon="2.5156374301879976"><ele>50.00000000000001</ele><time>2026-04-22T13:14:02Z</time></trkpt><trkpt lat="49.19347710983616" lon="2.5157525778771266"><ele>50.0</ele><time>2026-04-22T13:14:04Z</time></trkpt><trkpt lat="49.19344422382075" lon="2.5158682358815794"><ele>49.66666666666667</ele><time>2026-04-22T13:14:06Z</time></trkpt><trkpt lat="49.193408334997585" lon="2.515984161974727"><ele>49.333333333333336</ele><time>2026-04-22T13:14:08Z</time></trkpt><trkpt lat="49.19336737348208" lon="2.5161049670700586"><ele>49.0</ele><time>2026-04-22T13:14:10Z</time></trkpt><trkpt lat="49.19332636129637" lon="2.5162290131957805"><ele>48.66666666666667</ele><time>2026-04-22T13:14:11.999Z</time></trkpt><trkpt lat="49.19328501307737" lon="2.5163555559085715"><ele>48.333333333333336</ele><time>2026-04-22T13:14:13.999Z</time></trkpt><trkpt lat="49.1932483319674" lon="2.5164809143869795"><ele>48.0</ele><time>2026-04-22T13:14:15.999Z</time></trkpt><trkpt lat="49.19321243720002" lon="2.516602591153361"><ele>48.0</ele><time>2026-04-22T13:14:17.999Z</time></trkpt><trkpt lat="49.19317330272904" lon="2.5167194019744845"><ele>48.0</ele><time>2026-04-22T13:14:19.999Z</time></trkpt><trkpt lat="49.19312224182712" lon="2.5168270689564958"><ele>48.0</ele><time>2026-04-22T13:14:21.999Z</time></trkpt><trkpt lat="49.193082703613165" lon="2.5169464021173824"><ele>48.0</ele><time>2026-04-22T13:14:23.999Z</time></trkpt><trkpt lat="49.19306131633544" lon="2.517075446025433"><ele>48.0</ele><time>2026-04-22T13:14:25.999Z</time></trkpt><trkpt lat="49.1930208506225" lon="2.5171875733519022"><ele>48.0</ele><time>2026-04-22T13:14:27.999Z</time></trkpt><trkpt lat="49.19298631330345" lon="2.5173045595274166"><ele>48.166666666666664</ele><time>2026-04-22T13:14:29.999Z</time></trkpt><trkpt lat="49.192961271964144" lon="2.517424460784971"><ele>48.33333333333333</ele><time>2026-04-22T13:14:31.999Z</time></trkpt><trkpt lat="49.192934273696984" lon="2.517545598187318"><ele>48.5</ele><time>2026-04-22T13:14:33.999Z</time></trkpt><trkpt lat="49.19291017411083" lon="2.517666333618777"><ele>48.666666666666664</ele><time>2026-04-22T13:14:35.999Z</time></trkpt><trkpt lat="49.19288329458528" lon="2.5177819287732546"><ele>48.83333333333333</ele><time>2026-04-22T13:14:37.999Z</time></trkpt><trkpt lat="49.19285929947441" lon="2.517900853342157"><ele>49.0</ele><time>2026-04-22T13:14:39.999Z</time></trkpt><trkpt lat="49.19284389744467" lon="2.518025532340977"><ele>48.99999999999999</ele><time>2026-04-22T13:14:41.998Z</time></trkpt><trkpt lat="49.19282473289142" lon="2.518152957007153"><ele>49.0</ele><time>2026-04-22T13:14:43.998Z</time></trkpt><trkpt lat="49.19280241946261" lon="2.518277486244537"><ele>49.0</ele><time>2026-04-22T13:14:45.998Z</time></trkpt><trkpt lat="49.1927774448032" lon="2.518401201283982"><ele>49.0</ele><time>2026-04-22T13:14:47.998Z</time></trkpt><trkpt lat="49.19275487108321" lon="2.518524879780083"><ele>48.99999999999999</ele><time>2026-04-22T13:14:49.998Z</time></trkpt><trkpt lat="49.19273078087985" lon="2.518648440115143"><ele>49.0</ele><time>2026-04-22T13:14:51.998Z</time></trkpt><trkpt lat="49.19270466431411" lon="2.518770756492727"><ele>49.0</ele><time>2026-04-22T13:14:53.998Z</time></trkpt><trkpt lat="49.19267899815698" lon="2.518898872462029"><ele>49.0</ele><time>2026-04-22T13:14:55.998Z</time></trkpt><trkpt lat="49.192656512819575" lon="2.5190337247679087"><ele>49.0</ele><time>2026-04-22T13:14:57.998Z</time></trkpt><trkpt lat="49.19262920227796" lon="2.5191691741145545"><ele>49.0</ele><time>2026-04-22T13:14:59.998Z</time></trkpt><trkpt lat="49.19260224193048" lon="2.5193124072033743"><ele>49.0</ele><time>2026-04-22T13:15:01.998Z</time></trkpt><trkpt lat="49.192576851158364" lon="2.5194568702761457"><ele>48.800000000000004</ele><time>2026-04-22T13:15:03.998Z</time></trkpt><trkpt lat="49.19255075896487" lon="2.5196018606993764"><ele>48.6</ele><time>2026-04-22T13:15:05.998Z</time></trkpt><trkpt lat="49.192523839885155" lon="2.519744731839951"><ele>48.4</ele><time>2026-04-22T13:15:07.998Z</time></trkpt><trkpt lat="49.1924939652984" lon="2.519885337231313"><ele>48.2</ele><time>2026-04-22T13:15:09.998Z</time></trkpt><trkpt lat="49.19246973796386" lon="2.520029827588062"><ele>48.0</ele><time>2026-04-22T13:15:11.998Z</time></trkpt><trkpt lat="49.19245301031636" lon="2.5201756053019353"><ele>48.0</ele><time>2026-04-22T13:15:13.998Z</time></trkpt><trkpt lat="49.192435387207574" lon="2.520317596116137"><ele>48.0</ele><time>2026-04-22T13:15:15.997Z</time></trkpt><trkpt lat="49.19242112521903" lon="2.520453820662456"><ele>48.0</ele><time>2026-04-22T13:15:17.997Z</time></trkpt><trkpt lat="49.19240905520558" lon="2.5205869124426252"><ele>48.0</ele><time>2026-04-22T13:15:19.997Z</time></trkpt><trkpt lat="49.192391875607555" lon="2.520719310675476"><ele>48.0</ele><time>2026-04-22T13:15:21.997Z</time></trkpt><trkpt lat="49.19237954631345" lon="2.520851643824897"><ele>48.0</ele><time>2026-04-22T13:15:23.997Z</time></trkpt><trkpt lat="49.19236555269487" lon="2.520993176944415"><ele>48.0</ele><time>2026-04-22T13:15:25.997Z</time></trkpt><trkpt lat="49.19235128321494" lon="2.5211352224625228"><ele>48.0</ele><time>2026-04-22T13:15:27.997Z</time></trkpt><trkpt lat="49.192338691348205" lon="2.521277085839515"><ele>48.0</ele><time>2026-04-22T13:15:29.997Z</time></trkpt><trkpt lat="49.19232076123" lon="2.5214184945881275"><ele>48.0</ele><time>2026-04-22T13:15:31.997Z</time></trkpt><trkpt lat="49.192307291803196" lon="2.5215606042758223"><ele>48.0</ele><time>2026-04-22T13:15:33.997Z</time></trkpt><trkpt lat="49.19229500478983" lon="2.5217014203399644"><ele>48.0</ele><time>2026-04-22T13:15:35.997Z</time></trkpt><trkpt lat="49.192284245032326" lon="2.521839619899943"><ele>48.0</ele><time>2026-04-22T13:15:37.997Z</time></trkpt><trkpt lat="49.19227036567112" lon="2.5219776187603147"><ele>48.0</ele><time>2026-04-22T13:15:39.997Z</time></trkpt><trkpt lat="49.19226451838028" lon="2.5221176166872974"><ele>48.0</ele><time>2026-04-22T13:15:41.997Z</time></trkpt><trkpt lat="49.1922707460681" lon="2.5222621147320137"><ele>48.0</ele><time>2026-04-22T13:15:43.997Z</time></trkpt><trkpt lat="49.19228404643043" lon="2.522410216938607"><ele>48.166666666666664</ele><time>2026-04-22T13:15:46Z</time></trkpt><trkpt lat="49.19229745161592" lon="2.5225570786144136"><ele>48.33333333333333</ele><time>2026-04-22T13:15:48Z</time></trkpt><trkpt lat="49.1923184053718" lon="2.5226986028764538"><ele>48.5</ele><time>2026-04-22T13:15:50Z</time></trkpt><trkpt lat="49.1923391822934" lon="2.522831712452882"><ele>48.666666666666664</ele><time>2026-04-22T13:15:52Z</time></trkpt><trkpt lat="49.19235435692859" lon="2.5229593925481817"><ele>48.83333333333333</ele><time>2026-04-22T13:15:54Z</time></trkpt><trkpt lat="49.19236575304169" lon="2.5230816218295833"><ele>49.0</ele><time>2026-04-22T13:15:56Z</time></trkpt><trkpt lat="49.19238298805625" lon="2.5231921315450356"><ele>48.49999999999999</ele><time>2026-04-22T13:15:58Z</time></trkpt><trkpt lat="49.192393725031934" lon="2.523304260072524"><ele>48.0</ele><time>2026-04-22T13:16:00Z</time></trkpt><trkpt lat="49.192407037406554" lon="2.5234089134107722"><ele>47.5</ele><time>2026-04-22T13:16:02Z</time></trkpt><trkpt lat="49.192420718412514" lon="2.523519873822532"><ele>47.0</ele><time>2026-04-22T13:16:04Z</time></trkpt><trkpt lat="49.192435631845846" lon="2.523637291694691"><ele>46.5</ele><time>2026-04-22T13:16:06Z</time></trkpt><trkpt lat="49.19245039709229" lon="2.523754694439462"><ele>46.0</ele><time>2026-04-22T13:16:08Z</time></trkpt><trkpt lat="49.19246610322232" lon="2.523873423693426"><ele>46.0</ele><time>2026-04-22T13:16:10Z</time></trkpt><trkpt lat="49.19248037065911" lon="2.5239967620507344"><ele>46.0</ele><time>2026-04-22T13:16:11.999Z</time></trkpt><trkpt lat="49.19249594859042" lon="2.524120898082868"><ele>46.0</ele><time>2026-04-22T13:16:13.999Z</time></trkpt><trkpt lat="49.192512451144516" lon="2.5242445728585943"><ele>46.0</ele><time>2026-04-22T13:16:15.999Z</time></trkpt><trkpt lat="49.1925271529663" lon="2.524370226133971"><ele>46.0</ele><time>2026-04-22T13:16:17.999Z</time></trkpt><trkpt lat="49.192539824809685" lon="2.5245010985078067"><ele>46.0</ele><time>2026-04-22T13:16:19.999Z</time></trkpt><trkpt lat="49.19255368221103" lon="2.52463312458158"><ele>46.16666666666667</ele><time>2026-04-22T13:16:21.999Z</time></trkpt><trkpt lat="49.19257054758936" lon="2.5247563684593928"><ele>46.333333333333336</ele><time>2026-04-22T13:16:23.999Z</time></trkpt><trkpt lat="49.19258217939568" lon="2.524882210800718"><ele>46.5</ele><time>2026-04-22T13:16:25.999Z</time></trkpt><trkpt lat="49.19259884568796" lon="2.5250058220052374"><ele>46.666666666666664</ele><time>2026-04-22T13:16:27.999Z</time></trkpt><trkpt lat="49.192615031391824" lon="2.5251302585897677"><ele>46.83333333333333</ele><time>2026-04-22T13:16:29.999Z</time></trkpt><trkpt lat="49.192628561482664" lon="2.5252563372361214"><ele>47.0</ele><time>2026-04-22T13:16:31.999Z</time></trkpt><trkpt lat="49.192645237180635" lon="2.5253812636822848"><ele>47.33333333333333</ele><time>2026-04-22T13:16:33.999Z</time></trkpt><trkpt lat="49.192659626818475" lon="2.5255075363422756"><ele>47.666666666666664</ele><time>2026-04-22T13:16:35.999Z</time></trkpt><trkpt lat="49.19267262226101" lon="2.525627916132835"><ele>48.0</ele><time>2026-04-22T13:16:37.999Z</time></trkpt><trkpt lat="49.19268720309716" lon="2.525747674323195"><ele>48.33333333333333</ele><time>2026-04-22T13:16:39.999Z</time></trkpt><trkpt lat="49.19270279748588" lon="2.52587007449838"><ele>48.666666666666664</ele><time>2026-04-22T13:16:41.998Z</time></trkpt><trkpt lat="49.192717161065325" lon="2.525989286801475"><ele>49.0</ele><time>2026-04-22T13:16:43.998Z</time></trkpt><trkpt lat="49.19273110398089" lon="2.526106666650878"><ele>49.33333333333333</ele><time>2026-04-22T13:16:45.998Z</time></trkpt><trkpt lat="49.19274571789255" lon="2.526229147413124"><ele>49.666666666666664</ele><time>2026-04-22T13:16:47.998Z</time></trkpt><trkpt lat="49.19275945827483" lon="2.5263498089465264"><ele>50.0</ele><time>2026-04-22T13:16:49.998Z</time></trkpt><trkpt lat="49.19277588260691" lon="2.526472660222751"><ele>50.33333333333333</ele><time>2026-04-22T13:16:51.998Z</time></trkpt><trkpt lat="49.192792576706324" lon="2.5265924650358724"><ele>50.666666666666664</ele><time>2026-04-22T13:16:53.998Z</time></trkpt><trkpt lat="49.19280416113784" lon="2.52671246519141"><ele>51.0</ele><time>2026-04-22T13:16:55.998Z</time></trkpt><trkpt lat="49.192818039487484" lon="2.5268301352267155"><ele>51.0</ele><time>2026-04-22T13:16:57.998Z</time></trkpt><trkpt lat="49.19283789077153" lon="2.5269390033723766"><ele>51.0</ele><time>2026-04-22T13:16:59.998Z</time></trkpt><trkpt lat="49.1928557746776" lon="2.5270446787040317"><ele>51.0</ele><time>2026-04-22T13:17:01.998Z</time></trkpt><trkpt lat="49.192865702866776" lon="2.5271460318276855"><ele>51.0</ele><time>2026-04-22T13:17:03.998Z</time></trkpt><trkpt lat="49.192875341590124" lon="2.5272507756567406"><ele>51.0</ele><time>2026-04-22T13:17:05.998Z</time></trkpt><trkpt lat="49.19288846046909" lon="2.527357528953369"><ele>51.0</ele><time>2026-04-22T13:17:07.998Z</time></trkpt><trkpt lat="49.192898893887865" lon="2.5274679909275424"><ele>51.0</ele><time>2026-04-22T13:17:09.998Z</time></trkpt><trkpt lat="49.19291560721075" lon="2.5275839802526154"><ele>51.166666666666664</ele><time>2026-04-22T13:17:11.998Z</time></trkpt><trkpt lat="49.19293048803918" lon="2.527699222581859"><ele>51.33333333333333</ele><time>2026-04-22T13:17:13.997Z</time></trkpt><trkpt lat="49.19294485577438" lon="2.527818579199029"><ele>51.5</ele><time>2026-04-22T13:17:15.997Z</time></trkpt><trkpt lat="49.19295669270583" lon="2.5279440170959195"><ele>51.666666666666664</ele><time>2026-04-22T13:17:17.997Z</time></trkpt><trkpt lat="49.19297518002326" lon="2.5280699304143552"><ele>51.83333333333333</ele><time>2026-04-22T13:17:19.997Z</time></trkpt><trkpt lat="49.192987868362984" lon="2.528195516718083"><ele>52.0</ele><time>2026-04-22T13:17:21.997Z</time></trkpt><trkpt lat="49.193000423841134" lon="2.5283179945973053"><ele>51.99999999999999</ele><time>2026-04-22T13:17:23.997Z</time></trkpt><trkpt lat="49.19301694084427" lon="2.52844219799912"><ele>52.0</ele><time>2026-04-22T13:17:25.997Z</time></trkpt><trkpt lat="49.193029723513185" lon="2.5285678468224266"><ele>52.0</ele><time>2026-04-22T13:17:27.997Z</time></trkpt><trkpt lat="49.19304647503542" lon="2.5286917963931526"><ele>52.0</ele><time>2026-04-22T13:17:29.997Z</time></trkpt><trkpt lat="49.19306707414863" lon="2.5288183168327936"><ele>51.99999999999999</ele><time>2026-04-22T13:17:31.997Z</time></trkpt><trkpt lat="49.19308298948477" lon="2.528942238189939"><ele>52.0</ele><time>2026-04-22T13:17:33.997Z</time></trkpt><trkpt lat="49.193102073603754" lon="2.52906983834454"><ele>51.99999999999999</ele><time>2026-04-22T13:17:35.997Z</time></trkpt><trkpt lat="49.193120406664114" lon="2.5291992321290384"><ele>52.0</ele><time>2026-04-22T13:17:37.997Z</time></trkpt><trkpt lat="49.193144964527264" lon="2.5293228623353454"><ele>52.0</ele><time>2026-04-22T13:17:39.997Z</time></trkpt><trkpt lat="49.19316700705645" lon="2.529447875630455"><ele>52.0</ele><time>2026-04-22T13:17:41.997Z</time></trkpt><trkpt lat="49.19318917800493" lon="2.5295652726749513"><ele>51.99999999999999</ele><time>2026-04-22T13:17:43.997Z</time></trkpt><trkpt lat="49.19321308188204" lon="2.5296852385741357"><ele>52.0</ele><time>2026-04-22T13:17:45.996Z</time></trkpt><trkpt lat="49.19323925396888" lon="2.529803372447177"><ele>51.99999999999999</ele><time>2026-04-22T13:17:47.996Z</time></trkpt><trkpt lat="49.19326727489542" lon="2.5299199303468436"><ele>52.0</ele><time>2026-04-22T13:17:49.996Z</time></trkpt><trkpt lat="49.19328825420153" lon="2.5300403564161047"><ele>52.0</ele><time>2026-04-22T13:17:52Z</time></trkpt><trkpt lat="49.19331421597077" lon="2.530160734637063"><ele>52.0</ele><time>2026-04-22T13:17:54Z</time></trkpt><trkpt lat="49.19334044477367" lon="2.530282741064922"><ele>51.99999999999999</ele><time>2026-04-22T13:17:56Z</time></trkpt><trkpt lat="49.193365879319" lon="2.5304065019034465"><ele>52.0</ele><time>2026-04-22T13:17:58Z</time></trkpt><trkpt lat="49.193394678353975" lon="2.5305294656828785"><ele>51.99999999999999</ele><time>2026-04-22T13:18:00Z</time></trkpt><trkpt lat="49.193419114738205" lon="2.530648837927879"><ele>52.0</ele><time>2026-04-22T13:18:02Z</time></trkpt><trkpt lat="49.193449197080454" lon="2.530763645439858"><ele>52.0</ele><time>2026-04-22T13:18:04Z</time></trkpt><trkpt lat="49.19347459456039" lon="2.530879300797567"><ele>52.0</ele><time>2026-04-22T13:18:06Z</time></trkpt><trkpt lat="49.193501216169494" lon="2.5310090862231958"><ele>51.99999999999999</ele><time>2026-04-22T13:18:08Z</time></trkpt><trkpt lat="49.193526240639905" lon="2.53112447919716"><ele>52.0</ele><time>2026-04-22T13:18:10Z</time></trkpt><trkpt lat="49.19355732939818" lon="2.5312467671285876"><ele>52.33333333333333</ele><time>2026-04-22T13:18:11.999Z</time></trkpt><trkpt lat="49.19358673592983" lon="2.5313675711578925"><ele>52.666666666666664</ele><time>2026-04-22T13:18:13.999Z</time></trkpt><trkpt lat="49.193614206559566" lon="2.5314900533525106"><ele>53.0</ele><time>2026-04-22T13:18:15.999Z</time></trkpt><trkpt lat="49.19364514856839" lon="2.531607886452035"><ele>53.33333333333333</ele><time>2026-04-22T13:18:17.999Z</time></trkpt><trkpt lat="49.19368231128911" lon="2.5317188786779194"><ele>53.666666666666664</ele><time>2026-04-22T13:18:19.999Z</time></trkpt><trkpt lat="49.19371898192606" lon="2.5318308995806853"><ele>54.0</ele><time>2026-04-22T13:18:21.999Z</time></trkpt><trkpt lat="49.19375223310995" lon="2.531942918897635"><ele>54.0</ele><time>2026-04-22T13:18:23.999Z</time></trkpt><trkpt lat="49.19379367886158" lon="2.5320468734046537"><ele>54.0</ele><time>2026-04-22T13:18:25.999Z</time></trkpt><trkpt lat="49.19383338528674" lon="2.5321616513642367"><ele>54.0</ele><time>2026-04-22T13:18:27.999Z</time></trkpt><trkpt lat="49.19387617973015" lon="2.5322714457889925"><ele>54.0</ele><time>2026-04-22T13:18:29.999Z</time></trkpt><trkpt lat="49.193911990284526" lon="2.532388413617507"><ele>54.0</ele><time>2026-04-22T13:18:31.999Z</time></trkpt><trkpt lat="49.193956746973406" lon="2.5324985972037046"><ele>54.0</ele><time>2026-04-22T13:18:33.999Z</time></trkpt><trkpt lat="49.19399564038285" lon="2.532615723413155"><ele>53.800000000000004</ele><time>2026-04-22T13:18:35.999Z</time></trkpt><trkpt lat="49.194034918336065" lon="2.5327326549678744"><ele>53.60000000000001</ele><time>2026-04-22T13:18:37.999Z</time></trkpt><trkpt lat="49.194074556671794" lon="2.5328513330551217"><ele>53.4</ele><time>2026-04-22T13:18:39.999Z</time></trkpt><trkpt lat="49.19411630459772" lon="2.532967234321281"><ele>53.2</ele><time>2026-04-22T13:18:41.998Z</time></trkpt><trkpt lat="49.19416307082024" lon="2.5331063793431037"><ele>53.0</ele><time>2026-04-22T13:18:43.998Z</time></trkpt><trkpt lat="49.1942013775737" lon="2.533247243099779"><ele>53.0</ele><time>2026-04-22T13:18:45.998Z</time></trkpt><trkpt lat="49.19423496786523" lon="2.5333859129077743"><ele>53.0</ele><time>2026-04-22T13:18:47.998Z</time></trkpt><trkpt lat="49.19424986818686" lon="2.5335260920437417"><ele>53.0</ele><time>2026-04-22T13:18:49.998Z</time></trkpt><trkpt lat="49.194251181143194" lon="2.533674091814117"><ele>53.0</ele><time>2026-04-22T13:18:51.998Z</time></trkpt><trkpt lat="49.19424668157226" lon="2.5338142026622816"><ele>53.0</ele><time>2026-04-22T13:18:53.998Z</time></trkpt><trkpt lat="49.194241917261294" lon="2.533944183421839"><ele>53.00000000000001</ele><time>2026-04-22T13:18:55.998Z</time></trkpt><trkpt lat="49.194241782698924" lon="2.534075499447432"><ele>53.0</ele><time>2026-04-22T13:18:57.998Z</time></trkpt><trkpt lat="49.194234474413065" lon="2.534202586043893"><ele>53.0</ele><time>2026-04-22T13:18:59.998Z</time></trkpt><trkpt lat="49.19422614713482" lon="2.5343325589880052"><ele>53.0</ele><time>2026-04-22T13:19:01.998Z</time></trkpt><trkpt lat="49.19422036914158" lon="2.5344647781880187"><ele>53.00000000000001</ele><time>2026-04-22T13:19:03.998Z</time></trkpt><trkpt lat="49.194207295130326" lon="2.534594929572714"><ele>53.0</ele><time>2026-04-22T13:19:05.998Z</time></trkpt><trkpt lat="49.19420799079053" lon="2.5347277478549954"><ele>53.333333333333336</ele><time>2026-04-22T13:19:07.998Z</time></trkpt><trkpt lat="49.19420012034452" lon="2.5348456652188482"><ele>53.66666666666667</ele><time>2026-04-22T13:19:09.998Z</time></trkpt><trkpt lat="49.19418794743587" lon="2.5349759097053557"><ele>54.0</ele><time>2026-04-22T13:19:11.998Z</time></trkpt><trkpt lat="49.19417422162522" lon="2.535100014134134"><ele>54.33333333333333</ele><time>2026-04-22T13:19:13.997Z</time></trkpt><trkpt lat="49.19416779934663" lon="2.5352172322171143"><ele>54.666666666666664</ele><time>2026-04-22T13:19:15.997Z</time></trkpt><trkpt lat="49.194170365289715" lon="2.535335408501365"><ele>55.0</ele><time>2026-04-22T13:19:17.997Z</time></trkpt><trkpt lat="49.19416503090998" lon="2.5354582667444614"><ele>54.99999999999999</ele><time>2026-04-22T13:19:19.997Z</time></trkpt><trkpt lat="49.194162440711956" lon="2.535571191408423"><ele>55.0</ele><time>2026-04-22T13:19:21.997Z</time></trkpt><trkpt lat="49.19416286500487" lon="2.535688489956896"><ele>55.0</ele><time>2026-04-22T13:19:23.997Z</time></trkpt><trkpt lat="49.194172528463774" lon="2.5358054741432117"><ele>55.0</ele><time>2026-04-22T13:19:25.997Z</time></trkpt><trkpt lat="49.19417784205048" lon="2.5359163189996385"><ele>55.0</ele><time>2026-04-22T13:19:27.997Z</time></trkpt><trkpt lat="49.194174303250826" lon="2.5360282256256674"><ele>54.99999999999999</ele><time>2026-04-22T13:19:29.997Z</time></trkpt><trkpt lat="49.19418065397014" lon="2.53614062721655"><ele>55.0</ele><time>2026-04-22T13:19:31.997Z</time></trkpt><trkpt lat="49.19418711067289" lon="2.5362618135081"><ele>54.99999999999999</ele><time>2026-04-22T13:19:33.997Z</time></trkpt><trkpt lat="49.19417686418381" lon="2.536385702271505"><ele>55.0</ele><time>2026-04-22T13:19:35.997Z</time></trkpt><trkpt lat="49.194136409432126" lon="2.5365030370760957"><ele>55.0</ele><time>2026-04-22T13:19:37.997Z</time></trkpt><trkpt lat="49.19409799236905" lon="2.5366134665459916"><ele>55.0</ele><time>2026-04-22T13:19:39.997Z</time></trkpt><trkpt lat="49.19404222024539" lon="2.536709020561355"><ele>54.99999999999999</ele><time>2026-04-22T13:19:41.997Z</time></trkpt><trkpt lat="49.19397849859841" lon="2.5367968995854815"><ele>55.0</ele><time>2026-04-22T13:19:43.997Z</time></trkpt><trkpt lat="49.193914617264255" lon="2.536876002082711"><ele>55.166666666666664</ele><time>2026-04-22T13:19:45.996Z</time></trkpt><trkpt lat="49.19385689998672" lon="2.5369496878173576"><ele>55.33333333333333</ele><time>2026-04-22T13:19:47.996Z</time></trkpt><trkpt lat="49.193799020861235" lon="2.53700735938644"><ele>55.5</ele><time>2026-04-22T13:19:49.996Z</time></trkpt><trkpt lat="49.193748682196755" lon="2.5370951126917354"><ele>55.66666666666667</ele><time>2026-04-22T13:19:51.996Z</time></trkpt><trkpt lat="49.19371744002151" lon="2.537213605151013"><ele>55.833333333333336</ele><time>2026-04-22T13:19:53.996Z</time></trkpt><trkpt lat="49.19371986639049" lon="2.53735082710683"><ele>56.0</ele><time>2026-04-22T13:19:55.996Z</time></trkpt><trkpt lat="49.19375113724554" lon="2.537488933441509"><ele>56.00000000000001</ele><time>2026-04-22T13:19:58Z</time></trkpt><trkpt lat="49.19377605259779" lon="2.5376139766231045"><ele>56.0</ele><time>2026-04-22T13:20:00Z</time></trkpt><trkpt lat="49.19377947056723" lon="2.537740237807392"><ele>56.0</ele><time>2026-04-22T13:20:02Z</time></trkpt><trkpt lat="49.193776530028856" lon="2.5378655644972046"><ele>56.0</ele><time>2026-04-22T13:20:04Z</time></trkpt><trkpt lat="49.19376473038715" lon="2.537988386698811"><ele>56.00000000000001</ele><time>2026-04-22T13:20:06Z</time></trkpt><trkpt lat="49.193750333414016" lon="2.5381164706258823"><ele>56.0</ele><time>2026-04-22T13:20:08Z</time></trkpt><trkpt lat="49.193746233430964" lon="2.5382517788899883"><ele>55.8</ele><time>2026-04-22T13:20:10Z</time></trkpt><trkpt lat="49.19375238625048" lon="2.538390329759753"><ele>55.599999999999994</ele><time>2026-04-22T13:20:12Z</time></trkpt><trkpt lat="49.193788777331534" lon="2.5385335894373746"><ele>55.4</ele><time>2026-04-22T13:20:14Z</time></trkpt><trkpt lat="49.193790373652035" lon="2.538695058220282"><ele>55.2</ele><time>2026-04-22T13:20:15.999Z</time></trkpt><trkpt lat="49.19381587987625" lon="2.5388785851354063"><ele>55.0</ele><time>2026-04-22T13:20:17.999Z</time></trkpt><trkpt lat="49.193837734300914" lon="2.5389708423908455"><ele>54.71428571428571</ele><time>2026-04-22T13:20:18.999Z</time></trkpt><trkpt lat="49.193833703457216" lon="2.539081209648181"><ele>54.42857142857143</ele><time>2026-04-22T13:20:19.999Z</time></trkpt><trkpt lat="49.19385944940294" lon="2.539175518061299"><ele>54.14285714285714</ele><time>2026-04-22T13:20:20.999Z</time></trkpt><trkpt lat="49.193888600814226" lon="2.539275325449277"><ele>53.857142857142854</ele><time>2026-04-22T13:20:21.999Z</time></trkpt><trkpt lat="49.19391471600638" lon="2.539370650561283"><ele>53.57142857142857</ele><time>2026-04-22T13:20:22.999Z</time></trkpt><trkpt lat="49.1939385720203" lon="2.539467802260698"><ele>53.285714285714285</ele><time>2026-04-22T13:20:23.999Z</time></trkpt><trkpt lat="49.19396555874095" lon="2.5395892464770764"><ele>53.0</ele><time>2026-04-22T13:20:24.999Z</time></trkpt><trkpt lat="49.19399397242559" lon="2.5397010624734984"><ele>52.50000000000001</ele><time>2026-04-22T13:20:25.999Z</time></trkpt><trkpt lat="49.19402546274276" lon="2.539818034057029"><ele>52.0</ele><time>2026-04-22T13:20:26.999Z</time></trkpt><trkpt lat="49.194054443691144" lon="2.5399462920108835"><ele>51.5</ele><time>2026-04-22T13:20:27.999Z</time></trkpt><trkpt lat="49.19406341414994" lon="2.540066788206236"><ele>51.0</ele><time>2026-04-22T13:20:28.999Z</time></trkpt><trkpt lat="49.19408543801114" lon="2.5401784565277703"><ele>50.50000000000001</ele><time>2026-04-22T13:20:29.999Z</time></trkpt><trkpt lat="49.194108621264455" lon="2.5402945516960673"><ele>50.0</ele><time>2026-04-22T13:20:30.999Z</time></trkpt><trkpt lat="49.19413135829002" lon="2.540406027285663"><ele>49.833333333333336</ele><time>2026-04-22T13:20:31.999Z</time></trkpt><trkpt lat="49.19415304244134" lon="2.5405123409903534"><ele>49.66666666666667</ele><time>2026-04-22T13:20:32.999Z</time></trkpt><trkpt lat="49.1941905069986" lon="2.5406226366954248"><ele>49.5</ele><time>2026-04-22T13:20:33.999Z</time></trkpt><trkpt lat="49.19420846090807" lon="2.5407431098808786"><ele>49.33333333333333</ele><time>2026-04-22T13:20:34.999Z</time></trkpt><trkpt lat="49.194240029831036" lon="2.540857826090529"><ele>49.166666666666664</ele><time>2026-04-22T13:20:35.999Z</time></trkpt><trkpt lat="49.194248854905666" lon="2.540982092682661"><ele>49.0</ele><time>2026-04-22T13:20:36.999Z</time></trkpt><trkpt lat="49.1942789964262" lon="2.5410923245798114"><ele>48.99999999999999</ele><time>2026-04-22T13:20:37.999Z</time></trkpt><trkpt lat="49.19429649981887" lon="2.541194308664659"><ele>49.0</ele><time>2026-04-22T13:20:38.999Z</time></trkpt><trkpt lat="49.194327222329804" lon="2.5412975245154508"><ele>49.0</ele><time>2026-04-22T13:20:39.999Z</time></trkpt><trkpt lat="49.19434975371169" lon="2.5413929179725216"><ele>49.0</ele><time>2026-04-22T13:20:40.999Z</time></trkpt><trkpt lat="49.19438705108647" lon="2.5415712162331987"><ele>48.99999999999999</ele><time>2026-04-22T13:20:42.999Z</time></trkpt><trkpt lat="49.194446268380986" lon="2.5417202074928142"><ele>49.0</ele><time>2026-04-22T13:20:44.999Z</time></trkpt><trkpt lat="49.194517758691426" lon="2.54181334104671"><ele>49.166666666666664</ele><time>2026-04-22T13:20:46.998Z</time></trkpt><trkpt lat="49.19457882686557" lon="2.541907884411875"><ele>49.33333333333333</ele><time>2026-04-22T13:20:48.998Z</time></trkpt><trkpt lat="49.19465180409616" lon="2.541982194921517"><ele>49.5</ele><time>2026-04-22T13:20:50.998Z</time></trkpt><trkpt lat="49.19471669115436" lon="2.5420630985049852"><ele>49.66666666666667</ele><time>2026-04-22T13:20:52.998Z</time></trkpt><trkpt lat="49.19478053801657" lon="2.542122414267424"><ele>49.833333333333336</ele><time>2026-04-22T13:20:54.998Z</time></trkpt><trkpt lat="49.19483867235078" lon="2.542190615963911"><ele>50.0</ele><time>2026-04-22T13:20:56.998Z</time></trkpt><trkpt lat="49.19489489339377" lon="2.542253635674417"><ele>50.833333333333336</ele><time>2026-04-22T13:20:58.998Z</time></trkpt><trkpt lat="49.19495776742803" lon="2.5423266160386566"><ele>51.66666666666667</ele><time>2026-04-22T13:21:00.998Z</time></trkpt><trkpt lat="49.19501949671519" lon="2.542397507474243"><ele>52.5</ele><time>2026-04-22T13:21:02.998Z</time></trkpt><trkpt lat="49.19508091349809" lon="2.542464414252984"><ele>53.33333333333333</ele><time>2026-04-22T13:21:04.998Z</time></trkpt><trkpt lat="49.19513730241195" lon="2.542535570813803"><ele>54.166666666666664</ele><time>2026-04-22T13:21:06.998Z</time></trkpt><trkpt lat="49.19517698850235" lon="2.542630740789743"><ele>55.0</ele><time>2026-04-22T13:21:08.998Z</time></trkpt><trkpt lat="49.1952042464811" lon="2.542735455077117"><ele>54.99999999999999</ele><time>2026-04-22T13:21:10.998Z</time></trkpt><trkpt lat="49.19521996328456" lon="2.5428451965237824"><ele>55.0</ele><time>2026-04-22T13:21:12.998Z</time></trkpt><trkpt lat="49.195224397686225" lon="2.542947050477154"><ele>55.0</ele><time>2026-04-22T13:21:14.998Z</time></trkpt><trkpt lat="49.19522299532543" lon="2.543047670852094"><ele>55.0</ele><time>2026-04-22T13:21:16.998Z</time></trkpt><trkpt lat="49.195213886335736" lon="2.543145141240768"><ele>55.0</ele><time>2026-04-22T13:21:18.997Z</time></trkpt><trkpt lat="49.1952164215148" lon="2.5432426431554034"><ele>54.99999999999999</ele><time>2026-04-22T13:21:20.997Z</time></trkpt><trkpt lat="49.19523032999633" lon="2.543349806722145"><ele>55.0</ele><time>2026-04-22T13:21:22.997Z</time></trkpt><trkpt lat="49.1952269253261" lon="2.5434592468884767"><ele>55.14285714285714</ele><time>2026-04-22T13:21:24.997Z</time></trkpt><trkpt lat="49.19523313167615" lon="2.543567040857662"><ele>55.285714285714285</ele><time>2026-04-22T13:21:26.997Z</time></trkpt><trkpt lat="49.19523452133927" lon="2.5436774971189275"><ele>55.42857142857143</ele><time>2026-04-22T13:21:28.997Z</time></trkpt><trkpt lat="49.19523631721654" lon="2.543787603099247"><ele>55.57142857142857</ele><time>2026-04-22T13:21:30.997Z</time></trkpt><trkpt lat="49.19523807587757" lon="2.543902910781776"><ele>55.714285714285715</ele><time>2026-04-22T13:21:32.997Z</time></trkpt><trkpt lat="49.19524315243601" lon="2.544019247592086"><ele>55.857142857142854</ele><time>2026-04-22T13:21:34.997Z</time></trkpt><trkpt lat="49.19525388826565" lon="2.5441360353975173"><ele>56.0</ele><time>2026-04-22T13:21:36.997Z</time></trkpt><trkpt lat="49.195254955184936" lon="2.544245701707877"><ele>56.00000000000001</ele><time>2026-04-22T13:21:38.997Z</time></trkpt><trkpt lat="49.19525730509441" lon="2.5443714129413184"><ele>56.0</ele><time>2026-04-22T13:21:40.997Z</time></trkpt><trkpt lat="49.195257606769886" lon="2.544492265129142"><ele>56.0</ele><time>2026-04-22T13:21:42.997Z</time></trkpt><trkpt lat="49.19526314302524" lon="2.5446162714011376"><ele>56.0</ele><time>2026-04-22T13:21:44.997Z</time></trkpt><trkpt lat="49.19527271633371" lon="2.544737779258219"><ele>56.00000000000001</ele><time>2026-04-22T13:21:46.997Z</time></trkpt><trkpt lat="49.195280175945406" lon="2.5448538177879616"><ele>56.0</ele><time>2026-04-22T13:21:48.997Z</time></trkpt><trkpt lat="49.19518633399784" lon="2.5448836285320877"><ele>55.857142857142854</ele><time>2026-04-22T13:21:51.996Z</time></trkpt><trkpt lat="49.19512309182604" lon="2.544899350703439"><ele>55.714285714285715</ele><time>2026-04-22T13:21:53.996Z</time></trkpt><trkpt lat="49.19504222052782" lon="2.544924320996996"><ele>55.57142857142857</ele><time>2026-04-22T13:21:56.996Z</time></trkpt><trkpt lat="49.19497557361769" lon="2.5449448993018517"><ele>55.42857142857143</ele><time>2026-04-22T13:21:59.996Z</time></trkpt><trkpt lat="49.19491050350146" lon="2.5449798881719867"><ele>55.285714285714285</ele><time>2026-04-22T13:22:45.999Z</time></trkpt><trkpt lat="49.194842858651015" lon="2.5449858771461846"><ele>55.14285714285714</ele><time>2026-04-22T13:22:49.999Z</time></trkpt><trkpt lat="49.19477938593016" lon="2.545005475360885"><ele>55.0</ele><time>2026-04-22T13:22:52.999Z</time></trkpt><trkpt lat="49.194711343529" lon="2.5450475546528497"><ele>55.33333333333333</ele><time>2026-04-22T13:22:55.999Z</time></trkpt><trkpt lat="49.19462863845126" lon="2.5450690986053517"><ele>55.666666666666664</ele><time>2026-04-22T13:22:58.999Z</time></trkpt><trkpt lat="49.1945470220473" lon="2.5450910901966504"><ele>56.0</ele><time>2026-04-22T13:23:01.999Z</time></trkpt><trkpt lat="49.19446508766284" lon="2.5451143228470943"><ele>56.33333333333333</ele><time>2026-04-22T13:23:04.999Z</time></trkpt><trkpt lat="49.194385633142105" lon="2.5451340071987305"><ele>56.666666666666664</ele><time>2026-04-22T13:23:07.999Z</time></trkpt><trkpt lat="49.19430439170519" lon="2.545137723204607"><ele>57.0</ele><time>2026-04-22T13:23:10.999Z</time></trkpt><trkpt lat="49.19423097389267" lon="2.5451599305815886"><ele>57.0</ele><time>2026-04-22T13:23:13.999Z</time></trkpt><trkpt lat="49.19415871941944" lon="2.5451817860692927"><ele>57.0</ele><time>2026-04-22T13:23:16.999Z</time></trkpt><trkpt lat="49.19408970870957" lon="2.545220145305499"><ele>57.0</ele><time>2026-04-22T13:23:19.999Z</time></trkpt><trkpt lat="49.19401568674175" lon="2.5452222677770395"><ele>57.0</ele><time>2026-04-22T13:23:22.998Z</time></trkpt><trkpt lat="49.19394300568109" lon="2.5452572128248088"><ele>57.0</ele><time>2026-04-22T13:23:25.998Z</time></trkpt><trkpt lat="49.19386294699661" lon="2.545290382077316"><ele>57.0</ele><time>2026-04-22T13:23:28.998Z</time></trkpt><trkpt lat="49.19377399161038" lon="2.545330187471932"><ele>56.833333333333336</ele><time>2026-04-22T13:23:31.998Z</time></trkpt><trkpt lat="49.19368945986375" lon="2.5453628107755484"><ele>56.66666666666667</ele><time>2026-04-22T13:23:34.998Z</time></trkpt><trkpt lat="49.19360474059575" lon="2.5453860417613017"><ele>56.5</ele><time>2026-04-22T13:23:37.998Z</time></trkpt><trkpt lat="49.193515528171936" lon="2.5454174455445964"><ele>56.333333333333336</ele><time>2026-04-22T13:23:40.998Z</time></trkpt><trkpt lat="49.193426832292545" lon="2.54545487352445"><ele>56.16666666666667</ele><time>2026-04-22T13:23:43.998Z</time></trkpt><trkpt lat="49.19334494699233" lon="2.545470736108676"><ele>56.0</ele><time>2026-04-22T13:23:46.998Z</time></trkpt><trkpt lat="49.193254362096624" lon="2.5454798307636093"><ele>56.714285714285715</ele><time>2026-04-22T13:23:49.998Z</time></trkpt><trkpt lat="49.19317579165874" lon="2.5455064156482337"><ele>57.42857142857143</ele><time>2026-04-22T13:23:52.998Z</time></trkpt><trkpt lat="49.193090033826955" lon="2.5455111213977424"><ele>58.14285714285714</ele><time>2026-04-22T13:23:55.997Z</time></trkpt><trkpt lat="49.193005214309245" lon="2.5455427947208533"><ele>58.857142857142854</ele><time>2026-04-22T13:23:58.997Z</time></trkpt><trkpt lat="49.19294061487193" lon="2.545549589245845"><ele>59.57142857142857</ele><time>2026-04-22T13:24:00.997Z</time></trkpt><trkpt lat="49.1928738894238" lon="2.5455490810169965"><ele>60.28571428571428</ele><time>2026-04-22T13:24:02.997Z</time></trkpt><trkpt lat="49.192810046041316" lon="2.545549141732737"><ele>60.99999999999999</ele><time>2026-04-22T13:24:04.997Z</time></trkpt><trkpt lat="49.19274561469884" lon="2.545560587508337"><ele>60.99999999999999</ele><time>2026-04-22T13:24:06.997Z</time></trkpt><trkpt lat="49.192681600375245" lon="2.5455730126412686"><ele>61.0</ele><time>2026-04-22T13:24:09Z</time></trkpt><trkpt lat="49.19261962743109" lon="2.545590435445594"><ele>60.99999999999999</ele><time>2026-04-22T13:24:11Z</time></trkpt><trkpt lat="49.192555049810224" lon="2.5455959054270836"><ele>60.99999999999999</ele><time>2026-04-22T13:24:13Z</time></trkpt><trkpt lat="49.19249038418944" lon="2.545599317774674"><ele>61.0</ele><time>2026-04-22T13:24:15Z</time></trkpt><trkpt lat="49.19242238689564" lon="2.5456038141399033"><ele>60.99999999999999</ele><time>2026-04-22T13:24:17Z</time></trkpt><trkpt lat="49.192356960753635" lon="2.5456147074591797"><ele>60.99999999999999</ele><time>2026-04-22T13:24:19Z</time></trkpt><trkpt lat="49.192294104477845" lon="2.545624242310554"><ele>61.428571428571416</ele><time>2026-04-22T13:24:21Z</time></trkpt><trkpt lat="49.19222467117255" lon="2.545624454999012"><ele>61.857142857142854</ele><time>2026-04-22T13:24:23Z</time></trkpt><trkpt lat="49.19216150252729" lon="2.5456293171306177"><ele>62.28571428571428</ele><time>2026-04-22T13:24:25Z</time></trkpt><trkpt lat="49.19208412637303" lon="2.5455984033658283"><ele>62.71428571428571</ele><time>2026-04-22T13:25:52.998Z</time></trkpt><trkpt lat="49.19201906553341" lon="2.5455998269109"><ele>63.14285714285714</ele><time>2026-04-22T13:25:54.998Z</time></trkpt><trkpt lat="49.19194883806519" lon="2.545596608548853"><ele>63.57142857142857</ele><time>2026-04-22T13:25:56.997Z</time></trkpt><trkpt lat="49.19186803759688" lon="2.545589795338199"><ele>64.0</ele><time>2026-04-22T13:25:58.997Z</time></trkpt><trkpt lat="49.191787133055364" lon="2.54558311804038"><ele>64.0</ele><time>2026-04-22T13:26:00.997Z</time></trkpt><trkpt lat="49.19170546985909" lon="2.5455671994347995"><ele>64.0</ele><time>2026-04-22T13:26:02.997Z</time></trkpt><trkpt lat="49.19161648052408" lon="2.5455452967939074"><ele>64.0</ele><time>2026-04-22T13:26:04.997Z</time></trkpt><trkpt lat="49.19152418522022" lon="2.54553514772222"><ele>64.0</ele><time>2026-04-22T13:26:06.997Z</time></trkpt><trkpt lat="49.19142906569971" lon="2.5455216629209962"><ele>64.0</ele><time>2026-04-22T13:26:08.997Z</time></trkpt><trkpt lat="49.191332456155834" lon="2.545507726740957"><ele>64.0</ele><time>2026-04-22T13:26:10.997Z</time></trkpt><trkpt lat="49.191237540509086" lon="2.5454945667165174"><ele>64.0</ele><time>2026-04-22T13:26:13Z</time></trkpt><trkpt lat="49.191143350467435" lon="2.5454875413027294"><ele>64.0</ele><time>2026-04-22T13:26:15Z</time></trkpt><trkpt lat="49.19105043420429" lon="2.5454765538892103"><ele>64.0</ele><time>2026-04-22T13:26:17Z</time></trkpt><trkpt lat="49.1909622491833" lon="2.54546625935811"><ele>64.0</ele><time>2026-04-22T13:26:19Z</time></trkpt><trkpt lat="49.190865569056655" lon="2.5454567498436274"><ele>63.99999999999999</ele><time>2026-04-22T13:26:21Z</time></trkpt><trkpt lat="49.19077156007855" lon="2.5454437064762776"><ele>64.0</ele><time>2026-04-22T13:26:23Z</time></trkpt><trkpt lat="49.19068789055192" lon="2.5454388314747396"><ele>64.0</ele><time>2026-04-22T13:26:25Z</time></trkpt><trkpt lat="49.19060852761298" lon="2.5454215932303974"><ele>64.0</ele><time>2026-04-22T13:26:27Z</time></trkpt><trkpt lat="49.190536993734646" lon="2.54543203771694"><ele>63.99999999999999</ele><time>2026-04-22T13:26:29Z</time></trkpt><trkpt lat="49.190463597944266" lon="2.5454450428169944"><ele>64.0</ele><time>2026-04-22T13:26:31Z</time></trkpt><trkpt lat="49.190394112599535" lon="2.545474862364285"><ele>63.2</ele><time>2026-04-22T13:26:35Z</time></trkpt><trkpt lat="49.190528066555935" lon="2.5456862479987903"><ele>62.400000000000006</ele><time>2026-04-22T13:26:47Z</time></trkpt><trkpt lat="49.190567846339626" lon="2.545788948257805"><ele>61.6</ele><time>2026-04-22T13:26:50Z</time></trkpt><trkpt lat="49.1905897995261" lon="2.545881102370628"><ele>60.8</ele><time>2026-04-22T13:26:53Z</time></trkpt><trkpt lat="49.190628467386155" lon="2.545992767714598"><ele>60.0</ele><time>2026-04-22T13:26:56Z</time></trkpt><trkpt lat="49.19065400977584" lon="2.5461063419974987"><ele>61.0</ele><time>2026-04-22T13:26:58.999Z</time></trkpt><trkpt lat="49.19068589633221" lon="2.5462300031923126"><ele>62.0</ele><time>2026-04-22T13:27:01.999Z</time></trkpt><trkpt lat="49.190711754355384" lon="2.5463488827854626"><ele>63.0</ele><time>2026-04-22T13:27:04.999Z</time></trkpt><trkpt lat="49.190735817100446" lon="2.5464550306593217"><ele>64.0</ele><time>2026-04-22T13:27:06.999Z</time></trkpt><trkpt lat="49.19076149113732" lon="2.5465432383768007"><ele>65.0</ele><time>2026-04-22T13:27:08.999Z</time></trkpt><trkpt lat="49.190807371495474" lon="2.54667227199433"><ele>66.0</ele><time>2026-04-22T13:27:11.999Z</time></trkpt><trkpt lat="49.19084048531624" lon="2.5467578171512515"><ele>66.0</ele><time>2026-04-22T13:27:13.999Z</time></trkpt><trkpt lat="49.1908847363344" lon="2.5468845670368236"><ele>66.0</ele><time>2026-04-22T13:27:16.999Z</time></trkpt><trkpt lat="49.19092177922936" lon="2.5469661878445145"><ele>66.0</ele><time>2026-04-22T13:27:19.999Z</time></trkpt><trkpt lat="49.19098376554354" lon="2.547050553477496"><ele>66.0</ele><time>2026-04-22T13:27:22.999Z</time></trkpt><trkpt lat="49.19101370656807" lon="2.547155406595121"><ele>66.0</ele><time>2026-04-22T13:27:25.999Z</time></trkpt><trkpt lat="49.1910513498639" lon="2.547271954382283"><ele>66.0</ele><time>2026-04-22T13:27:28.998Z</time></trkpt><trkpt lat="49.19108833174548" lon="2.5473984955969367"><ele>66.14285714285714</ele><time>2026-04-22T13:27:31.998Z</time></trkpt><trkpt lat="49.191115496653865" lon="2.5474875663612537"><ele>66.28571428571429</ele><time>2026-04-22T13:27:33.998Z</time></trkpt><trkpt lat="49.191164501463916" lon="2.5475947500100884"><ele>66.42857142857143</ele><time>2026-04-22T13:27:36.998Z</time></trkpt><trkpt lat="49.19120145706023" lon="2.5476959160866093"><ele>66.57142857142857</ele><time>2026-04-22T13:27:38.998Z</time></trkpt><trkpt lat="49.19122896433982" lon="2.5477863994118715"><ele>66.71428571428571</ele><time>2026-04-22T13:27:40.998Z</time></trkpt><trkpt lat="49.19125567097878" lon="2.547881795004539"><ele>66.85714285714286</ele><time>2026-04-22T13:27:42.998Z</time></trkpt><trkpt lat="49.1912965966069" lon="2.547975814726829"><ele>67.0</ele><time>2026-04-22T13:27:44.998Z</time></trkpt><trkpt lat="49.19132735527948" lon="2.548070645631805"><ele>67.16666666666666</ele><time>2026-04-22T13:27:46.998Z</time></trkpt><trkpt lat="49.19137148494909" lon="2.548153352497866"><ele>67.33333333333333</ele><time>2026-04-22T13:27:48.998Z</time></trkpt><trkpt lat="49.19139973431562" lon="2.548242099659322"><ele>67.5</ele><time>2026-04-22T13:27:50.998Z</time></trkpt><trkpt lat="49.19143790764159" lon="2.5483408095802367"><ele>67.66666666666667</ele><time>2026-04-22T13:27:52.998Z</time></trkpt><trkpt lat="49.191478865774215" lon="2.5484299035742635"><ele>67.83333333333334</ele><time>2026-04-22T13:27:54.998Z</time></trkpt><trkpt lat="49.1915165123711" lon="2.548534931192528"><ele>68.0</ele><time>2026-04-22T13:27:56.998Z</time></trkpt><trkpt lat="49.191571115483136" lon="2.548655978602913"><ele>67.66666666666667</ele><time>2026-04-22T13:27:59.998Z</time></trkpt><trkpt lat="49.191611027984585" lon="2.548769501279823"><ele>67.33333333333334</ele><time>2026-04-22T13:28:01.997Z</time></trkpt><trkpt lat="49.19165250016088" lon="2.5488706547890203"><ele>67.0</ele><time>2026-04-22T13:28:03.997Z</time></trkpt><trkpt lat="49.191698303652814" lon="2.548987996510312"><ele>66.66666666666667</ele><time>2026-04-22T13:28:06.997Z</time></trkpt><trkpt lat="49.191738341752014" lon="2.5490720999356284"><ele>66.33333333333333</ele><time>2026-04-22T13:28:08.997Z</time></trkpt><trkpt lat="49.191808860818384" lon="2.549167266380655"><ele>66.0</ele><time>2026-04-22T13:28:11.997Z</time></trkpt><trkpt lat="49.19184298684554" lon="2.549274497161647"><ele>66.0</ele><time>2026-04-22T13:28:13.997Z</time></trkpt><trkpt lat="49.191864337294824" lon="2.5493864111303237"><ele>66.0</ele><time>2026-04-22T13:28:15.997Z</time></trkpt><trkpt lat="49.19190548682803" lon="2.5494717174430073"><ele>66.0</ele><time>2026-04-22T13:28:17.997Z</time></trkpt><trkpt lat="49.191950663816385" lon="2.5495575039892997"><ele>66.0</ele><time>2026-04-22T13:28:20Z</time></trkpt><trkpt lat="49.19198479693118" lon="2.549649606511857"><ele>66.0</ele><time>2026-04-22T13:28:22Z</time></trkpt><trkpt lat="49.19202779063865" lon="2.549738176248163"><ele>66.0</ele><time>2026-04-22T13:28:24Z</time></trkpt><trkpt lat="49.192082409769355" lon="2.54987615975473"><ele>66.0</ele><time>2026-04-22T13:28:27Z</time></trkpt><trkpt lat="49.19210148726339" lon="2.549985634507038"><ele>66.0</ele><time>2026-04-22T13:28:29Z</time></trkpt><trkpt lat="49.19216112822308" lon="2.5501154322908315"><ele>66.0</ele><time>2026-04-22T13:28:32Z</time></trkpt><trkpt lat="49.19219592063281" lon="2.550221873029947"><ele>66.0</ele><time>2026-04-22T13:28:34Z</time></trkpt><trkpt lat="49.19222938184049" lon="2.5503307726067095"><ele>66.0</ele><time>2026-04-22T13:28:36Z</time></trkpt><trkpt lat="49.19225940930464" lon="2.550432665382016"><ele>66.0</ele><time>2026-04-22T13:28:38Z</time></trkpt><trkpt lat="49.1922831886674" lon="2.5505256464965025"><ele>66.14285714285714</ele><time>2026-04-22T13:28:40Z</time></trkpt><trkpt lat="49.19231664426715" lon="2.5506143991553234"><ele>66.28571428571429</ele><time>2026-04-22T13:28:42Z</time></trkpt><trkpt lat="49.192344199629176" lon="2.550709328960812"><ele>66.42857142857143</ele><time>2026-04-22T13:28:44Z</time></trkpt><trkpt lat="49.19236874581024" lon="2.5508208194968196"><ele>66.57142857142857</ele><time>2026-04-22T13:28:46Z</time></trkpt><trkpt lat="49.19239500319448" lon="2.55091035763553"><ele>66.71428571428571</ele><time>2026-04-22T13:28:48Z</time></trkpt><trkpt lat="49.1924228657524" lon="2.5510009487764878"><ele>66.85714285714286</ele><time>2026-04-22T13:28:50Z</time></trkpt><trkpt lat="49.19244655527269" lon="2.55109956385503"><ele>67.0</ele><time>2026-04-22T13:28:52Z</time></trkpt><trkpt lat="49.19247825757525" lon="2.5511908504091316"><ele>67.14285714285714</ele><time>2026-04-22T13:28:54Z</time></trkpt><trkpt lat="49.19249727559705" lon="2.5513040229431465"><ele>67.28571428571428</ele><time>2026-04-22T13:28:56Z</time></trkpt><trkpt lat="49.1925264351519" lon="2.5514066829040924"><ele>67.42857142857142</ele><time>2026-04-22T13:28:58Z</time></trkpt><trkpt lat="49.192547321911455" lon="2.551514493269625"><ele>67.57142857142857</ele><time>2026-04-22T13:29:00Z</time></trkpt><trkpt lat="49.192580486234334" lon="2.551615079999992"><ele>67.71428571428571</ele><time>2026-04-22T13:29:01.999Z</time></trkpt><trkpt lat="49.192593116096276" lon="2.551717703228325"><ele>67.85714285714285</ele><time>2026-04-22T13:29:03.999Z</time></trkpt><trkpt lat="49.19261891158777" lon="2.5518179037073425"><ele>68.0</ele><time>2026-04-22T13:29:05.999Z</time></trkpt><trkpt lat="49.192654275388875" lon="2.551932126717073"><ele>68.16666666666667</ele><time>2026-04-22T13:29:07.999Z</time></trkpt><trkpt lat="49.192680768605086" lon="2.552058767849075"><ele>68.33333333333334</ele><time>2026-04-22T13:29:09.999Z</time></trkpt><trkpt lat="49.19271710737826" lon="2.5521662036399526"><ele>68.5</ele><time>2026-04-22T13:29:11.999Z</time></trkpt><trkpt lat="49.19274849397005" lon="2.5522779239072895"><ele>68.66666666666667</ele><time>2026-04-22T13:29:13.999Z</time></trkpt><trkpt lat="49.192789373061515" lon="2.5523966351738885"><ele>68.83333333333333</ele><time>2026-04-22T13:29:15.999Z</time></trkpt><trkpt lat="49.192820499562664" lon="2.5525228774604156"><ele>69.0</ele><time>2026-04-22T13:29:17.999Z</time></trkpt><trkpt lat="49.192842242353294" lon="2.552629568245507"><ele>69.0</ele><time>2026-04-22T13:29:19.999Z</time></trkpt><trkpt lat="49.192861918426296" lon="2.5527354154385593"><ele>69.0</ele><time>2026-04-22T13:29:21.999Z</time></trkpt><trkpt lat="49.19289059159528" lon="2.5528491512885596"><ele>69.0</ele><time>2026-04-22T13:29:23.999Z</time></trkpt><trkpt lat="49.19291692042796" lon="2.552959482779566"><ele>69.0</ele><time>2026-04-22T13:29:25.999Z</time></trkpt><trkpt lat="49.192946032154516" lon="2.55307335315966"><ele>69.0</ele><time>2026-04-22T13:29:27.999Z</time></trkpt><trkpt lat="49.192972551044406" lon="2.553191521441782"><ele>69.0</ele><time>2026-04-22T13:29:29.999Z</time></trkpt><trkpt lat="49.193003356958975" lon="2.553320951736502"><ele>68.83333333333333</ele><time>2026-04-22T13:29:31.999Z</time></trkpt><trkpt lat="49.19302531801029" lon="2.553437718615315"><ele>68.66666666666667</ele><time>2026-04-22T13:29:33.998Z</time></trkpt><trkpt lat="49.19304580980238" lon="2.553555095125824"><ele>68.5</ele><time>2026-04-22T13:29:35.998Z</time></trkpt><trkpt lat="49.19306601789318" lon="2.5536828061338035"><ele>68.33333333333334</ele><time>2026-04-22T13:29:37.998Z</time></trkpt><trkpt lat="49.19309282466354" lon="2.5538020246199684"><ele>68.16666666666667</ele><time>2026-04-22T13:29:39.998Z</time></trkpt><trkpt lat="49.19312584417422" lon="2.5538904150332975"><ele>68.0</ele><time>2026-04-22T13:29:41.998Z</time></trkpt><trkpt lat="49.19315077464515" lon="2.5540198657832476"><ele>68.0</ele><time>2026-04-22T13:29:43.998Z</time></trkpt><trkpt lat="49.19317228964359" lon="2.5541432629528478"><ele>68.0</ele><time>2026-04-22T13:29:45.998Z</time></trkpt><trkpt lat="49.19320332902527" lon="2.5542579460710466"><ele>68.0</ele><time>2026-04-22T13:29:47.998Z</time></trkpt><trkpt lat="49.1932276080772" lon="2.5543657053999183"><ele>68.0</ele><time>2026-04-22T13:29:49.998Z</time></trkpt><trkpt lat="49.19326130979101" lon="2.554494330912366"><ele>68.0</ele><time>2026-04-22T13:29:51.998Z</time></trkpt><trkpt lat="49.19328303282443" lon="2.5546132987067236"><ele>68.0</ele><time>2026-04-22T13:29:53.998Z</time></trkpt><trkpt lat="49.193294179180114" lon="2.5547373853340885"><ele>67.66666666666667</ele><time>2026-04-22T13:29:55.998Z</time></trkpt><trkpt lat="49.1933252515148" lon="2.5548559609416785"><ele>67.33333333333334</ele><time>2026-04-22T13:29:57.998Z</time></trkpt><trkpt lat="49.19334894995133" lon="2.5549588586896057"><ele>67.0</ele><time>2026-04-22T13:29:59.998Z</time></trkpt><trkpt lat="49.19337572759436" lon="2.555061025713396"><ele>66.66666666666667</ele><time>2026-04-22T13:30:01.998Z</time></trkpt><trkpt lat="49.19342302486992" lon="2.5552409264857023"><ele>66.33333333333333</ele><time>2026-04-22T13:30:04.998Z</time></trkpt><trkpt lat="49.19346441200134" lon="2.5553637556092914"><ele>66.0</ele><time>2026-04-22T13:30:06.997Z</time></trkpt><trkpt lat="49.193491819869564" lon="2.555480080036169"><ele>65.83333333333333</ele><time>2026-04-22T13:30:08.997Z</time></trkpt><trkpt lat="49.19353592071138" lon="2.5556048712948902"><ele>65.66666666666667</ele><time>2026-04-22T13:30:10.997Z</time></trkpt><trkpt lat="49.19356850533485" lon="2.5557249633764823"><ele>65.5</ele><time>2026-04-22T13:30:12.997Z</time></trkpt><trkpt lat="49.193579806914414" lon="2.555855365875094"><ele>65.33333333333334</ele><time>2026-04-22T13:30:14.997Z</time></trkpt><trkpt lat="49.19361445082923" lon="2.555961646436657"><ele>65.16666666666667</ele><time>2026-04-22T13:30:16.997Z</time></trkpt><trkpt lat="49.19363538940549" lon="2.5560866347905904"><ele>65.0</ele><time>2026-04-22T13:30:18.997Z</time></trkpt><trkpt lat="49.19365968538553" lon="2.55622373731518"><ele>64.33333333333334</ele><time>2026-04-22T13:30:20.997Z</time></trkpt><trkpt lat="49.193688992575865" lon="2.5563578429017015"><ele>63.66666666666667</ele><time>2026-04-22T13:30:22.997Z</time></trkpt><trkpt lat="49.193706566894825" lon="2.556477914438574"><ele>63.0</ele><time>2026-04-22T13:30:25Z</time></trkpt><trkpt lat="49.19372444207788" lon="2.556611399927427"><ele>62.33333333333333</ele><time>2026-04-22T13:30:27Z</time></trkpt><trkpt lat="49.19374489252485" lon="2.5567477355308217"><ele>61.666666666666664</ele><time>2026-04-22T13:30:29Z</time></trkpt><trkpt lat="49.193764858489985" lon="2.5568841148475085"><ele>61.0</ele><time>2026-04-22T13:30:31Z</time></trkpt><trkpt lat="49.1937888907554" lon="2.5570177834390653"><ele>60.8</ele><time>2026-04-22T13:30:33Z</time></trkpt><trkpt lat="49.19382197001582" lon="2.55714841118376"><ele>60.599999999999994</ele><time>2026-04-22T13:30:35Z</time></trkpt><trkpt lat="49.19384953281027" lon="2.5572842152781745"><ele>60.4</ele><time>2026-04-22T13:30:37Z</time></trkpt><trkpt lat="49.193873785457306" lon="2.5574086859002545"><ele>60.2</ele><time>2026-04-22T13:30:39Z</time></trkpt><trkpt lat="49.19391083770404" lon="2.5575455028594103"><ele>60.0</ele><time>2026-04-22T13:30:41Z</time></trkpt><trkpt lat="49.19393688475062" lon="2.5576702987061313"><ele>60.0</ele><time>2026-04-22T13:30:43Z</time></trkpt><trkpt lat="49.19398072004758" lon="2.5577766030987106"><ele>60.0</ele><time>2026-04-22T13:30:45Z</time></trkpt><trkpt lat="49.19401282889721" lon="2.557900950727063"><ele>60.0</ele><time>2026-04-22T13:30:47Z</time></trkpt><trkpt lat="49.19403809964169" lon="2.558037675378682"><ele>60.0</ele><time>2026-04-22T13:30:49Z</time></trkpt><trkpt lat="49.194062275535146" lon="2.558172130527945"><ele>60.0</ele><time>2026-04-22T13:30:51Z</time></trkpt><trkpt lat="49.19408414889515" lon="2.5582888523675353"><ele>60.0</ele><time>2026-04-22T13:30:53Z</time></trkpt><trkpt lat="49.194107647610636" lon="2.5584264817222033"><ele>59.6</ele><time>2026-04-22T13:30:55Z</time></trkpt><trkpt lat="49.1941446928583" lon="2.5585598114906527"><ele>59.2</ele><time>2026-04-22T13:30:57Z</time></trkpt><trkpt lat="49.194182383558235" lon="2.5586939658361487"><ele>58.8</ele><time>2026-04-22T13:30:59Z</time></trkpt><trkpt lat="49.19420889340627" lon="2.5588321348624006"><ele>58.4</ele><time>2026-04-22T13:31:01Z</time></trkpt><trkpt lat="49.194244378879304" lon="2.5589688939271595"><ele>58.0</ele><time>2026-04-22T13:31:03Z</time></trkpt><trkpt lat="49.19426976492807" lon="2.5591169323422553"><ele>57.99999999999999</ele><time>2026-04-22T13:31:05Z</time></trkpt><trkpt lat="49.1942958233584" lon="2.5592501662582796"><ele>58.0</ele><time>2026-04-22T13:31:06.999Z</time></trkpt><trkpt lat="49.19432277256702" lon="2.559376673756867"><ele>58.0</ele><time>2026-04-22T13:31:08.999Z</time></trkpt><trkpt lat="49.19435119455401" lon="2.559497044989003"><ele>58.0</ele><time>2026-04-22T13:31:10.999Z</time></trkpt><trkpt lat="49.194383290088396" lon="2.559623987666878"><ele>57.99999999999999</ele><time>2026-04-22T13:31:12.999Z</time></trkpt><trkpt lat="49.19441182228479" lon="2.559762838917367"><ele>58.0</ele><time>2026-04-22T13:31:14.999Z</time></trkpt><trkpt lat="49.19444724910037" lon="2.559898174121985"><ele>57.8</ele><time>2026-04-22T13:31:16.999Z</time></trkpt><trkpt lat="49.19447453082335" lon="2.560049652179241"><ele>57.599999999999994</ele><time>2026-04-22T13:31:18.999Z</time></trkpt><trkpt lat="49.19450785027138" lon="2.560204450583705"><ele>57.400000000000006</ele><time>2026-04-22T13:31:20.999Z</time></trkpt><trkpt lat="49.19453346375241" lon="2.5603620720132345"><ele>57.2</ele><time>2026-04-22T13:31:22.999Z</time></trkpt><trkpt lat="49.194558815959496" lon="2.5605163098051564"><ele>57.0</ele><time>2026-04-22T13:31:24.999Z</time></trkpt><trkpt lat="49.194593211511254" lon="2.5606702123235805"><ele>57.6</ele><time>2026-04-22T13:31:26.999Z</time></trkpt><trkpt lat="49.19462681053074" lon="2.5608289170362197"><ele>58.2</ele><time>2026-04-22T13:31:28.999Z</time></trkpt><trkpt lat="49.19465413779736" lon="2.560991667664383"><ele>58.8</ele><time>2026-04-22T13:31:30.999Z</time></trkpt><trkpt lat="49.194661424855006" lon="2.561130504051422"><ele>59.4</ele><time>2026-04-22T13:31:32.999Z</time></trkpt><trkpt lat="49.19469608087026" lon="2.5612612814636426"><ele>60.0</ele><time>2026-04-22T13:31:34.999Z</time></trkpt><trkpt lat="49.19472774233976" lon="2.5614023675181965"><ele>60.142857142857146</ele><time>2026-04-22T13:31:36.999Z</time></trkpt><trkpt lat="49.194754071085256" lon="2.5615304591913746"><ele>60.28571428571428</ele><time>2026-04-22T13:31:38.998Z</time></trkpt><trkpt lat="49.1947752705161" lon="2.56162410073211"><ele>60.42857142857142</ele><time>2026-04-22T13:31:43.998Z</time></trkpt><trkpt lat="49.19480837106748" lon="2.5617137762316484"><ele>60.57142857142857</ele><time>2026-04-22T13:31:53.998Z</time></trkpt><trkpt lat="49.19483931135061" lon="2.5618173851934927"><ele>60.71428571428571</ele><time>2026-04-22T13:31:57.998Z</time></trkpt><trkpt lat="49.19486724068578" lon="2.5619128619909457"><ele>60.85714285714285</ele><time>2026-04-22T13:32:00.998Z</time></trkpt><trkpt lat="49.19487493492459" lon="2.562014499342513"><ele>60.99999999999999</ele><time>2026-04-22T13:32:02.998Z</time></trkpt><trkpt lat="49.19489095244077" lon="2.5621130184342076"><ele>60.4</ele><time>2026-04-22T13:32:04.998Z</time></trkpt><trkpt lat="49.1948956560799" lon="2.5622131973810074"><ele>59.8</ele><time>2026-04-22T13:32:06.998Z</time></trkpt><trkpt lat="49.19491099756362" lon="2.562330039637609"><ele>59.199999999999996</ele><time>2026-04-22T13:32:08.998Z</time></trkpt><trkpt lat="49.195077197095955" lon="2.5623705826402743"><ele>58.599999999999994</ele><time>2026-04-22T13:32:09.998Z</time></trkpt><trkpt lat="49.195081593204044" lon="2.5625215184860006"><ele>58.0</ele><time>2026-04-22T13:32:13.997Z</time></trkpt><trkpt lat="49.19512693961623" lon="2.5626268894950806"><ele>58.0</ele><time>2026-04-22T13:32:16.997Z</time></trkpt><trkpt lat="49.19515177986817" lon="2.562741727117949"><ele>58.0</ele><time>2026-04-22T13:32:19.997Z</time></trkpt><trkpt lat="49.19495882142946" lon="2.5628875108148326"><ele>58.0</ele><time>2026-04-22T13:32:20.997Z</time></trkpt><trkpt lat="49.194950507336685" lon="2.563017283579771"><ele>58.0</ele><time>2026-04-22T13:32:23.997Z</time></trkpt><trkpt lat="49.194942483617204" lon="2.563147054544477"><ele>57.99999999999999</ele><time>2026-04-22T13:32:26.997Z</time></trkpt><trkpt lat="49.19492754757285" lon="2.5632662794900236"><ele>58.0</ele><time>2026-04-22T13:32:29.997Z</time></trkpt><trkpt lat="49.19492382202324" lon="2.5633685967562685"><ele>58.0</ele><time>2026-04-22T13:32:32Z</time></trkpt><trkpt lat="49.19491316718484" lon="2.5634652652499326"><ele>58.0</ele><time>2026-04-22T13:32:34Z</time></trkpt><trkpt lat="49.194898371480406" lon="2.563565790264812"><ele>57.99999999999999</ele><time>2026-04-22T13:32:36Z</time></trkpt><trkpt lat="49.194885686673786" lon="2.563669167874068"><ele>58.0</ele><time>2026-04-22T13:32:38Z</time></trkpt><trkpt lat="49.194872445608475" lon="2.563833562429478"><ele>57.666666666666664</ele><time>2026-04-22T13:32:42Z</time></trkpt><trkpt lat="49.19486453099881" lon="2.5639604794023967"><ele>57.33333333333333</ele><time>2026-04-22T13:32:44Z</time></trkpt><trkpt lat="49.194856310432925" lon="2.564083278688649"><ele>57.0</ele><time>2026-04-22T13:32:46Z</time></trkpt><trkpt lat="49.194852620874464" lon="2.564209578689469"><ele>56.66666666666667</ele><time>2026-04-22T13:32:48Z</time></trkpt><trkpt lat="49.19485287704652" lon="2.5643342607244852"><ele>56.333333333333336</ele><time>2026-04-22T13:32:50Z</time></trkpt><trkpt lat="49.19485680268011" lon="2.564455536241712"><ele>56.0</ele><time>2026-04-22T13:32:53Z</time></trkpt><trkpt lat="49.19487823740012" lon="2.564581914465827"><ele>55.0</ele><time>2026-04-22T13:32:56Z</time></trkpt><trkpt lat="49.1949132418577" lon="2.5646752290356156"><ele>55.0</ele><time>2026-04-22T13:32:58Z</time></trkpt><trkpt lat="49.19493086156457" lon="2.56479511585269"><ele>55.0</ele><time>2026-04-22T13:33:02Z</time></trkpt><trkpt lat="49.19496512935078" lon="2.564898475936487"><ele>55.0</ele><time>2026-04-22T13:33:05Z</time></trkpt><trkpt lat="49.19500746672012" lon="2.5650005467376777"><ele>55.0</ele><time>2026-04-22T13:33:08Z</time></trkpt><trkpt lat="49.19504376181959" lon="2.565079853600569"><ele>55.0</ele><time>2026-04-22T13:33:11Z</time></trkpt></trkseg></trk></gpx>